     2              OBSERVATION DATA    GPS                 RINEX VERSION / TYPE
teqc 1998Mar9 19981006 17:16:21UTC                          PGM / RUN BY / DATE
                                                            COMMENT
Original Marker Name: 0616                                  COMMENT
Campaign Name: HPGN 1998                                    COMMENT
4-Character Station Name: 0616                              COMMENT
6-Character Antenna Code: TRMCMP                            COMMENT
Vertical Measurement Point: BPA                             COMMENT
Vertical Offset to Rinex Ref. Point: 0.0000                 COMMENT
Radial Measurement Point: RRP                               COMMENT
Radial Offset to Rinex Ref. Point: 0.0000                   COMMENT
Antenna Height from Field Measurement: 2.0000 m             COMMENT
Original XYZ: -2545594.8788 -4549729.0899 3662115.4024      COMMENT
New XYZ position is based on association with SCEC monument COMMENT
E1E9X5H9+0011. Position of that monument is believed to be  COMMENT
valid to within 1 m horizontally; vertical accuracy         COMMENT
should be no worse than 3-times this value.                 COMMENT
                                                            COMMENT
Revised Rinex header created by UCSD GPS archive for        COMMENT
GSAC on 19-Apr-1999 (1999:109) 06:12:58 GMT                 COMMENT
For assistance contact dagnew@ucsd.edu or hjohnson@ucsd.edu COMMENT
                                                            COMMENT
HPGN CA 06 16                                               MARKER NAME
unknown CALIF DEPT TRANSPORTATION                           OBSERVER / AGENCY
7882 TRIMBLE 4000 SSE NP 7.25; SP 3.07                      REC # / TYPE / VERS
114383 TR GEOD L1/L2 GP                                     ANT # / TYPE
 -2545588.0000 -4549722.0000  3662107.0000                  APPROX POSITION XYZ
        2.0000        0.0000        0.0000                  ANTENNA: DELTA H/E/N
     1     1     0                                          WAVELENGTH FACT L1/2
     7    L1    L2    C1    P2    P1    D1    D2            # / TYPES OF OBSERV
     0                                                      INTERVAL
  1998     7     2    14    32    0.000000                  TIME OF FIRST OBS
  1998     7     2    20     7    0.000000                  TIME OF LAST OBS
                                                            END OF HEADER
 98  7  2 14 32  0.0000000  0  7G 2G 4G 5G 7G 8G 9G24
     93300.43455     60199.56255  23487513.3444   23487518.1374
     -3229.7664      -2516.7004
     10080.50157      7074.88557  20618255.7034   20618256.8164
      -366.0474       -285.2314
    -53350.96756     -4280.42755  22668227.1884   22668229.4734
      1830.0944       1426.0474
     88574.28356     30981.51056  22337525.4534   22337527.8094
     -3063.7664      -2387.3504
    -57025.96555    -30581.02855  22651037.6804   22651039.6374
      1950.9384       1520.2114
     11525.21057      8382.98757  21116171.2034   21116172.6214
      -415.1094       -323.4624
    -52246.72757    -40712.54656  21347836.0554   21347839.3014
      1787.2504       1392.6624
 98  7  2 14 32 15.0000000  0  7G 2G 4G 5G 7G 8G 9G24
    141877.64545     98051.91745  23496757.2274   23496761.5984
     -3247.5314      -2530.5444
     15748.11647     11491.22847  20619334.1334   20619335.3524
      -389.8914       -303.8114
    -80692.37446    -25585.38845  22663024.2344   22663025.6764
      1815.1724       1414.4204
    134637.69446     66875.07745  22346290.6804   22346293.3054
     -3078.3284      -2398.6974
    -86133.31845    -53262.05845  22645498.9534   22645501.2384
      1929.7664       1503.7134
     17922.47147     13367.87447  21117388.5314   21117389.9614
      -438.1414       -341.4084
    -78906.92247    -61486.68646  21342762.5234   21342765.7934
      1767.1414       1376.9934
 98  7  2 14 32 30.0000000  0  7G 2G 4G 5G 7G 8G 9G24
    190736.12445    136123.41945  23506054.7344   23506059.2704
     -3267.3444      -2545.9824
     21786.19147     16196.23947  20620483.2504   20620484.5634
      -415.5624       -323.8154
   -107798.43246    -46706.95945  22657866.4304   22657868.2234
      1798.6414       1401.5384
    180933.71846    102949.90545  22355100.7194   22355103.9184
     -3094.8444      -2411.5674
   -114908.50145    -75684.25445  22640023.6334   22640026.0704
      1906.5944       1485.6574
     24679.27547     18632.92447  21118674.3204   21118675.7384
      -463.0944       -360.8524
   -105252.04847    -82015.33046  21337749.4534   21337752.5944
      1745.2034       1359.8994
 98  7  2 14 32 45.0000000  0  7G 2G 4G 5G 7G 8G 9G24
    239908.99545    174439.90845  23515412.1094   23515416.5634
     -3289.5164      -2563.2594
     28227.53347     21215.48147  20621708.9844   20621710.1914
      -443.7814       -345.8044
   -134640.30246    -67622.68245  22652758.1174   22652760.6724
      1779.7664       1386.8304
    227494.96646    139231.37745  22363961.2734   22363964.6844
     -3113.8284      -2426.3604
   -143320.71546    -97823.62045  22634616.7194   22634619.5664
      1881.2504       1465.9094
     31825.90747     24201.73447  21120034.3444   21120035.7624
      -490.3124       -382.0624
   -131252.65147   -102275.51646  21332801.6724   21332804.6254
      1721.0944       1341.1124
 98  7  2 14 33  0.0000000  0  7G 2G 4G 5G 7G 8G 9G24
    289436.54945    213032.76745  23524836.7894   23524841.5704
     -3314.5164      -2582.7394
     35114.68247     26582.10547  20623019.5634   20623020.8754
      -474.9064       -370.0574
   -161175.50146    -88299.43445  22647708.8914   22647711.1174
      1757.8444       1369.7484
    274364.31746    175752.94445  22372880.0234   22372883.4224
     -3135.7974      -2443.4784
   -171331.96746   -119650.54645  22629286.2814   22629288.5434
      1853.2344       1444.0794
     39405.57447     30107.97747  21121476.6954   21121478.2074
      -520.7344       -405.7674
   -156868.91847   -122236.21146  21327926.9924   21327930.0984
      1694.0004       1320.0004
 98  7  2 14 33 15.0000000  0  7G 2G 4G 5G 7G 8G 9G24
    339359.86445    251934.02745  23534336.9774   23534341.3954
     -3342.2194      -2604.3264
     42488.80447     32328.19247  20624422.7424   20624423.9384
      -508.6414       -396.3434
   -187360.86246   -108703.58645  22642725.7114   22642727.4454
      1733.1724       1350.5244
    321583.31046    212546.95345  22381865.5164   22381868.8444
     -3160.4374      -2462.6794
   -198902.28746   -141133.90645  22624039.7664   22624041.8984
      1822.5474       1420.1664
     47462.14147     36385.82447  21123009.5944   21123011.0594
      -553.7664       -431.5064
   -182057.54947   -141863.69146  21323133.6954   21323136.8014
      1664.1564       1296.7454
 98  7  2 14 33 30.0000000  0  7G 2G 4G 5G 7G 8G 9G24
    389713.37745    291170.51645  23543919.3134   23543923.4964
     -3372.1564      -2627.6544
     50385.66947     38481.60747  20625925.3364   20625926.4734
      -544.8284       -424.5414
   -213157.13346   -128804.54745  22637817.0004   22637819.4264
      1705.7504       1329.1564
    369189.43746    249642.62945  22390924.7194   22390927.5784
     -3187.6414      -2483.8764
   -225996.96346   -162246.61345  22618883.8754   22618886.0664
      1789.5164       1394.4284
     56029.93247     43062.03247  21124640.2504   21124641.7624
      -589.1724       -459.0954
   -206780.82547   -161128.55746  21318428.7734   21318431.8324
      1631.6724       1271.4334
 98  7  2 14 33 45.0000000  0  7G 2G 4G 5G 7G 8G 9G24
    440523.97745    330763.13145  23553587.7344   23553592.5394
     -3402.6724      -2651.4334
     58832.90047     45063.87947  20627532.8914   20627534.0044
      -581.5314       -453.1414
   -238533.35446   -148578.19945  22632987.9694   22632991.1334
      1677.7034       1307.3014
    417212.43246    287063.13345  22400063.0084   22400065.9964
     -3215.4844      -2505.5724
   -252589.98846   -182968.42645  22613823.2034   22613825.8164
      1756.1414       1368.4214
     65137.54147     50158.87747  21126373.3134   21126374.8244
      -625.2344       -487.1964
   -231007.00047   -180006.06946  21313818.7584   21313821.9454
      1598.3134       1245.4384
 98  7  2 14 34  0.0000000  0  7G 2G 4G 5G 7G 8G 9G24
    491811.79045    370727.63545  23563347.6174   23563351.8834
     -3436.7814      -2678.0114
     67849.00247     52089.42847  20629248.7424   20629249.6914
      -621.6874       -484.4324
   -263471.16046   -168010.23045  22628242.7034   22628245.4574
      1646.2504       1282.7924
    465672.61046    324824.29545  22409284.8444   22409287.9844
     -3246.9534      -2530.0934
   -278664.71646   -203286.38245  22608861.5234   22608864.4184
      1719.4534       1339.8344
     74804.55047     57691.61147  21128212.7894   21128214.3954
      -664.7974       -518.0244
   -254711.22547   -198476.86746  21309308.1094   21309311.4384
      1561.1254       1216.4614
 98  7  2 14 34 15.0000000  0  7G 2G 4G 5G 7G 8G 9G24
    543627.30445    411103.30345  23573208.0704   23573212.1254
     -3471.7974      -2705.2964
     77482.21647     59595.84347  20631081.6724   20631082.8324
      -662.5314       -516.2584
   -287921.99646   -187062.80045  22623589.8444   22623592.3054
      1614.0784       1257.7234
    514620.76146    362965.71145  22418599.3984   22418602.2584
     -3279.3594      -2555.3454
   -304176.21946   -223165.45845  22604006.7734   22604008.8594
      1682.2034       1310.8084
     85078.28447     65697.11747  21130167.9924   21130169.8324
      -704.7974       -549.1924
   -277842.47347   -216501.19146  21304906.2504   21304909.5434
      1523.2034       1186.9124
 98  7  2 14 34 30.0000000  0  7G 2G 4G 5G 7G 8G 9G24
    595956.10445    451878.97245  23583165.6094   23583170.7074
     -3505.2194      -2731.3394
     87716.16447     67570.35847  20633029.3524   20633030.4654
      -701.8914       -546.9284
   -311902.28246   -205748.71045  22619026.5314   22619028.7464
      1583.4064       1233.8234
    564044.73846    401477.87745  22428004.6644   22428007.5354
     -3310.3594      -2579.5014
   -329138.57946   -242616.63545  22599256.6414   22599258.5514
      1646.2504       1282.7924
     95939.99847     74160.79547  21132234.8754   21132236.5744
      -743.3124       -579.2054
   -300416.40447   -234091.24146  21300610.7274   21300613.8324
      1486.7974       1158.5434
 98  7  2 14 34 45.0000000  0  7G 2G 4G 5G 7G 8G 9G24
    648774.10145    493035.81445  23593216.9224   23593221.8794
     -3536.9374      -2756.0554
     98531.45847     75997.87247  20635087.4844   20635088.5744
      -739.9694       -576.5994
   -335433.12746   -224084.41845  22614548.9144   22614551.3874
      1554.2504       1211.1044
    613921.71946    440343.04645  22437495.7274   22437498.6684
     -3339.6724      -2602.3424
   -353575.46646   -261658.34245  22594606.5864   22594608.7544
      1612.2504       1256.2994
    107368.12947     83065.83447  21134409.7114   21134411.3634
      -780.2194       -607.9634
   -322456.79847   -251265.55046  21296416.6414   21296419.6644
      1452.1094       1131.5144
 98  7  2 14 35  0.0000000  0  7G 2G 4G 5G 7G 8G 9G24
    702056.10645    534554.19345  23603355.3364   23603360.8444
     -3567.1414      -2779.5904
    109908.53747     84863.14047  20637252.4614   20637253.4924
      -776.7504       -605.2604
   -358535.32146   -242086.10545  22610152.1644   22610154.3324
      1526.2344       1189.2744
    664228.22946    479542.90545  22447068.6724   22447071.9884
     -3367.6414      -2624.1364
   -377513.88846   -280311.64345  22590051.3364   22590053.6334
      1579.6884       1230.9254
    119339.46747     92394.14947  21136687.7034   21136689.3674
      -815.8284       -635.7104
   -343985.04747   -268040.78846  21292319.7504   21292322.9494
      1418.4694       1105.3004
 98  7  2 14 35 15.0000000  0  7G 2G 4G 5G 7G 8G 9G24
    755783.04545    576419.28844  23613579.6804   23613584.3444
     -3596.1254      -2802.1754
    121826.23747     94149.67047  20639520.3834   20639521.5314
      -811.8914       -632.6424
   -381227.05746   -259767.95345  22605834.4064   22605837.1134
      1499.7504       1168.6364
    714943.76046    519061.48545  22456719.6334   22456723.3954
     -3394.0474      -2644.7124
   -400972.36846   -298590.95545  22585587.0864   22585589.6884
      1548.4384       1206.5754
    131835.33147    102131.18447  21139065.6644   21139067.2234
      -849.9064       -662.2654
   -365016.32147   -284428.77246  21288318.2974   21288321.4494
      1386.0634       1080.0494
 98  7  2 14 35 30.0000000  0  7G 2G 4G 5G 7G 8G 9G24
    809934.94645    618615.52445  23623884.9774   23623890.6954
     -3623.8914      -2823.8114
    134258.88347    103837.45747  20641886.0314   20641887.1684
      -845.5474       -658.8684
   -403534.08046   -277150.01145  22601589.5704   22601591.5044
      1474.7504       1149.1564
    766045.30046    558880.85645  22466444.1564   22466447.8954
     -3419.2664      -2664.3634
   -423970.15546   -316511.29445  22581210.7194   22581213.5554
      1518.2194       1183.0284
    144831.40747    112257.99947  21141538.6414   21141540.4344
      -882.6724       -687.7964
   -385572.11747   -300446.24846  21284406.2034   21284409.4264
      1355.0004       1055.8444
 98  7  2 14 35 45.0000000  0  7G 2G 4G 5G 7G 8G 9G24
    864493.50945    661128.67244  23634266.6644   23634271.6454
     -3650.3914      -2844.4604
    147187.31047    113911.56547  20644346.2504   20644347.5044
      -878.0314       -684.1804
   -425476.12746   -294247.69145  22597414.0474   22597416.4144
      1451.1094       1130.7354
    817515.19446    598987.24545  22476238.3364   22476241.4654
     -3443.0944      -2682.9304
   -446524.08846   -334085.77445  22576918.7814   22576921.3954
      1489.2194       1160.4304
    158310.45247    122761.14947  21144103.5394   21144105.4614
      -914.3754       -712.5004
   -405673.39147   -316109.55846  21280580.9924   21280584.1214
      1325.4224       1032.7964
 98  7  2 14 36  0.0000000  0  7G 2G 4G 5G 7G 8G 9G24
    919442.31545    703945.84244  23644722.9064   23644728.0044
     -3676.0004      -2864.4164
    160595.47147    124359.49047  20646897.7814   20646898.9304
      -909.6874       -708.8474
   -447072.38646   -311075.93345  22593304.5474   22593307.1254
      1428.5164       1113.1294
    869333.31046    639364.98445  22486099.1644   22486102.5744
     -3465.8914      -2700.6944
   -468650.55746   -351327.15745  22572708.4064   22572711.1374
      1461.0314       1138.4664
    172259.16747    133630.28047  21146757.6884   21146759.7034
      -945.3594       -736.6444
   -425339.58747   -331433.84146  21276838.6644   21276841.8524
      1296.8134       1010.5034
 98  7  2 14 36 15.0000000  0  7G 2G 4G 5G 7G 8G 9G24
    974769.60345    747057.97144  23655251.5474   23655257.3014
     -3701.0004      -2883.8964
    174474.15147    135174.05947  20649539.0394   20649540.3634
      -940.8444       -733.1254
   -468334.62946   -327643.88545  22589258.3284   22589260.8714
      1406.4224       1095.9134
    921488.00846    680004.99845  22496023.8054   22496027.2384
     -3488.0624      -2717.9714
   -490358.30346   -368242.25945  22568577.5944   22568579.7974
      1433.3284       1116.8794
    186667.94447    144857.89447  21149500.1414   21149501.9924
      -975.8284       -760.3864
   -444582.32147   -346428.15846  21273176.9924   21273180.1094
      1268.9224        988.7704
 98  7  2 14 36 30.0000000  0  7G 2G 4G 5G 7G 8G 9G24
   1030467.03245    790458.50444  23665850.3914   23665856.0044
     -3725.3754      -2902.8904
    188816.60747    146350.00647  20652268.1644   20652269.5124
      -971.5474       -757.0504
   -489269.85646   -343957.03145  22585274.7974   22585277.2934
      1384.9224       1079.1604
    973969.66646    720899.78045  22506011.0634   22506013.8164
     -3509.5004      -2734.6754
   -511653.12746   -384835.62545  22564525.3834   22564527.6564
      1405.8914       1095.4994
    201529.52147    156438.34347  21152328.0164   21152329.6564
     -1005.7974       -783.7384
   -463412.23447   -361100.79746  21269593.6884   21269596.7234
      1241.7034        967.5614
 98  7  2 14 36 45.0000000  0  7G 2G 4G 5G 7G 8G 9G24
   1086523.81445    834139.06844  23676517.7814   23676522.4694
     -3748.8124      -2921.1534
    203614.82947    157881.09647  20655084.1954   20655085.6954
     -1001.5314       -780.4144
   -509887.99646   -360023.09245  22581351.3984   22581353.8484
      1364.2034       1063.0154
   1026764.07446    762038.26545  22516057.4144   22516060.3444
     -3529.7034      -2750.4184
   -532541.51346   -401112.26745  22560550.2664   22560552.7974
      1379.2974       1074.7774
    216837.18147    168366.38747  21155240.8914   21155242.4844
     -1035.1724       -806.6274
   -481839.24447   -375459.48746  21266087.0634   21266090.1564
      1215.2504        946.9484
 98  7  2 14 37  0.0000000  0  7G 2G 4G 5G 7G 8G 9G24
   1142930.95345    878092.65944  23687252.1024   23687256.8244
     -3771.8124      -2939.0754
    218859.84847    169760.34247  20657984.9614   20657986.2974
     -1030.7194       -803.1574
   -530196.79146   -375848.10745  22577486.5634   22577489.1764
      1343.9064       1047.2004
   1079858.95646    803410.88645  22526161.2114   22526164.5864
     -3549.3444      -2765.7224
   -553033.21046   -417079.81545  22556650.8914   22556653.3984
      1353.2194       1054.4564
    232583.78547    180636.46947  21158237.5944   21158239.1054
     -1064.0784       -829.1524
   -499870.68147   -389509.93946  21262655.8914   21262659.1134
      1189.2194        926.6644
 98  7  2 14 37 15.0000000  0  7G 2G 4G 5G 7G 8G 9G24
   1199679.86245    922312.52845  23698050.9694   23698055.1994
     -3794.6254      -2956.8514
    234536.55847    181975.96947  20660968.4304   20660969.7304
     -1059.3914       -825.4994
   -550202.58546   -391437.01645  22573679.4224   22573681.8834
      1323.6414       1031.4084
   1133246.40546    845011.47445  22536320.2974   22536323.5434
     -3568.8594      -2780.9294
   -573133.97446   -432742.73345  22552825.5164   22552827.8834
      1326.9384       1033.9774
    248761.29047    193242.31347  21161315.9924   21161317.6804
     -1092.8284       -851.5544
   -517514.55747   -403258.39946  21259298.2274   21259301.5664
      1163.4224        906.5634
 98  7  2 14 37 30.0000000  0  7G 2G 4G 5G 7G 8G 9G24
   1256768.54345    966797.18144  23708914.4304   23708919.7384
     -3817.2034      -2974.4444
    250639.89347    194524.03047  20664032.6884   20664034.0004
     -1087.8444       -847.6704
   -569908.39646   -406792.18045  22569929.5944   22569932.1844
      1303.6724       1015.8484
   1186923.41646    886837.69245  22546534.3754   22546537.8674
     -3588.1724      -2795.9784
   -592842.38946                  22549075.0234
      1300.7504
    265366.10547    206181.13047  21164475.5394   21164477.2384
     -1121.2504       -873.7014
   -534775.65147   -416708.58246  21256013.3984   21256016.5864
      1138.0004        886.7534
 98  7  2 14 37 45.0000000  0  7G 2G 4G 5G 7G 8G 9G24
   1314191.59945   1011542.37344  23719842.3984   23719847.7074
     -3839.0314      -2991.4534
    267168.64747    207403.58747  20667178.0864   20667179.5634
     -1115.8594       -869.5014
   -589314.12646   -421913.50845  22566236.3914   22566239.1094
      1283.8594       1000.4104
   1240887.99846    928888.00045  22556803.7584   22556806.9694
     -3606.8914      -2810.5644
   -612159.29646                  22545399.5314
      1275.0474
    282395.48147    219450.77147  21167716.2274   21167717.9734
     -1149.1564       -895.4464
   -551658.01447   -429863.65246  21252800.6724   21252803.9534
      1113.1884        867.4194
 98  7  2 14 38  0.0000000  0  7G 2G 4G 5G 7G 8G 9G24
   1371940.46345   1056541.42544  23730831.4454   23730836.6374
     -3860.9534      -3008.5354
    284115.95147    220609.28447  20670403.0084   20670404.5084
     -1143.8594       -891.3194
   -608423.59146   -436803.98645  22562600.2734   22562602.3834
      1263.9064        984.8624
   1295129.13746    971153.81045  22567125.4384   22567128.5434
     -3625.3914      -2824.9804
   -631093.67546         0.92655  22541796.3054   22541798.5204
      1249.3594        973.5274
    299840.10147    233043.97947  21171036.0314   21171037.7424
     -1176.8914       -917.0584
   -568170.81747   -442730.75546  21249658.5784   21249661.8244
      1088.3444        848.0604
 98  7  2 14 38 15.0000000  0  7G 2G 4G 5G 7G 8G 9G24
   1430017.41045   1101796.15344  23741883.2344   23741888.8954
     -3882.4844      -3025.3124
    301480.52347    234140.12547  20673707.6174   20673708.8714
     -1171.3124       -912.7114
   -627233.83146   -451461.29645  22559020.7814   22559022.8554
      1244.2504        969.5454
   1349647.22746   1013635.42745  22577499.6414   22577502.9224
     -3643.5784      -2839.1524
   -649644.62446    -14454.32845  22538266.2194   22538268.5394
      1224.1884        953.9124
    317696.47947    246958.03647  21174433.9064   21174435.7934
     -1203.7814       -938.0114
   -584311.76047   -455308.09846  21246587.1884   21246590.4344
      1063.9384        829.0424
 98  7  2 14 38 30.0000000  0  7G 2G 4G 5G 7G 8G 9G24
   1488410.53645   1147297.21844  23752994.9064   23753000.5084
     -3903.3594      -3041.5794
    319250.18447    247986.62547  20677088.9454   20677090.2814
     -1198.0314       -933.5314
   -645755.23546   -465893.54045  22555496.6334   22555499.0474
      1225.2344        954.7284
   1404430.94246   1056324.00445  22587924.9844   22587928.2544
     -3660.9694      -2852.7034
   -667824.42946    -28620.39145  22534806.7974   22534809.5164
      1199.7034        934.8344
    335948.51147    261180.39547  21177907.3204   21177909.2194
     -1229.8594       -958.3324
   -600093.98647   -467605.92646  21243583.8834   21243587.1524
      1040.3284        810.6454
 98  7  2 14 38 45.0000000  0  7G 2G 4G 5G 7G 8G 9G24
   1547114.72645   1193040.70544  23764165.9844   23764171.3634
     -3923.7814      -3057.4924
    337417.87947    262143.27347  20680546.0234   20680547.3834
     -1224.2194       -953.9374
   -663994.53046   -480105.96745  22552025.4774   22552027.6334
      1206.7814        940.3494
   1459473.28946   1099214.12445  22598399.3754   22598403.1024
     -3677.8914      -2865.8894
   -685639.05046    -42501.89645  22531416.6254   22531419.1094
      1175.6884        916.1204
    354588.23447    275704.85147  21181454.1644   21181455.9574
     -1255.3124       -978.1664
   -615523.46347   -479628.88246  21240647.5474   21240650.7584
      1017.0314        792.4924
 98  7  2 14 39  0.0000000  0  7G 2G 4G 5G 7G 8G 9G24
   1606126.47445   1239023.81244  23775395.8364   23775400.8404
     -3944.3914      -3073.5514
    355978.69447    276606.25147  20684078.1024   20684079.5084
     -1250.4224       -974.3554
   -681955.33846   -494101.38645  22548607.7194   22548609.4534
      1188.1254        925.8124
   1514771.09046   1142303.30545  22608922.1884   22608925.4454
     -3695.1254      -2879.3184
   -703092.77546    -56102.18745  22528095.5084   22528098.4024
      1151.5784        897.3344
    373609.68847    290526.75547  21185073.9064   21185075.6054
     -1280.7504       -997.9874
   -630601.63247   -491378.08846  21237778.6804   21237781.8444
       993.4844        774.1444
 98  7  2 14 39 15.0000000  0  7G 2G 4G 5G 7G 8G 9G24
   1665443.03545   1285244.45744  23786683.4534   23786688.0354
     -3964.4534      -3089.1844
    374926.35347    291370.66747  20687683.7194   20687685.1724
     -1275.9224       -994.2254
   -699642.67546   -507883.70845  22545241.8674   22545244.0824
      1170.2664        911.8954
   1570324.07546   1185591.31845  22619493.7734   22619496.6334
     -3711.9534      -2892.4314
   -720189.37946    -69424.19145  22524841.9454   22524844.2074
      1127.9844        878.9494
    393006.93447    305641.48847  21188764.9694   21188766.7624
     -1305.5004      -1017.2734
   -645331.10147   -502855.58147  21234975.4694   21234978.6214
       970.4844        756.2224
 98  7  2 14 39 30.0000000  0  7G 2G 4G 5G 7G 8G 9G24
   1725056.32545   1331696.30244  23798027.4924   23798032.0164
     -3983.9694      -3104.3914
    394255.05247    306431.99747  20691361.8834   20691363.2774
     -1301.2344      -1013.9494
   -717068.57146   -521462.31945  22541925.8364   22541928.3914
      1153.2974        898.6734
   1626126.14246   1229073.43545  22630112.3984   22630115.7854
     -3728.2194      -2905.1064
   -736935.78746    -82473.32845  22521655.3984   22521658.2464
      1104.8914        860.9544
    412770.48747    321041.65547  21192526.0704   21192527.8754
     -1329.5944      -1036.0474
   -659720.26547   -514067.90547  21232237.5004   21232240.4774
       948.0784        738.7624
 98  7  2 14 39 45.0000000  0  7G 2G 4G 5G 7G 8G 9G24
   1784961.05045   1378375.27745  23809426.6804   23809431.6954
     -4003.1724      -3119.3554
    413963.06047    321788.89347  20695112.0004   20695113.4304
     -1326.3594      -1033.5274
   -734241.90746   -534844.12645  22538657.7814   22538659.7854
      1136.5944        885.6574
   1682170.92546   1272744.66945  22640777.4064   22640780.8524
     -3744.2814      -2917.6224
   -753338.35646    -95254.54245  22518534.0634   22518536.4414
      1082.2664        843.3244
    432894.57947    336722.76047  21196355.4304   21196357.2114
     -1353.5164      -1054.6874
   -673774.15147   -525018.96647  21229562.9774   21229566.1644
       925.9064        721.4854
 98  7  2 14 40  0.0000000  0  7G 2G 4G 5G 7G 8G 9G24
   1845150.81345   1425276.34945  23820880.5704   23820885.1764
     -4022.0474      -3134.0624
    434044.83747    337437.03447  20698933.3444   20698934.5164
     -1351.1564      -1052.8494
   -751168.29246   -548033.49845  22535436.9454   22535439.1724
      1120.4064        873.0444
   1738453.86046   1316601.47745  22651487.5784   22651490.7304
     -3760.0624      -2929.9194
   -769405.77546   -107774.58645  22515476.3674   22515478.7584
      1060.1724        826.1084
    453375.30647    352681.76347  21200252.4924   21200254.2274
     -1377.1874      -1073.1334
   -687497.29047   -535712.30447  21226951.5314   21226954.6024
       903.9224        704.3554
 98  7  2 14 40 15.0000000  0  7G 2G 4G 5G 7G 8G 9G24
   1905619.03345   1472394.39144  23832387.3984   23832392.4264
     -4040.2034      -3148.2104
    454495.45847    353372.58747  20702825.1254   20702826.4144
     -1375.4374      -1071.7694
   -767858.41146   -561038.76845  22532260.8834   22532262.9344
      1105.1254        861.1364
   1794970.90346   1360640.72045  22662242.2504   22662245.2624
     -3775.4064      -2941.8754
   -785146.37846   -120039.98345  22512481.1884   22512483.4494
      1038.7504        809.4164
    474206.74147    368914.04347  21204216.9144   21204218.6254
     -1400.2034      -1091.0674
   -700893.79947   -546151.12347  21224402.4454   21224405.6094
       882.4064        687.5894
 98  7  2 14 40 30.0000000  0  7G 2G 4G 5G 7G 8G 9G24
   1966355.97945   1519721.82544  23843945.5394   23843950.3674
     -4058.1874      -3162.2244
    475308.10147    369590.23447  20706785.6884   20706786.9884
     -1399.7974      -1090.7514
   -784323.63146   -573868.80245  22529127.4304   22529129.7384
      1090.1254        849.4484
   1851715.97046   1404857.61845  22673040.9844   22673044.6884
     -3790.7194      -2953.8074
   -800569.25946   -132057.79545  22509546.0634   22509548.5124
      1017.4064        792.7844
    495382.50447    385414.63347  21208246.4844   21208248.2544
     -1423.4534      -1109.1844
   -713969.82947   -556340.21547  21221913.9924   21221917.1214
       860.9224        670.8484
 98  7  2 14 40 45.0000000  0  7G 2G 4G 5G 7G 8G 9G24
   2027352.79145   1567251.75944  23855552.5704   23855557.9844
     -4074.7344      -3175.1184
    496477.57847    386085.93247  20710814.1334   20710815.5394
     -1422.7974      -1108.6734
   -800572.97446   -586530.61345  22526035.2504   22526037.5824
      1076.4224        838.7704
   1908681.29546   1449246.16745  22683881.2424   22683884.7344
     -3804.6874      -2964.6924
   -815679.40946   -143831.92845  22506671.0234   22506673.8834
       997.2344        777.0664
    516900.14547    402181.61847  21212340.9844   21212342.8014
     -1445.6254      -1126.4614
   -726731.90347   -566284.66947  21219485.6174   21219488.6054
       840.6414        655.0454
 98  7  2 14 41  0.0000000  0  7G 2G 4G 5G 7G 8G 9G24
   2088589.11045   1614968.31044  23867205.8834   23867210.1254
     -4090.4064      -3187.3304
    517985.46647    402845.32847  20714906.7344   20714908.1994
     -1445.2664      -1126.1814
   -816623.20646   -599037.27845  22522981.1884   22522983.7774
      1063.2814        828.5314
   1965850.43046   1493793.52845  22694759.9454   22694763.3794
     -3818.1564      -2975.1874
   -830493.69446   -155375.51545  22503852.0314   22503853.6254
       977.6414        761.7984
    538744.81447    419203.43647  21216498.2734   21216500.0314
     -1467.3754      -1143.4094
   -739195.36147   -575996.44047  21217113.7344   21217116.6524
       820.8594        639.6314
 98  7  2 14 41 15.0000000  0  7G 2G 4G 5G 7G 8G 9G24
   2150062.55645   1662869.64644  23878904.1094   23878909.4184
     -4106.2034      -3199.6394
    539833.78947    419870.00347  20719064.6174   20719066.1644
     -1468.0164      -1143.9084
   -832471.96346   -611386.95545  22519965.1884   22519967.5204
      1049.7344        817.9754
   2023225.28146   1538501.18445  22705678.0234   22705681.1054
     -3831.9694      -2985.9504
   -845010.67246   -166687.42945  22501089.1094   22501091.3364
       957.7814        746.3234
    560920.68747    436483.32847  21220717.9224   21220719.7274
     -1489.6094      -1160.7354
   -751360.43947   -585475.70047  21214798.8984   21214801.8984
       801.0164        624.1684
 98  7  2 14 41 30.0000000  0  7G 2G 4G 5G 7G 8G 9G24
   2211770.52345   1710953.72844  23890646.7734   23890651.6844
     -4121.4694      -3211.5344
    562022.75847    437160.11147  20723286.9614   20723288.3554
     -1490.4534      -1161.3924
   -848119.89646   -623580.12945  22516987.3594   22516989.5394
      1036.6564        807.7844
   2080804.19746   1583367.85245  22716634.7504   22716638.7814
     -3845.1414      -2996.2134
   -859231.21746   -177768.36745  22498383.0234   22498385.0394
       938.3594        731.1894
    583429.77447    454022.87147  21225001.4844   21225003.3834
     -1511.5314      -1177.8174
   -763229.98447   -594724.67747  21212540.1094   21212543.1094
       781.6724        609.0954
 98  7  2 14 41 45.0000000  0  7G 2G 4G 5G 7G 8G 9G24
   2273702.29045   1759212.21244  23902432.0314   23902436.5314
     -4136.0004      -3222.8574
    584543.83747    454709.00247  20727572.7274   20727574.0394
     -1512.1874      -1178.3284
   -863572.98346   -635621.48745  22514046.8674   22514049.3874
      1023.8284        797.7884
   2138574.06346   1628383.30745  22727628.3444   22727632.3404
     -3857.3284      -3005.7104
   -873163.64846   -188624.80145  22495731.9384   22495734.3634
       919.4534        716.4574
    606263.46547    471815.35247  21229346.4844   21229348.4534
     -1532.8754      -1194.4484
   -774813.80047   -603751.00447  21210335.7034   21210338.8204
       762.9224        594.4854
 98  7  2 14 42  0.0000000  0  7G 2G 4G 5G 7G 8G 9G24
   2335848.02145   1807637.38644  23914257.7664   23914262.4654
     -4149.9534      -3233.7304
    607386.55047    472508.52547  20731919.5004   20731920.8014
     -1533.3594      -1194.8254
   -878835.66146   -647514.47145  22511142.5474   22511144.9144
      1011.3754        788.0844
   2196523.44246   1673538.65245  22738655.6174   22738659.0744
     -3869.0314      -3014.8304
   -886816.34446   -199263.25645  22493133.8204   22493136.2814
       901.0474        702.1144
    629414.62447    489855.21147  21233752.2664   21233754.2814
     -1553.7974      -1210.7514
   -786119.35647   -612560.51547  21208184.3754   21208187.3634
       744.6254        580.2274
 98  7  2 14 42 15.0000000  0  7G 2G 4G 5G 7G 8G 9G24
   2398199.57345   1856222.98144  23926122.8054   23926128.6174
     -4163.6094      -3244.3714
    630542.12547    490551.83147  20736325.6334   20736326.8874
     -1554.0624      -1210.9584
   -893916.96746   -659266.12945  22508272.4224   22508274.6254
       999.4384        778.7824
   2254642.05846   1718825.86345  22749715.3134   22749719.0394
     -3880.1254      -3023.4744
   -900195.46546   -209688.52945  22490587.9064   22490590.1564
       882.8134        687.9064
    652873.95447    508135.20047  21238216.1094   21238218.0554
     -1574.0944      -1226.5674
   -797154.01647   -621158.93347  21206084.8594   21206087.9304
       726.6564        566.2264
 98  7  2 14 42 30.0000000  0  7G 2G 4G 5G 7G 8G 9G24
   2460752.76545   1904965.63444  23938026.4534   23938030.4844
     -4176.7974      -3254.6474
    654002.87747    508832.94047  20740789.9614   20740791.2974
     -1573.9064      -1226.4204
   -908821.63946   -670880.14645  22505436.2274   22505438.4654
       987.9224        769.8094
   2312922.69446   1764239.32645  22760805.9844   22760809.0784
     -3890.5164      -3031.5714
   -913303.18946   -219902.33445  22488093.8524   22488096.3364
       864.9384        673.9774
    676633.75047    526649.32247  21242737.7034   21242739.6134
     -1593.7974      -1241.9204
   -807924.07947   -629551.16947  21204035.3204   21204038.2734
       709.4224        552.7964
 98  7  2 14 42 45.0000000  0  7G 2G 4G 5G 7G 8G 9G24
   2523506.55745   1953864.64543  23949967.4064   23949972.0004
     -4190.3284      -3265.1914
    677763.22347    527347.49547  20745311.7344   20745313.0704
     -1594.1414      -1242.1874
   -923550.45946   -682357.14345  22502633.7344   22502636.2424
       975.9224        760.4594
   2371360.70546   1809775.40145  22771926.0234   22771929.1644
     -3901.2034      -3039.8994
   -926139.18946   -229904.39045  22485651.0314   22485653.6214
       846.5164        659.6234
    700691.86247    545395.89147  21247315.8284   21247317.3284
     -1613.8754      -1257.5654
   -818433.47347   -637740.28947  21202035.2974   21202038.1804
       691.7814        539.0504
 98  7  2 14 43  0.0000000  0  7G 2G 4G 5G 7G 8G 9G24
   2586457.43045   2002917.21243  23961946.6414   23961951.2584
     -4203.2504      -3275.2604
    701818.63247    546091.97247  20749889.2114   20749890.5004
     -1613.2814      -1257.1024
   -938104.90546   -693698.26445  22499863.8364   22499866.6604
       964.6254        751.6564
   2429952.58846   1855431.39245  22783075.9844   22783079.0204
     -3911.0944      -3047.6064
   -938705.57346   -239696.37145  22483259.7194   22483262.2384
       829.0004        645.9744
    725041.72747    564369.80647  21251949.6174   21251951.2704
     -1632.8124      -1272.3214
   -828683.16947   -645727.04747  21200084.7034   21200087.5864
       674.8134        525.8284
 98  7  2 14 43 15.0000000  0  7G 2G 4G 5G 7G 8G 9G24
   2649602.83445   2052121.33943  23973963.4694   23973968.3094
     -4216.1254      -3285.2924
    726160.20047    565059.42847  20754521.2894   20754522.7194
     -1632.1724      -1271.8224
   -952490.79846   -704908.03945  22497126.5944   22497129.0314
       953.5164        742.9994
   2488691.58146   1901202.01445  22794253.3594   22794256.8984
     -3920.7034      -3055.0934
   -951010.21346   -249284.39245  22480918.0234   22480920.3794
       811.6564        632.4594
    749673.19647    583563.15347  21256636.5554   21256638.3014
     -1651.2814      -1286.7134
   -838679.68247   -653516.51647  21198182.3134   21198185.3014
       658.1414        512.8374
 98  7  2 14 43 30.0000000  0  7G 2G 4G 5G 7G 8G 9G24
   2712941.24045   2101475.87443  23986016.1564   23986020.1764
     -4228.8444      -3295.2034
    750781.06147    584244.51947  20759206.5164   20759207.7234
     -1650.4374      -1286.0554
   -966711.13446   -715988.80545  22494420.1564   22494422.7934
       942.7664        734.6234
   2547571.96046   1947082.80145  22805457.9924   22805461.7544
     -3929.8284      -3062.2044
   -963056.41046   -258671.03745  22478625.8364   22478628.0634
       794.6564        619.2134
    774577.07147    602968.76247  21261375.5394   21261377.2974
     -1669.0004      -1300.5194
   -848427.66847   -661112.33447  21196327.5704   21196330.5944
       641.7194        500.0414
 98  7  2 14 43 45.0000000  0  7G 2G 4G 5G 7G 8G 9G24
   2776467.85045   2150977.07543  23998104.9694   23998109.9384
     -4241.4064      -3304.9924
    775672.31647    603640.30247  20763943.1804   20763944.4694
     -1668.4064      -1300.0574
   -980774.17646   -726947.00845  22491744.3364   22491746.9844
       932.2664        726.4414
   2606585.81046   1993067.58345  22816688.0314   22816692.0984
     -3938.7194      -3069.1314
   -974849.72146   -267860.61645  22476381.8134   22476384.3204
       777.7664        606.0514
    799742.56847    622578.23547  21266164.5084   21266166.2424
     -1686.3594      -1314.0464
   -857931.01147   -668517.52047  21194519.3594   21194522.3244
       625.3754        487.3054
 98  7  2 14 44  0.0000000  0  7G 2G 4G 5G 7G 8G 9G24
   2840182.81945   2200625.02643  24010229.7274   24010233.5594
     -4253.9534      -3314.7694
    800832.92747    623245.97247  20768731.0164   20768732.2814
     -1686.2974      -1313.9984
   -994680.70746   -737783.25945  22489097.9144   22489099.9184
       922.0164        718.4544
   2665734.15246   2039157.17345  22827943.7734   22827948.3324
     -3947.7664      -3076.1814
   -986391.39246   -276854.13445  22474185.3754   22474187.3554
       761.1414        593.0974
    825167.00447    642389.47547  21271002.6334   21271004.3674
     -1703.5944      -1327.4764
   -867190.54247   -675732.72147  21192757.0084   21192759.9264
       609.2344        474.7284
 98  7  2 14 44 15.0000000  0  7G 2G 4G 5G 7G 8G 9G24
   2904082.78945   2250417.15043  24022389.2814   24022393.6644
     -4266.0784      -3324.2174
    826257.81947    643057.57447  20773569.3674   20773570.6564
     -1703.7344      -1327.5854
  -1008440.15946   -748504.90146  22486479.5084   22486481.7464
       912.5004        711.0394
   2725015.88246   2085350.71645  22839224.7974   22839228.3714
     -3956.5004      -3082.9874
   -997689.39746   -285657.77145  22472035.5314   22472037.7234
       745.2194        580.6904
    850845.42547    662398.62447  21275888.9844   21275890.6484
     -1720.2194      -1340.4304
   -876212.47547   -682762.78647  21191040.2814   21191043.4104
       593.6724        462.6014
 98  7  2 14 44 30.0000000  0  7G 2G 4G 5G 7G 8G 9G24
   2968167.99245   2300353.59543  24034584.4924   24034589.1564
     -4278.3594      -3333.7874
    851946.41747    663074.66447  20778457.6024   20778458.9614
     -1721.2194      -1341.2094
  -1022051.97246   -759111.49546  22483889.3914   22483891.7934
       902.5944        703.3204
   2784432.07346   2131649.00245  22850530.9144   22850534.3594
     -3965.4694      -3089.9764
  -1008747.46146   -294274.43945  22469931.3054   22469933.2274
       729.4384        568.3934
    876774.45947    682603.05847  21280823.0944   21280824.7814
     -1736.8124      -1353.3604
   -884999.41647   -689609.73247  21189368.1484   21189371.3134
       578.1414        450.4994
 98  7  2 14 44 45.0000000  0  7G 2G 4G 5G 7G 8G 9G24
   3032433.62944   2350430.64443  24046813.7584   24046820.2154
     -4290.3594      -3343.1374
    877895.91647    683295.05447  20783395.5864   20783396.8754
     -1738.6874      -1354.8214
  -1035516.07046   -769602.98946  22481327.0314   22481329.1524
       892.7344        695.6374
   2843980.82546   2178050.60745  22861862.8524   22861866.9774
     -3974.2664      -3096.8304
  -1019573.00946   -302709.92345  22467871.4924   22467873.7194
       714.0784        556.4254
    902951.41747    703000.68047  21285804.6174   21285806.3634
     -1753.3754      -1366.2664
   -893556.04947   -696277.21747  21187740.0164   21187743.0984
       562.8284        438.5674
 98  7  2 14 45  0.0000000  0  7G 2G 4G 5G 7G 8G 9G24
   3096874.24344   2400644.03443  24059076.5554   24059082.6954
     -4301.7814      -3352.0374
    904106.21347    703718.65847  20788383.5474   20788384.6604
     -1756.0314      -1368.3364
  -1048835.62746   -779981.86546  22478792.8204   22478794.8834
       883.2194        688.2224
   2903658.77146   2224552.87545  22873219.3834   22873223.2504
     -3982.7974      -3103.4784
  -1030173.07846   -310969.71645  22465854.2424   22465856.1524
       699.2974        544.9074
    929373.15347    723589.03747  21290832.5164   21290834.2734
     -1769.5164      -1378.8434
   -901886.04447   -702768.10547  21186154.6254   21186157.5664
       547.8754        426.9164
 98  7  2 14 45 15.0000000  0  7G 2G 4G 5G 7G 8G 9G24
   3161487.04544   2450991.59143  24071371.4064   24071377.1374
     -4313.3444      -3361.0474
    930574.74147    724343.48747  20793420.4064   20793421.4614
     -1773.3124      -1381.8024
  -1062012.78246   -790249.77446  22476285.4064   22476287.2464
       873.6094        680.7354
   2963463.19846   2271153.69745  22884599.7194   22884603.1054
     -3991.2814      -3110.0894
  -1040552.50946   -319057.59045  22463878.9144   22463881.5634
       684.5004        533.3774
    956036.29647    744365.50347  21295906.2814   21295908.1214
     -1785.7814      -1391.5184
   -909995.64247   -709087.25547  21184611.4534   21184614.3954
       533.3444        415.5934
 98  7  2 14 45 30.0000000  0  7G 2G 4G 5G 7G 8G 9G24
   3226271.71144   2501473.11143  24083699.6174   24083704.7854
     -4324.5474      -3369.7774
    957306.65647    745173.55147  20798507.3204   20798508.3164
     -1790.9224      -1395.5244
  -1075045.69446   -800405.27446  22473805.0004   22473807.0864
       864.1884        673.3934
   3023396.34446   2317854.82945  22896004.3984   22896007.7624
     -3999.7664      -3116.7004
  -1050708.62946   -326971.44645  22461946.2194   22461948.7854
       669.6724        521.8224
    982946.82047    765334.73447  21301027.2504   21301029.0204
     -1802.2814      -1404.3754
   -917886.79447   -715236.18647  21183109.8444   21183112.9024
       518.8914        404.3304
 98  7  2 14 45 45.0000000  0  7G 2G 4G 5G 7G 8G 9G24
   3291222.87644   2552084.30343  24096060.1094   24096063.8244
     -4335.8284      -3378.5674
    984301.22647    766208.28447  20803643.9454   20803645.2234
     -1808.6724      -1409.3554
  -1087942.27546   -810454.54246  22471351.0394   22471353.1844
       855.1724        666.3684
   3083452.91046   2364652.12845  22907433.1334   22907436.6134
     -4008.0624      -3123.1664
  -1060645.49546   -334714.45045  22460055.3054   22460057.8594
       655.0474        510.4264
   1010103.86847    786496.06447  21306195.2034   21306197.1024
     -1818.9844      -1417.3904
   -925564.74647   -721218.98647  21181648.8284   21181651.6764
       504.5944        393.1904
 98  7  2 14 46  0.0000000  0  7G 2G 4G 5G 7G 8G 9G24
   3356342.81444   2602827.07043  24108451.9614   24108458.1374
     -4346.9844      -3387.2614
   1011564.53547    787452.41747  20808832.0394   20808833.2464
     -1826.6094      -1423.3324
  -1100702.89946   -820397.89246  22468922.7194   22468924.6054
       846.0474        659.2574
   3143634.55346   2411546.88845  22918885.1334   22918888.2384
     -4016.3124      -3129.5944
  -1070364.45846   -342287.66445  22458205.7894   22458208.4964
       640.6884        499.2374
   1037514.25547    807854.79847  21311411.1484   21311412.9654
     -1835.8594      -1430.5404
   -933028.44047   -727034.83747  21180228.5084   21180231.7194
       490.4384        382.1594
 98  7  2 14 46 15.0000000  0  7G 2G 4G 5G 7G 8G 9G24
   3421629.30144   2653699.57543  24120875.8444   24120882.3364
     -4357.8594      -3395.7354
   1039096.57647    808905.95847  20814071.2424   20814072.3204
     -1844.2974      -1437.1144
  -1113327.02446   -830234.87246  22466520.3364   22466522.4104
       837.2034        652.3664
   3203939.17246   2458537.48245  22930360.5944   22930364.3794
     -4024.2504      -3135.7794
  -1079868.55146   -349693.45045  22456397.3594   22456399.8444
       626.5474        488.2184
   1065176.94547    829410.13047  21316675.3914   21316677.0664
     -1852.4694      -1443.4824
   -940280.54947   -732685.81547  21178848.3204   21178851.2504
       476.5004        371.2994
 98  7  2 14 46 30.0000000  0  7G 2G 4G 5G 7G 8G 9G24
   3487078.61445   2704698.93643  24133330.6094   24133335.3914
     -4368.7034      -3404.1844
   1066895.04647    830567.10247  20819361.1334   20819362.3404
     -1862.1564      -1451.0314
  -1125817.12546   -839967.41046  22464143.6254   22464145.3594
       828.0784        645.2564
   3264362.70146   2505620.72845  22941859.1334   22941862.5904
     -4032.2504      -3142.0134
  -1089158.62346   -356932.46045  22454629.2274   22454631.6764
       612.0474        476.9204
   1093089.46147    851160.13147  21321986.9384   21321988.6724
     -1869.2504      -1456.5584
   -947320.91847   -738171.80047  21177508.8444   21177511.7854
       462.2034        360.1584
 98  7  2 14 46 45.0000000  0  7G 2G 4G 5G 7G 8G 9G24
   3552687.62445   2755822.77743  24145815.5554   24145821.1454
     -4379.2504      -3412.4034
   1094959.03147    852435.14247  20824701.5004   20824702.8594
     -1879.8124      -1464.7894
  -1138172.00346   -849594.58046  22461792.4694   22461794.6954
       819.2034        638.3404
   3324904.53146   2552796.16345  22953379.5864   22953383.0904
     -4040.0784      -3148.1134
  -1098230.41846   -364001.39245  22452903.2894   22452905.2704
       597.3754        465.4874
   1121253.91647    873106.45147  21327346.1954   21327347.9654
     -1886.1564      -1469.7324
   -954147.97447   -743491.56947  21176209.6804   21176212.8554
       447.9844        349.0794
 98  7  2 14 47  0.0000000  0  7G 2G 4G 5G 7G 8G 9G24
   3618455.29645   2807070.19844  24158331.3594   24158337.1954
     -4389.7504      -3420.5844
   1123288.34047    874509.92847  20830092.5314   20830093.8444
     -1897.3444      -1478.4504
  -1150395.61046   -859119.45046  22459466.1644   22459467.8164
       810.6884        631.7054
   3385563.42946   2600062.80445  22964922.6094   22964926.6884
     -4047.7034      -3154.0544
  -1107079.31046   -370896.63245  22451219.4144   22451221.1724
       582.4694        453.8724
   1149673.99447    895251.95847  21332754.5314   21332756.2664
     -1903.1094      -1482.9424
   -960762.07847   -748645.40247  21174950.8834   21174954.1174
       433.9224        338.1214
 98  7  2 14 47 15.0000000  0  7G 2G 4G 5G 7G 8G 9G24
   3684377.85245   2858438.34344  24170875.4304   24170880.4344
     -4400.0784      -3428.6324
   1151876.24747    896786.21847  20835532.2814   20835533.6054
     -1914.5004      -1491.8184
  -1162493.55546   -868546.41946  22457164.0944   22457165.9574
       802.2344        625.1184
   3446333.64546   2647416.21845  22976487.4534   22976491.4844
     -4055.0624      -3159.7894
  -1115705.36046   -377618.22745  22449577.8674   22449580.1994
       567.4844        442.1964
   1178345.01147    917592.99747  21338210.6334   21338212.3444
     -1919.8284      -1495.9704
   -967167.20747   -753636.39647  21173732.0474   21173735.2234
       419.9384        327.2244
 98  7  2 14 47 30.0000000  0  7G 2G 4G 5G 7G 8G 9G24
   3750457.14145   2909928.62544  24183449.9614   24183456.3244
     -4410.4844      -3436.7414
   1180722.88547    919264.11547  20841021.8984   20841023.3404
     -1931.7344      -1505.2484
  -1174463.72646   -877873.81446  22454886.5784   22454888.6294
       793.8134        618.5554
   3507214.33846   2694855.68945  22988072.5944   22988076.1214
     -4062.3914      -3165.4994
  -1124103.41446   -384162.16745  22447980.0004   22447982.0864
       552.2664        430.3374
   1207269.18947    940131.31247  21343714.6564   21343716.3204
     -1936.7344      -1509.1444
   -973359.63347   -758461.64247  21172553.5474   21172556.7234
       405.6414        316.0844
 98  7  2 14 47 45.0000000  0  7G 2G 4G 5G 7G 8G 9G24
   3816690.84845   2961539.24844  24196054.2974   24196060.1914
     -4420.7194      -3444.7164
   1209825.79447    941941.70847  20846559.9384   20846561.4614
     -1948.6254      -1518.4094
  -1186309.87246   -887104.57446  22452632.3054   22452634.6954
       785.6254        612.1754
   3568204.46946   2742380.44945  22999678.6954   22999681.8954
     -4069.6254      -3171.1364
  -1132275.35646   -390529.91145  22446424.5314   22446427.0274
       537.3284        418.6974
   1236444.80247    962865.54547  21349266.3754   21349268.0634
     -1953.2974      -1522.0504
   -979336.47647   -763118.90947  21171416.3594   21171419.6524
       391.2504        304.8704
 98  7  2 14 48  0.0000000  0  7G 2G 4G 5G 7G 8G 9G24
   3883079.99545   3013270.93944  24208687.3834   24208692.6684
     -4431.0164      -3452.7394
   1239182.24947    964816.86547  20852146.4534   20852147.9884
     -1965.4534      -1531.5224
  -1198029.40846   -896236.66246  22450401.7424   22450404.1914
       777.0164        605.4674
   3629304.46046   2789990.81345  23011305.3834   23011309.1564
     -4077.0314      -3176.9074
  -1140222.82746   -396722.74445  22444912.2504   22444915.2384
       522.4064        407.0704
   1265868.87247    985793.38247  21354865.5784   21354867.3014
     -1969.7974      -1534.9074
   -985096.17247   -767606.97047  21170320.2584   21170323.5634
       376.7344        293.5594
 98  7  2 14 48 15.0000000  0  7G 2G 4G 5G 7G 8G 9G24
   3949622.54045   3065122.22644  24221350.3984   24221356.3984
     -4441.3914      -3460.8244
   1268789.46447    987887.42247  20857780.2194   20857781.6604
     -1982.1724      -1544.5504
  -1209616.64446   -905265.68046  22448196.9694   22448199.3954
       767.8754        598.3444
   3690517.41246   2837689.18445  23022954.0164   23022957.4024
     -4084.7344      -3182.9104
  -1147943.88446   -402739.14845  22443443.0314   22443445.6804
       506.9844        395.0534
   1295538.86147   1008912.84147  21360511.9844   21360513.7074
     -1986.2344      -1547.7154
   -990636.79847   -771924.32547  21169265.7584   21169269.0394
       361.9384        282.0294
 98  7  2 14 48 30.0000000  0  7G 2G 4G 5G 7G 8G 9G24
   4016319.86945   3117094.09844  24234042.4924   24234047.3914
     -4451.4844      -3468.6894
   1298645.57847   1011151.92747  20863461.8134   20863463.1374
     -1998.5164      -1557.2854
  -1221069.03246   -914189.60546  22446017.8054   22446020.2304
       759.2034        591.5874
   3751845.01946   2885476.90145  23034624.5554   23034627.7664
     -4092.1724      -3188.7054
  -1155433.88946   -408575.51445  22442017.8914   22442020.4574
       491.7974        383.2184
   1325454.10447   1032223.40747  21366204.5704   21366206.2584
     -2002.4064      -1560.3174
   -995956.18947   -776069.29447  21168253.6094   21168256.8794
       347.4064        270.7064
 98  7  2 14 48 45.0000000  0  7G 2G 4G 5G 7G 8G 9G24
   4083167.51645   3169183.10644  24246763.4844   24246769.3674
     -4461.6564      -3476.6154
   1328745.53347   1034606.43647  20869189.7194   20869191.1374
     -2014.8284      -1569.9964
  -1232390.95446   -923011.88146  22443863.1174   22443865.5554
       750.2814        584.6354
   3813283.70246   2933351.17445  23046315.4844   23046318.7304
     -4099.6564      -3194.5374
  -1162696.21946   -414234.48246  22440635.9614   22440638.4804
       476.4384        371.2504
   1355612.66847   1055723.57847  21371943.3984   21371945.0514
     -2018.7664      -1573.0644
  -1001058.54147   -780045.13147  21167282.6954   21167285.9654
       332.9064        259.4074
 98  7  2 14 49  0.0000000  0  7G 2G 4G 5G 7G 8G 9G24
   4150169.33445   3221392.23144  24259513.5944   24259519.1844
     -4471.9534      -3484.6394
   1359088.89147   1058250.61047  20874963.7504   20874965.2034
     -2030.9694      -1582.5734
  -1243578.51346   -931729.44946  22441734.1804   22441736.7814
       741.4064        577.7194
   3874832.22846   2981311.03945  23058028.1414   23058031.0824
     -4106.7814      -3200.0894
  -1169730.42246   -419715.66146  22439297.2584   22439299.8134
       461.4844        359.5984
   1386014.61547   1079413.40047  21377728.6954   21377730.4774
     -2034.7344      -1585.5074
  -1005945.16347   -783852.87747  21166352.9064   21166356.1524
       318.6564        248.3044
 98  7  2 14 49 15.0000000  0  7G 2G 4G 5G 7G 8G 9G24
   4217326.00345   3273722.03044  24272292.7344   24272298.7814
     -4482.3444      -3492.7354
   1389673.98747   1082083.15347  20880784.0164   20880785.4224
     -2047.1094      -1595.1504
  -1254632.13646   -940342.64446  22439630.6724   22439633.0864
       732.3284        570.6454
   3936486.93445   3029353.64445  23069760.0634   23069764.0704
     -4113.9064      -3205.6414
  -1176541.85046   -425023.27346  22438001.3364   22438004.2194
       446.7034        348.0804
   1416652.89747   1103287.37147  21383558.8754   21383560.7624
     -2050.4064      -1597.7194
  -1010616.94447   -787493.21547  21165463.5394   21165466.8674
       304.1724        237.0174
 98  7  2 14 49 30.0000000  0  7G 2G 4G 5G 7G 8G 9G24
   4284639.42645   3326173.95644  24285102.4064   24285107.0124
     -4492.7974      -3500.8814
   1420502.72647   1106105.55247  20886650.6094   20886652.0514
     -2063.4224      -1607.8614
  -1265548.24046   -948848.69146  22437553.4694   22437555.9884
       723.2344        563.5594
   3998249.48345   3077480.27245  23081513.1884   23081517.7464
     -4121.1414      -3211.2784
  -1183131.57546   -430158.11746  22436747.2194   22436750.1134
       431.9844        336.6114
   1447527.19247   1127345.24947  21389434.1884   21389436.1564
     -2066.1724      -1610.0044
  -1015069.41147   -790962.65147  21164616.4844   21164619.7304
       289.5004        225.5844
 98  7  2 14 49 45.0000000  0  7G 2G 4G 5G 7G 8G 9G24
   4352110.18645   3378748.51844  24297941.7504   24297948.2304
     -4503.2504      -3509.0264
   1451576.25047   1130318.68047  20892563.3674   20892564.8204
     -2079.6564      -1620.5114
  -1276329.26746   -957249.48846  22435501.9304   22435504.6954
       714.2504        556.5584
   4060122.06645   3125692.65245  23093287.2974   23093291.0944
     -4128.5474      -3217.0504
  -1189501.72646   -435121.86746  22435535.1564   22435537.6414
       417.4694        325.3004
   1478637.52847   1151587.06047  21395354.2664   21395356.3284
     -2081.8284      -1622.2044
  -1019301.79647   -794260.59847  21163810.8204   21163814.1954
       274.8444        214.1644
 98  7  2 14 50  0.0010000  0  7G 2G 4G 5G 7G 8G 9G24
   4419741.35245   3431448.02343  24310811.7084   24310816.6884
     -4513.6254      -3517.1104
   1482893.79147   1154721.96547  20898523.0134   20898524.1614
     -2095.7194      -1633.0284
  -1286976.52946   -965546.05146  22433476.1774   22433478.2864
       705.3134        549.5944
   4122108.63545   3173993.84445  23105082.8494   23105087.0564
     -4135.7194      -3222.6384
  -1195656.30646   -439917.63946  22434363.9424   22434366.6144
       403.0474        314.0634
   1509983.40647   1176012.40247  21401319.0444   21401321.1884
     -2097.2974      -1634.2574
  -1023315.74047   -797388.33147  21163047.2554   21163050.4074
       260.3754        202.8904
 98  7  2 14 50 15.0010000  0  7G 2G 4G 5G 7G 8G 9G24
   4487524.76745   3484266.19543  24323710.4974   24323714.8104
     -4524.2034      -3525.3534
   1514451.58647   1179312.45047  20904528.3884   20904529.5604
     -2111.9844      -1645.7024
  -1297487.03446   -973736.04646  22431475.8494   22431478.3804
       696.1254        542.4354
   4184199.25745   3222376.11245  23116898.6224   23116902.8174
     -4143.0624      -3228.3604
  -1201591.28446   -444542.29046  22433234.3884   22433236.8254
       388.1564        302.4594
   1541561.12247   1200618.40147  21407328.0994   21407330.1264
     -2113.0944      -1646.5674
  -1027109.93647   -800344.83747  21162325.1384   21162328.2784
       245.4534        191.2624
 98  7  2 14 50 30.0010000  0  7G 2G 4G 5G 7G 8G 9G24
   4555464.97845   3537206.53243  24336639.1694   24336643.2474
     -4534.5164      -3533.3894
   1546251.89847   1204091.90947  20910579.5444   20910580.8454
     -2128.1254      -1658.2794
  -1307862.91046   -981821.13546  22429501.1924   22429503.8174
       687.3594        535.6054
   4246398.15045   3270842.75445  23128735.0214   23128739.5214
     -4150.1414      -3233.8764
  -1207303.38546   -448993.28046  22432147.6304   22432149.6924
       373.4694        291.0154
   1573374.32747   1225407.89947  21413382.1694   21413384.1264
     -2128.7664      -1658.7784
  -1030681.80747   -803128.09747  21161645.2944   21161648.4464
       230.7504        179.8054
 98  7  2 14 50 45.0010000  0  7G 2G 4G 5G 7G 8G 9G24
   4623559.77245   3590267.34143  24349596.9194   24349601.6304
     -4544.9374      -3541.5104
   1578295.77247   1229061.19747  20916677.5444   20916678.5754
     -2144.5314      -1671.0634
  -1318109.37446   -989805.38446  22427551.2784   22427553.6344
       678.6414        528.8114
   4308703.71145   3319392.50645  23140590.9424   23140594.5874
     -4157.3754      -3239.5134
  -1212796.64846   -453273.73846  22431102.3494   22431104.6924
       358.8134        279.5944
   1605425.15547   1250382.52947  21419481.1614   21419483.2944
     -2144.8444      -1671.3074
  -1034033.46647   -805739.76647  21161007.7864   21161010.9504
       215.9694        168.2874
 98  7  2 14 51  0.0010000  0  7G 2G 4G 5G 7G 8G 9G24
   4691810.52845   3643449.65643  24362584.4584   24362588.7944
     -4554.8594      -3549.2414
   1610584.78747   1254221.32146  20922821.4194   20922821.8064
     -2160.4064      -1683.4334
  -1328224.38446   -997687.20146  22425626.9814   22425629.5364
       670.3594        522.3584
   4371116.84145   3368026.08245  23152467.8254   23152471.3994
     -4164.0784      -3244.7364
  -1218069.32346   -457382.31346  22430099.0604   22430101.6264
       344.5634        268.4904
   1637716.26447   1275544.55146  21425626.3804   21425628.0094
     -2160.2814      -1683.3364
  -1037163.93847   -808179.08147  21160411.9814   21160415.2164
       201.7504        157.2084
 98  7  2 14 51 15.0010000  0  7G 2G 4G 5G 7G 8G 9G24
   4760214.41945   3696751.36643  24375601.4744   24375607.4624
     -4565.3594      -3557.4234
   1643117.41047                  20929012.6064
     -2177.0784
  -1338212.49346  -1005470.13846  22423725.9114   22423728.2314
       661.6254        515.5524
   4433636.87645   3416742.95145  23164365.2714   23164369.3604
     -4171.7194      -3250.6904
  -1223123.27046   -461320.45346  22429137.0834   22429139.6384
       329.5164        256.7654
   1670242.61747   1300889.62147  21431815.5994   21431817.5324
     -2176.3914      -1695.8894
  -1040074.92447   -810447.36347  21159857.9744   21159861.1384
       186.5784        145.3864
 98  7  2 14 51 30.0010000  0  7G 2G 4G 5G 7G 8G 9G24
   4828773.22345   3750173.72143  24388647.8964   24388652.7474
     -4575.6724      -3565.4594
   1675899.60847                  20935251.4034
     -2193.7814
  -1348070.36746  -1013151.59546  22421850.1694   22421852.4194
       652.8914        508.7464
   4496271.34845   3465549.00745  23176284.1614   23176288.6034
     -4179.4374      -3256.7054
  -1227952.05646   -465083.14646  22428218.1064   22428220.5094
       314.4224        245.0044
   1703010.92047   1326423.36447  21438051.0214   21438052.8494
     -2192.6254      -1708.5394
  -1042759.06447   -812538.88747  21159347.2004   21159350.3764
       171.4844        133.6244
 98  7  2 14 51 45.0010000  0  7G 2G 4G 5G 7G 8G 9G24
   4897488.73445   3803718.18543  24401724.2634   24401728.1534
     -4586.1414      -3573.6164
   1708934.70147     17180.72957  20941537.6304   20941539.0244
     -2210.7814      -1722.6874
  -1357795.71746  -1020729.78546  22419999.3724   22420001.8684
       643.9844        501.8064
   4559024.23445   3514447.31445  23188225.7164   23188230.0054
     -4187.4374      -3262.9384
  -1232551.00246   -468666.73646  22427342.9974   22427345.2124
       298.9534        232.9504
   1736026.08447   1352149.47047  21444333.7004   21444335.5634
     -2209.2194      -1721.4694
  -1045215.94647   -814453.32447  21158879.6464   21158882.7284
       156.2664        121.7654
 98  7  2 14 52  0.0010000  0  7G 2G 4G 5G 7G 8G 9G24
   4966354.86645   3857380.02543  24414829.2004   24414834.9194
     -4596.0474      -3581.3354
   1742219.78147     43117.15447  20947871.4194   20947872.7314
     -2227.2504      -1735.5194
  -1367391.02446  -1028206.63546  22418173.6384   22418176.2394
       635.3914        495.1104
   4621892.02745   3563435.17745  23200189.1384   23200194.0014
     -4194.8914      -3268.7464
  -1236922.61046   -472073.18246  22426511.2394   22426514.0174
       283.9224        221.2384
   1769284.95647   1378065.45147  21450662.9194   21450664.9584
     -2225.3124      -1734.0104
  -1047449.31147   -816193.59447  21158454.4114   21158457.5634
       141.5164        110.2724
 98  7  2 14 52 15.0010000  0  7G 2G 4G 5G 7G 8G 9G24
   5035372.31544   3911159.75143  24427963.3334   24427967.0604
     -4606.2814      -3589.3104
   1775755.33547     69248.76447  20954252.9974   20954254.5094
     -2244.1414      -1748.6814
  -1376856.57346  -1035582.38046  22416372.3964   22416374.9504
       626.6414        488.2914
   4684872.18045   3612510.59645  23212173.5134   23212178.0484
     -4202.5004      -3274.6754
  -1241064.43646   -475300.56946  22425722.7084   22425725.0994
       268.3134        209.0754
   1802787.38147   1404171.22047  21457037.9974   21457040.0604
     -2241.7034      -1746.7824
  -1049459.76147   -817760.16447  21158072.0994   21158075.2634
       126.5474         98.6084
 98  7  2 14 52 30.0010000  0  7G 2G 4G 5G 7G 8G 9G24
   5104542.50444   3965058.50842  24441124.9194   24441130.0284
     -4616.4694      -3597.2484
   1809542.73747     95576.59347  20960682.3334   20960683.7864
     -2260.8914      -1761.7334
  -1386190.38246  -1042855.47746  22414596.2314   22414598.8454
       617.8754        481.4614
   4747967.68346   3661675.89245  23224180.3964   23224184.6034
     -4210.2504      -3280.7144
  -1244973.96846   -478346.95446  22424979.0604   22424981.5444
       253.0164        197.1554
   1836535.55047   1430468.49447  21463460.2864   21463462.4314
     -2258.0314      -1759.5054
  -1051246.69647   -819152.56847  21157731.9974   21157735.0564
       111.7504         87.0784
 98  7  2 14 52 45.0010000  0  7G 2G 4G 5G 7G 8G 9G24
   5173865.73544   4019076.54942  24454317.3104   24454322.7474
     -4626.6564      -3605.1874
   1843581.49747    122100.30647  20967159.4274   20967160.9384
     -2277.6414      -1774.7854
  -1395393.46846  -1050026.70446  22412845.1534   22412847.6494
       609.1884        474.6924
   4811177.59046   3710930.33745  23236209.2004   23236213.1144
     -4217.7344      -3286.5464
  -1248657.15146   -481216.96246  22424278.0754   22424280.5134
       238.0314        185.4794
   1870527.96747   1456956.07447  21469928.9274   21469930.8844
     -2274.3124      -1772.1924
  -1052813.72947   -820373.61647  21157433.9424   21157437.1534
        97.1724         75.7184
 98  7  2 14 53  0.0010000  0  7G 2G 4G 5G 7G 8G 9G24
   5243344.13943   4073215.44442  24467538.2474   24467543.1694
     -4637.1564      -3613.3694
   1877871.86347    148820.06247  20973685.0134   20973686.6064
     -2294.4224      -1787.8614
  -1404465.14146  -1057095.53846  22411118.7864   22411120.9544
       600.2814        467.7524
   4874499.53446   3760272.07945  23248259.0054   23248263.4464
     -4225.1724      -3292.3424
  -1252113.11746   -483909.91246  22423620.2164   22423622.8174
       222.6564        173.4984
   1904763.92947   1483633.43547  21476443.5284   21476445.4384
     -2290.4064      -1784.7324
  -1054161.08247   -821423.48947  21157177.5604   21157180.7004
        82.4534         64.2494
 98  7  2 14 53 15.0010000  0  7G 2G 4G 5G 7G 8G 9G24
   5312981.35643   4127478.12142  24480789.5994   24480796.8454
     -4647.8594      -3621.7094
   1912414.68247    175736.55047  20980258.4504   20980259.9744
     -2311.3444      -1801.0474
  -1413402.13346  -1064059.42946  22409418.0754   22409420.5014
       591.3134        460.7634
   4937934.56446   3809701.94445  23260330.0284   23260333.9894
     -4232.8594      -3298.3324
  -1255336.08646   -486421.32146  22423007.4354   22423009.6144
       207.0474        161.3354
   1939239.36047   1510497.39047  21483003.9424   21483005.9584
     -2306.3594      -1797.1634
  -1055286.89247   -822300.72647  21156963.0834   21156966.3174
        67.5944         52.6704
 98  7  2 14 53 30.0010000  0  7G 2G 4G 5G 7G 8G 9G24
   5382776.66743   4181864.00442  24494071.7164   24494076.4854
     -4658.2194      -3629.7814
   1947209.05147    202849.03847  20986879.5994   20986880.9934
     -2327.9064      -1813.9534
  -1422205.82746  -1070919.44046  22407743.0604   22407745.3804
       582.4694        453.8724
   5001481.90346   3859219.31545  23272422.4424   23272426.7554
     -4240.1094      -3303.9814
  -1258327.49346   -488752.28146  22422438.0834   22422440.8024
       191.8134        149.4644
   1973953.07747   1537547.02547  21489609.9664   21489612.0174
     -2322.1254      -1809.4484
  -1056191.03547   -823005.24147  21156791.1144   21156794.3964
        52.9694         41.2744
 98  7  2 14 53 45.0010000  0  7G 2G 4G 5G 7G 8G 9G24
   5452733.68343   4236375.84942  24507383.9274   24507390.4784
     -4669.2034      -3638.3404
   1982256.87947    230159.03347  20993549.0604   20993550.6064
     -2344.9374      -1827.2244
  -1430870.28146  -1077670.95846  22406093.7784   22406095.9584
       573.0004        446.4944
   5065143.80246   3908825.96145  23284536.9504   23284539.8684
     -4247.9694      -3310.1064
  -1261084.48946   -490900.58546  22421913.3104   22421915.8414
       175.9224        137.0824
   2008908.60647   1564785.08547  21496261.8494   21496264.1924
     -2338.4534      -1822.1714
  -1056871.45547   -823535.43047  21156661.7314   21156664.8964
        37.9064         29.5374
 98  7  2 14 54  0.0010000  0  8G 2G 4G 5G 7G 8G 9G16G24
   5522851.87943   4291013.30442  24520726.8884   24520735.1424
     -4679.8124      -3646.6074
   2017556.13347    257664.94447  21000266.2634   21000267.7744
     -2361.5624      -1840.1794
  -1439396.67946  -1084314.90446  22404471.4034   22404473.6424
       563.8914        439.3954
   5128919.60646   3958521.36645  23296673.6694   23296676.7634
     -4255.3754      -3315.8774
  -1263605.84246   -492865.27546  22421433.4114   22421436.0604
       160.2974        124.9074
   2044105.44447   1592211.17747  21502959.4034   21502961.5834
     -2354.3754      -1834.5784
     14279.22754                  24997312.5674
     -1303.5784
  -1057327.92447   -823891.10947  21156574.9814   21156578.3104
        23.0164         17.9344
 98  7  2 14 54 15.0010000  0  8G 2G 4G 5G 7G 8G 9G16G24
   5593130.92044   4345776.12642  24534101.1534   24534105.2204
     -4690.8914      -3655.2394
   2053102.95547    285363.76647  21007030.5364   21007031.8724
     -2378.1414      -1853.0974
  -1447786.39746  -1090852.34746  22402874.9274   22402877.3764
       554.6254        432.1754
   5192804.87046   4008302.06145  23308830.5444   23308833.8724
     -4262.7664      -3321.6364
  -1265893.35346   -494647.75646  22420998.3334   22421000.4784
       144.5474        112.6344
   2079539.73747   1619822.30347  21509702.4354   21509704.5214
     -2370.3444      -1847.0214
     33942.16444                  25001054.1774
     -1318.2504
  -1057562.11147   -824073.58047  21156530.2244   21156533.4114
         8.1094          6.3194
 98  7  2 14 54 30.0010000  0  8G 2G 4G 5G 7G 8G 9G16G24
   5663575.78844   4400668.14842  24547506.3494   24547512.9114
     -4701.6724      -3663.6404
   2088899.29747    313257.01647  21013842.3644   21013843.5014
     -2394.6724      -1865.9784
  -1456035.67746  -1097280.35246  22401304.9274   22401307.1884
       545.2974        424.9074
   5256802.13546   4058170.04045  23321008.9974   23321013.2044
     -4270.1724      -3327.4074
  -1267944.62446   -496246.14146  22420607.8644   22420610.1734
       129.0474        100.5564
   2115214.82647   1647621.05947  21516491.0994   21516493.2784
     -2386.2664      -1859.4284
     53824.73743                  25004837.5524
     -1332.7504
  -1057572.04847   -824081.31247  21156528.4504   21156531.6614
        -6.7194         -5.2354
 98  7  2 14 54 45.0010000  0  8G 2G 4G 5G 7G 8G 9G16G24
   5734183.06544   4455686.66243  24560942.6224   24560947.9784
     -4712.6094      -3672.1634
   2124945.30347    341344.80947  21020701.6774   21020703.1774
     -2411.4694      -1879.0674
  -1464144.30246  -1103598.75646  22399762.0284   22399764.5134
       535.9064        417.5894
   5320910.69145   4108124.72845  23333208.2474   23333211.7514
     -4277.5474      -3333.1534
  -1269763.39246   -497663.35646  22420261.6774   22420264.2784
       113.4224         88.3814
   2151128.18047   1675605.47647  21523325.1854   21523327.2824
     -2402.2034      -1871.8474
     73926.90643                  25008663.1224
     -1347.5784
  -1057358.59847   -823914.97547  21156568.8804   21156572.0094
       -21.7504        -16.9484
 98  7  2 14 55  0.0010000  0  8G 2G 4G 5G 7G 8G 9G16G24
   5804951.99644   4510831.18243  24574409.3724   24574415.1734
     -4723.1564      -3680.3814
   2161243.84247    369629.38447  21027608.9894   21027610.3844
     -2428.2344      -1892.1314
  -1472113.53046  -1109808.54846  22398245.5284   22398247.9314
       526.7664        410.4674
   5385127.92945   4158164.12445  23345428.1614   23345432.2864
     -4284.6874      -3338.7184
  -1271345.34246   -498896.03846  22419960.8104   22419963.5874
        97.5474         76.0114
   2187281.44447   1703776.83647  21530204.9504   21530206.9894
     -2418.1414      -1884.2654
     94252.38843     13735.08852  25012530.6144   25012534.2474
     -1362.3594      -1061.5794
  -1056920.10847   -823573.28847  21156652.5754   21156655.7394
       -36.6094        -28.5274
 98  7  2 14 55 15.0010000  0  8G 2G 4G 5G 7G 8G 9G16G24
   5875880.40944   4566100.01443  24587907.0364   24587913.4704
     -4733.7664      -3688.6494
   2197794.92147    398110.74247  21034564.3334   21034565.7164
     -2445.0784      -1905.2564
  -1479943.42946  -1115909.76146  22396755.5834   22396758.2204
       517.3594        403.1374
   5449454.95545   4208289.03545  23357669.6614   23357673.7984
     -4292.0944      -3344.4894
  -1272687.18546   -499941.62846  22419705.3334   22419707.6304
        81.5634         63.5554
   2223675.77447   1732136.04147  21537130.6064   21537132.5284
     -2434.2974      -1896.8554
    114799.06543     29745.43542  25016439.9814   25016445.2314
     -1377.0314      -1073.0114
  -1056257.92747   -823057.29347  21156778.3254   21156781.4784
       -51.5004        -40.1304
 98  7  2 14 55 30.0010000  0  8G 2G 4G 5G 7G 8G 9G16G24
   5946965.07144   4621490.57842  24601433.7004   24601439.9704
     -4744.1724      -3696.7574
   2234598.79047    426789.07947  21041567.6854   21041568.9384
     -2462.0314      -1918.4664
  -1487632.61246  -1121901.32646  22395292.4194   22395294.7634
       507.8754        395.7474
   5513893.51345   4258500.87945  23369931.5054   23369934.9974
     -4299.6414      -3350.3694
  -1273791.63146   -500802.23746  22419495.0054   22419497.3134
        65.7664         51.2464
   2260313.82247   1760685.15547  21544102.3494   21544104.4464
     -2450.8594      -1909.7614
    135566.29843     45927.76942  25020392.6304   25020398.8414
     -1391.9064      -1084.6024
  -1055371.20647   -822366.33247  21156947.0444   21156950.2204
       -66.7344        -52.0014
 98  7  2 14 55 45.0010000  0  8G 2G 4G 5G 7G 8G 9G16G24
   6018205.37745   4677002.39943  24614990.8884   24614996.9354
     -4754.4374      -3704.7564
   2271656.08647    455664.88847  21048619.3804   21048620.8104
     -2478.8124      -1931.5424
  -1495178.26746  -1127781.05246  22393856.4114   22393858.9664
       498.3594        388.3324
   5578443.49945   4308799.52845  23382215.3024   23382218.3134
     -4306.9064      -3356.0314
  -1274659.17346   -501478.23446  22419330.2784   22419332.6694
        50.0474         38.9984
   2297202.18847   1789429.32447  21551122.0754   21551124.3254
     -2467.4374      -1922.6794
    156557.66143     62284.61942  25024387.2314   25024392.2824
     -1406.8594      -1096.2544
  -1054255.96147   -821497.30647  21157159.2864   21157162.3924
       -81.8284        -63.7624
 98  7  2 14 56  0.0010000  0  8G 2G 4G 5G 7G 8G 9G16G24
   6089601.09644   4732635.32543  24628576.6304   24628580.8604
     -4764.9534      -3712.9504
   2308966.80347    484738.17447  21055719.5994   21055721.0634
     -2495.9374      -1944.8864
  -1502581.03846  -1133549.44946  22392447.6464   22392449.7434
       488.7504        380.8444
   5643103.25845   4359183.72745  23394519.2164   23394522.1694
     -4314.3124      -3361.8024
  -1275289.47046   -501969.37946  22419210.1384   22419212.8564
        34.0634         26.5424
   2334340.16147   1818367.98847  21558189.2944   21558191.4274
     -2484.2664      -1935.7914
    177775.56144     78818.05042  25028424.7864   25028430.7634
     -1422.0944      -1108.1254
  -1052912.47347   -820450.42147  21157414.7714   21157418.0404
       -97.2814        -75.8044
 98  7  2 14 56 15.0010000  0  8G 2G 4G 5G 7G 8G 9G16G24
   6161154.11745   4788390.85043  24642192.9274   24642199.4074
     -4775.3754      -3721.0714
   2346534.73847    514011.88447  21062868.6694   21062870.0054
     -2513.0624      -1958.2314
  -1509840.85346  -1139206.44146  22391066.0834   22391068.7784
       479.2974        373.4784
   5707871.93545   4409652.79845  23406844.4114   23406849.0754
     -4321.4844      -3367.3904
  -1275682.34546   -502275.51646  22419135.2864   22419138.0284
        18.4384         14.3674
   2371729.90547   1847502.83947  21565304.3804   21565306.3964
     -2500.9694      -1948.8074
    199219.93844     95527.94442  25032505.0914   25032510.8804
     -1437.0944      -1119.8134
  -1051338.56547   -819223.98647  21157714.5674   21157717.9544
      -112.5004        -87.6624
 98  7  2 14 56 30.0010000  0  8G 2G 4G 5G 7G 8G 9G16G24
   6232862.55045   4844267.42643  24655838.6534   24655844.1264
     -4785.6724      -3729.0954
   2384358.90447    543485.25747  21070066.4814   21070067.9354
     -2530.2194      -1971.5994
  -1516959.87346  -1144753.72346  22389711.3884   22389713.7314
       469.9384        366.1854
   5772748.47345   4460205.90645  23419189.7164   23419193.6654
     -4328.7504      -3373.0524
  -1275842.18146   -502400.06146  22419105.1614   22419107.3294
         2.8594          2.2284
   2409370.47147   1876833.13647  21572467.1304   21572469.2044
     -2517.7664      -1961.8954
    220887.46144    112411.67742  25036629.2084   25036632.5364
     -1451.9064      -1131.3564
  -1049537.78747   -817820.77147  21158057.2554   21158060.4424
      -127.6254        -99.4484
 98  7  2 14 56 45.0010000  0  8G 2G 4G 5G 7G 8G 9G16G24
   6304722.70245   4900262.25243  24669512.8334   24669518.4704
     -4795.7194      -3736.9244
   2422441.13347    573159.71947  21077313.2084   21077314.8374
     -2547.4064      -1984.9924
  -1523938.17346  -1150191.35146  22388383.5524   22388386.1654
       460.5314        358.8564
   5837734.71645   4510844.51645  23431556.0754   23431560.8564
     -4336.1094      -3378.7874
  -1275769.00946   -502343.04246  22419118.6924   22419121.1774
       -12.6414         -9.8504
   2447262.83547   1906359.64347  21579677.8174   21579680.0914
     -2534.5314      -1974.9594
    242777.24144    129468.68242  25040794.4664   25040798.5674
     -1466.7974      -1142.9594
  -1047510.40247   -816240.97847  21158442.9974   21158446.1034
      -142.7194       -111.2094
 98  7  2 14 57  0.0010000  0  8G 2G 4G 5G 7G 8G 9G16G24
   6376735.50645   4956376.02543  24683217.0524   24683224.1814
     -4805.9224      -3744.8744
   2460781.07947    603034.99447  21084609.0994   21084610.6224
     -2564.4844      -1998.3004
  -1530774.89546  -1155518.66146  22387082.2394   22387084.7354
       451.0474        351.4654
   5902833.01445   4561570.42645  23443944.1064   23443949.6264
     -4343.6254      -3384.6434
  -1275460.11946   -502102.34446  22419177.7314   22419179.7594
       -28.5004        -22.2084
   2485408.12147   1936083.22447  21586936.7244   21586938.9744
     -2551.4844      -1988.1704
    264892.77244    146701.52642  25045003.4424   25045009.1034
     -1481.8594      -1154.6964
  -1045254.75247   -814483.31647  21158871.9424   21158875.1534
      -157.9534       -123.0804
 98  7  2 14 57 15.0010000  0  8G 2G 4G 5G 7G 8G 9G16G24
   6448899.95745   5012607.93143  24696949.8564   24696956.8684
     -4816.0944      -3752.8004
   2499374.88047    633108.08347  21091953.2164   21091954.8334
     -2581.2974      -2011.4004
  -1537468.32746  -1160734.31846  22385808.7554   22385811.4504
       441.4064        343.9534
   5968045.31745   4612385.18345  23456353.5914   23456358.8644
     -4351.3594      -3390.6704
  -1274915.35346   -501677.84846  22419281.1694   22419283.7004
       -44.0784        -34.3474
   2523807.14047   1966004.52447  21594243.5914   21594245.6304
     -2568.3124      -2001.2824
    287233.10843    164109.59542  25049253.7714   25049258.6464
     -1496.8444      -1166.3724
  -1042772.99747   -812549.47247  21159344.4744   21159347.6264
      -172.9534       -134.7694
 98  7  2 14 57 30.0010000  0  8G 2G 4G 5G 7G 8G 9G16G24
   6521217.93145   5068959.48943  24710711.3724   24710717.5954
     -4826.3124      -3760.7634
   2538219.64347    663376.72847  21099345.2164   21099346.8564
     -2597.9374      -2024.3674
  -1544016.73046  -1165836.96546  22384562.6614   22384565.2394
       431.7814        336.4534
   6033373.73545   4663290.38545  23468785.1774   23468789.8764
     -4359.0314      -3396.6484
  -1274137.53746   -501071.76746  22419429.5214   22419431.9234
       -59.6254        -46.4614
   2562456.38447   1996120.80247  21601598.5214   21601600.6774
     -2584.8444      -2014.1644
    309798.71643    181693.16142  25053548.2004   25053554.4464
     -1511.8754      -1178.0844
  -1040064.48847   -810438.93247  21159859.7164   21159862.7634
      -188.1874       -146.6404
 98  7  2 14 57 45.0010000  0  8G 2G 4G 5G 7G 8G 9G16G24
   6593690.30845   5125431.36143  24724502.4504   24724508.8494
     -4836.7194      -3768.8724
   2577312.86547    693838.97547  21106784.4504   21106786.2554
     -2614.4844      -2037.2614
  -1550422.63146  -1170828.57446  22383343.7314   22383346.1104
       422.3444        329.0994
   6098815.79245   4714284.17745  23481238.8644   23481244.2314
     -4366.5314      -3402.4924
  -1273126.45546   -500283.91146  22419621.7784   22419624.3454
       -75.2034        -58.6004
   2601351.37747   2026428.57847  21609000.0994   21609002.1964
     -2601.1254      -2026.8514
    332588.94843    199451.82842  25057884.9354   25057892.5564
     -1526.8124      -1189.7244
  -1037127.36647   -808150.25447  21160418.7084   21160421.9074
      -203.3594       -158.4624
 98  7  2 14 58  0.0010000  0  8G 2G 4G 5G 7G 8G 9G16G24
   6666321.85145   5182027.28343  24738323.9114   24738330.0874
     -4847.4534      -3777.2364
   2616656.58747    724496.41747  21114271.4114   21114273.1104
     -2631.3124      -2050.3734
  -1556685.71746  -1175708.89246  22382151.8414   22382154.2204
       412.8134        321.6724
   6164372.21145   4765367.03945  23493713.7714   23493718.3994
     -4374.2814      -3408.5314
  -1271879.61246   -499312.34446  22419859.3414   22419861.8964
       -91.0314        -70.9334
   2640490.06647   2056926.24147  21616447.7314   21616449.9934
     -2617.2664      -2039.4284
    355603.78143    217385.45142  25062264.3024   25062269.8334
     -1541.7664      -1201.3764
  -1033964.08047   -805685.34147  21161020.5364   21161023.8534
      -218.3444       -170.1384
 98  7  2 14 58 15.0010000  0  8G 2G 4G 5G 7G 8G 9G16G24
   6739113.08145   5238747.60943  24752175.4974   24752182.2354
     -4858.0784      -3785.5154
   2656251.92147    755349.91947  21121806.0524   21121807.7044
     -2648.0624      -2063.4254
  -1562807.32246  -1180478.97546  22380987.1144   22380989.3994
       403.3754        314.3184
   6230044.12645   4816539.92645  23506210.8564   23506215.2044
     -4381.9534      -3414.5094
  -1270394.77046   -498155.33246  22420141.5134   22420144.1734
      -106.9374        -83.3284
   2679868.86247   2087611.00247  21623941.2084   21623943.4234
     -2633.2664      -2051.8954
    378840.56744    235492.05642  25066686.7634   25066694.0324
     -1556.4694      -1212.8334
  -1030577.12847   -803046.14647  21161665.2004   21161668.4114
      -233.1874       -181.7054
 98  7  2 14 58 30.0010000  0  8G 2G 4G 5G 7G 8G 9G16G24
   6812066.10944   5295593.99643  24766058.0604   24766062.6774
     -4869.0004      -3794.0264
   2696098.97547    786399.56847  21129388.5674   21129390.1144
     -2664.8444      -2076.5024
  -1568784.93446  -1185136.85146  22379849.5604   22379851.9854
       393.6414        306.7334
   6295832.12745   4867803.27045  23518729.8964   23518734.4664
     -4389.7814      -3420.6094
  -1268669.63446   -496811.07646  22420469.9114   22420472.3844
      -123.0944        -95.9174
   2719488.56347   2118483.48147  21631480.9424   21631483.0404
     -2649.3124      -2064.3994
    402299.45544    253771.74242  25071150.8884   25071157.5214
     -1571.4064      -1224.4724
  -1026967.98347   -800233.81247  21162352.0134   21162355.1654
      -248.0624       -193.2954
 98  7  2 14 58 45.0010000  0  8G 2G 4G 5G 7G 8G 9G16G24
   6885182.90344   5352568.03343  24779971.7244   24779978.5444
     -4879.9064      -3802.5244
   2736196.35547    817644.27447  21137018.8334   21137020.4384
     -2681.4224      -2089.4204
  -1574616.07446  -1189680.59046  22378740.0524   22378742.4314
       383.8444        299.0994
   6361736.04845   4919156.95845  23531270.9114   23531274.9424
     -4397.3754      -3426.5264
  -1266702.49646   -495278.24346  22420844.3024   22420846.8924
      -139.2344       -108.4944
   2759347.65347   2149542.49647  21639065.8644   21639067.9154
     -2665.2034      -2076.7824
    425983.06043    272226.42942  25075657.1384   25075661.8494
     -1586.4064      -1236.1614
  -1023135.25047   -797247.25347  21163081.2554   21163084.3494
      -263.0164       -204.9474
 98  7  2 14 59  0.0010000  0  8G 2G 4G 5G 7G 8G 9G16G24
   6958465.07044   5409670.91043  24793916.7004   24793922.6304
     -4891.0164      -3811.1814
   2776540.74147    849081.45547  21144696.1224   21144697.7744
     -2697.7664      -2102.1554
  -1580299.64046  -1194109.34146  22377658.4664   22377660.8104
       374.0474        291.4654
   6427754.21145   4970599.62145  23543833.7634   23543837.8994
     -4405.0004      -3432.4684
  -1264491.95746   -493555.74646  22421265.0994   22421267.4894
      -155.4844       -121.1574
   2799444.10547   2180786.47047  21646695.9974   21646698.0484
     -2680.9534      -2089.0544
    449892.65144    290857.34142  25080207.4974   25080214.9544
     -1601.4534      -1247.8864
  -1019076.02547   -794084.21047  21163853.6304   21163856.7354
      -278.1724       -216.7574
 98  7  2 14 59 15.0010000  0  8G 2G 4G 5G 7G 8G 9G16G24
   7031911.18544   5466901.56542  24807893.6854   24807899.3924
     -4901.9844      -3819.7284
   2817127.99247    880707.87947  21152419.7554   21152421.3024
     -2714.0474      -2114.8424
  -1585839.16146  -1198425.84846  22376604.1464   22376606.3724
       364.4224        283.9654
   6493883.81745   5022129.14145  23556417.7784   23556423.3804
     -4412.4064      -3438.2394
  -1262039.58446   -491644.81546  22421731.6144   22421734.1224
      -171.6254       -133.7344
   2839774.74647   2212212.92547  21654370.6854   21654372.7004
     -2696.6414      -2101.2784
    474024.68944    309661.48542  25084798.9894   25084804.5214
     -1616.2974      -1259.4524
  -1014790.69847   -790744.97947  21164669.1854   21164672.2784
      -293.3444       -228.5804
 98  7  2 14 59 30.0010000  0  8G 2G 4G 5G 7G 8G 9G16G24
   7105526.45844   5524264.00143  24821902.4274   24821907.7004
     -4913.3124      -3828.5554
   2857963.31447    912527.60747  21160190.3104   21160191.8454
     -2730.5624      -2127.7114
  -1591233.08546  -1202628.89846  22375577.9894   22375580.4744
       354.8754        276.5264
   6560126.34145   5073746.64345  23569023.4114   23569028.5914
     -4419.7974      -3443.9984
  -1259343.31846   -489543.83146  22422244.8724   22422247.0404
      -187.8754       -146.3964
   2880342.46247   2243824.11747  21662090.3804   21662092.6534
     -2712.2974      -2113.4784
    498381.84044    328641.06542  25089434.4194   25089439.4354
     -1631.2034      -1271.0674
  -1010275.30247   -787226.47747  21165528.6304   21165531.7944
      -308.7034       -240.5484
 98  7  2 14 59 45.0010000  0  8G 2G 4G 5G 7G 8G 9G16G24
   7179311.03744   5581758.35942  24835942.4814   24835949.6574
     -4924.6874      -3837.4194
   2899046.28347    944540.30547  21168008.0604   21168009.7004
     -2747.2344      -2140.7024
  -1596484.34346  -1206720.78346  22374578.5214   22374580.8414
       345.2194        269.0024
   6626479.19845   5125450.13245  23581650.0604   23581656.0134
     -4427.3124      -3449.8544
  -1256400.96046   -487251.08946  22422804.6304   22422807.1384
      -204.4694       -159.3264
   2921145.84747   2275618.94447  21669854.8414   21669857.1614
     -2728.2344      -2125.8974
    522962.82744    347795.10042  25094111.7164   25094115.7944
     -1646.3284      -1282.8534
  -1005526.80547   -783526.33747  21166432.0914   21166435.2784
      -324.4224       -252.7964
 98  7  2 15  0  0.0010000  0  8G 2G 4G 5G 7G 8G 9G16G24
   7253265.48744   5639385.10242  24850016.1144   24850022.5604
     -4935.8444      -3846.1124
   2940380.27947    976748.60947  21175873.6304   21175875.1064
     -2763.9694      -2153.7424
  -1601589.68746  -1210698.97246  22373606.8104   22373609.2824
       335.4694        261.4044
   6692944.90145   5177241.54845  23594298.3564   23594303.4074
     -4434.7814      -3455.6744
  -1253211.46646   -484765.77746  22423411.5524   22423414.0014
      -220.8284       -172.0744
   2962189.34247   2307600.87447  21677665.3174   21677667.6144
     -2744.2814      -2138.4014
    547770.52243    367125.76342  25098832.3724   25098837.3174
     -1661.4224      -1294.6144
  -1000544.96347   -779644.36947  21167380.1464   21167383.3924
      -339.8124       -264.7894
 98  7  2 15  0 15.0010000  0  8G 2G 4G 5G 7G 8G 9G16G24
   7327386.69744   5697141.83242  24864121.2084   24864126.2474
     -4946.8284      -3854.6714
   2981965.92547   1009153.00347  21183787.1774   21183788.9354
     -2780.6094      -2166.7094
  -1606546.08946  -1214561.09046  22372663.9974   22372666.6104
       325.4844        253.6244
   6759523.56345   5229120.99145  23606967.8494   23606971.9384
     -4442.2344      -3461.4814
  -1249774.43746   -482087.57346  22424065.5054   22424068.0714
      -237.2814       -184.8944
   3003476.85347   2339772.94847  21685522.2944   21685524.6034
     -2760.5944      -2151.1124
    572807.17943    386634.85442  25103596.0914   25103604.1924
     -1676.6414      -1306.4734
   -995328.93747   -775579.92447  21168372.8724   21168375.9194
      -355.5944       -277.0864
 98  7  2 15  0 30.0010000  0  8G 2G 4G 5G 7G 8G 9G16G24
   7401675.56643   5755029.03842  24878257.7244   24878263.1614
     -4958.0004      -3863.3774
   3023803.96247   1041754.06747  21191748.8884   21191750.6224
     -2797.4224      -2179.8094
  -1611348.16846  -1218302.97146  22371750.2244   22371752.8494
       315.1254        245.5524
   6826217.56245   5281090.30145  23619659.2394   23619663.0954
     -4449.9694      -3467.5084
  -1246088.44246   -479215.37246  22424767.2864   22424769.7354
      -253.7974       -197.7644
   3045013.15347   2372138.88347  21693426.2394   21693428.3494
     -2777.2664      -2164.1034
    598075.48142    406324.44341  25108405.0284   25108411.0634
     -1692.1564      -1318.5634
   -989870.57447   -771326.64047  21169411.5444   21169414.5674
      -371.8444       -289.7484
 98  7  2 15  0 45.0010000  0  8G 2G 4G 5G 7G 8G 9G16G24
   7476126.92443   5813042.97342  24892424.8024   24892431.4814
     -4968.8594      -3871.8384
   3065889.74047   1074548.17347  21199757.2394   21199758.8454
     -2814.0164      -2192.7394
  -1615999.56446  -1221927.42246  22370865.0444   22370867.9854
       305.0634        237.7114
   6893024.22645   5333147.41145  23632372.4664   23632375.7714
     -4457.6414      -3473.4864
  -1242159.60846   -476153.94846  22425514.4664   22425517.1034
      -270.0314       -210.4144
   3086795.69647   2404696.69647  21701377.3494   21701379.4704
     -2793.7344      -2176.9364
    623573.88142    426193.30342  25113257.3254   25113266.9274
     -1707.6094      -1330.6054
   -984170.47647   -766884.99547  21170496.0214   21170499.0564
      -388.2504       -302.5324
 98  7  2 15  1  0.0010000  0  9G 2G 4G 5G 7G 8G 9G16G30G24
   7550737.93243   5871181.31842  24906624.0994   24906630.2514
     -4979.2664      -3879.9474
   3108222.70747   1107534.89747  21207813.3254   21207814.9194
     -2830.4064      -2205.5114
  -1620501.46446  -1225435.39746  22370008.2714   22370010.6384
       295.2034        230.0284
   6959946.32745   5385294.44945  23645107.2164   23645110.9194
     -4465.3124      -3479.4644
  -1237987.91246   -472903.28146  22426308.4974   22426311.2514
      -286.2034       -223.0154
   3128824.36447   2437446.29147  21709374.9504   21709377.0834
     -2810.0784      -2189.6714
    649301.24043    446240.53741  25118153.5444   25118160.5564
     -1722.6874      -1342.3544
    -12192.91353                  25177070.4814
      1106.1094
   -978224.49847   -762251.75447  21171627.6144   21171630.6264
      -404.5164       -315.2074
 98  7  2 15  1 15.0010000  0  8G 4G 5G 7G 8G 9G16G30G24
   3150804.39547   1140715.42747  21215916.3254   21215917.8374
     -2847.1874      -2218.5884
  -1624856.45846  -1228828.89346  22369179.7394   22369181.8844
       285.4384        222.4194
   7026985.23045   5437532.52345  23657864.2784   23657868.8494
     -4473.1724      -3485.5884
  -1233572.78746   -469462.92746  22427148.9744   22427151.3644
      -302.4374       -235.6664
   3171098.07747   2470386.83347  21717419.3494   21717421.7164
     -2826.4374      -2202.4194
    675254.08044    466463.55542  25123092.6694   25123096.6884
     -1737.6874      -1354.0424
    -28736.91643                  25173923.2244
      1099.8134
   -972035.24247   -757428.94447  21172805.3804   21172808.4154
      -420.6414       -327.7724
 98  7  2 15  1 30.0010000  0  8G 4G 5G 7G 8G 9G16G30G24
   3193639.84847   1174093.69547  21224067.7474   21224069.4114
     -2864.0784      -2231.7494
  -1629064.21846  -1232107.66046  22368378.9504   22368381.0834
       275.6724        214.8094
   7094141.04945   5489861.68945  23670643.6924   23670648.1104
     -4480.8444      -3491.5674
  -1228914.72546   -465833.27546  22428035.2004   22428037.8494
      -318.5784       -248.2434
   3213618.31747   2503519.47247  21725510.5754   21725512.8374
     -2842.8124      -2215.1794
    701432.94044    486862.65542  25128073.7394   25128080.0324
     -1752.7504      -1365.7794
    -45187.94144                  25170793.0994
      1093.6884
   -965606.14247   -752419.24447  21174028.8494   21174031.8374
      -436.4534       -340.0934
 98  7  2 15  1 45.0010000  0  8G 4G 5G 7G 8G 9G16G30G24
   3236728.90447   1207669.57947  21232267.1224   21232268.6344
     -2881.0164      -2244.9474
  -1633123.28246  -1235270.56046  22367606.2244   22367608.9894
       265.5784        206.9444
   7161413.34045   5542281.63045  23683445.2714   23683449.6884
     -4488.7034      -3497.6914
  -1224012.19446   -462013.12946  22428968.2474   22428970.9544
      -335.0474       -261.0754
   3256384.34947   2536843.64347  21733648.7474   21733650.9624
     -2859.2814      -2228.0114
    727838.48643    507438.40142  25133099.0674   25133105.1614
     -1767.8914      -1377.5774
    -61544.72345                  25167680.5364
      1087.3444
   -958938.69647   -747223.81947  21175297.4274   21175300.4034
      -452.4374       -352.5494
 98  7  2 15  2  0.0010000  0  8G 4G 5G 7G 8G 9G16G30G24
   3280070.07547   1241441.91347  21240514.7554   21240516.6064
     -2898.0004      -2258.1824
  -1637032.47146  -1238316.67746  22366862.4194   22366864.9384
       255.4844        199.0794
   7228801.23545   5594791.64045  23696268.5214   23696272.2244
     -4496.5164      -3503.7784
  -1218865.83746   -458002.98646  22429947.4974   22429950.2984
      -351.2814       -273.7264
   3299396.17947   2570359.34147  21741833.8644   21741836.1734
     -2875.7974      -2240.8814
    754468.48143    528189.08542  25138165.6224   25138170.1224
     -1782.9374      -1389.3024
    -77809.44145                  25164585.2864
      1081.0944
   -952034.86947   -741844.20247  21176611.3964   21176614.6534
      -468.2194       -364.8464
 98  7  2 15  2 15.0010000  0  8G 4G 5G 7G 8G 9G16G30G24
   3323665.53247   1275412.38947  21248810.7244   21248812.3174
     -2914.9534      -2271.3924
  -1640791.77546  -1241245.99546  22366147.0134   22366149.4504
       245.5314        191.3234
   7296305.12045   5647392.03745  23709114.4114   23709119.1574
     -4504.2344      -3509.7934
  -1213476.99246   -453803.88946  22430973.0754   22430975.8884
      -367.5624       -286.4124
   3342654.46147   2604067.07647  21750065.6694   21750067.6494
     -2892.2194      -2253.6774
    781322.57743    549114.31442  25143276.4814   25143282.7984
     -1797.8594      -1400.9294
    -93982.03245     -7552.02953  25161507.7864   25161511.2674
      1075.0004        837.6624
   -944895.43647   -736280.99747  21177969.8724   21177973.0604
      -484.0164       -377.1554
 98  7  2 15  2 30.0010000  0  8G 4G 5G 7G 8G 9G16G30G24
   3367516.70747   1309582.13247  21257155.2864   21257157.0214
     -2931.8594      -2284.5664
  -1644401.57446  -1244058.82646  22365460.0214   22365462.5874
       235.7974        183.7384
   7363926.98545   5700084.34345  23721982.3644   23721986.5134
     -4512.0314      -3515.8694
  -1207842.39946   -449413.30146  22432045.0134   22432047.8604
      -383.7194       -299.0024
   3386159.67947   2637967.23347  21758344.5914   21758346.6534
     -2908.4374      -2266.3154
    808401.15943    570214.53642  25148428.7714   25148434.2784
     -1812.6094      -1412.4234
   -110060.83645    -20080.96144  25158448.1924   25158452.1064
      1068.8444        832.8654
   -937516.31847   -730531.02347  21179373.8564   21179376.9384
      -499.8124       -389.4644
 98  7  2 15  2 45.0010000  0  8G 4G 5G 7G 8G 9G16G30G24
   3411620.98347   1343949.09747  21265548.1534   21265549.8884
     -2948.7504      -2297.7274
  -1647867.60846  -1246759.62946  22364800.9194   22364803.4274
       226.2974        176.3354
   7431665.48445   5752867.55645  23734872.4504   23734876.1304
     -4519.8284      -3521.9444
  -1201965.08446   -444833.57746  22433163.5524   22433166.0484
      -400.0314       -311.7134
   3429906.51747   2672055.66647  21766669.2164   21766671.4424
     -2924.5784      -2278.8924
    835700.56444    591486.83242  25153623.6774   25153630.5484
     -1827.4064      -1423.9534
   -126046.34145    -32537.15944  25155405.9114   25155409.9074
      1062.4844        827.9104
   -929903.29247   -724598.78447  21180822.8254   21180825.8254
      -515.2974       -401.5304
 98  7  2 15  3  0.0010000  0  8G 4G 5G 7G 8G 9G16G30G24
   3455977.74247   1378512.79747  21273988.8104   21273990.4504
     -2965.5164      -2310.7914
  -1651192.09146  -1249350.12646  22364168.0604   22364170.5214
       216.8914        169.0064
   7499520.40045   5805741.48045  23747785.0054   23747788.7784
     -4527.5314      -3527.9464
  -1195841.62946   -440062.05646  22434328.8104   22434331.2124
      -416.4694       -324.5214
   3473895.20047   2706332.54547  21775040.0134   21775042.1694
     -2940.6254      -2291.3964
    863220.47243    612930.89142  25158861.3644   25158865.8294
     -1842.0164      -1435.3374
   -141936.69745    -44919.20644  25152381.8104   25152385.1144
      1056.1724        822.9914
   -922059.54047   -718486.75547  21182315.5604   21182318.5364
      -530.5784       -413.4374
 98  7  2 15  3 15.0020000  0  8G 4G 5G 7G 8G 9G16G30G24
   3500588.78647   1413274.64547  21282478.0724   21282479.6664
     -2982.1564      -2323.7584
  -1654374.84546  -1251830.18846  22363562.4394   22363564.9004
       207.5474        161.7254
   7567493.91045   5858707.80645  23760719.9084   23760724.9944
     -4534.8594      -3533.6574
  -1189471.22446   -435098.10846  22435541.3774   22435543.6624
      -432.7974       -337.2444
   3518128.12247   2740799.74347  21783457.3544   21783459.4164
     -2956.6094      -2303.8514
    890963.40043    634548.75642  25164140.0884   25164144.8694
     -1856.7664      -1446.8304
   -157733.70945    -57228.56545  25149375.8384   25149378.9324
      1050.0634        818.2314
   -913987.63747   -712196.95547  21183851.4554   21183854.5024
      -545.5164       -425.0774
 98  7  2 15  3 30.0020000  0  8G 4G 5G 7G 8G 9G16G30G24
   3545447.18547   1448229.23647  21291014.4084   21291016.3074
     -2998.8594      -2336.7744
  -1657416.13446  -1254200.01846  22362983.5724   22362985.9514
       197.8914        154.2004
   7635573.20345   5911756.55745  23773674.9474   23773678.8034
     -4542.3284      -3539.4764
  -1182855.45946   -429942.97946  22436799.8614   22436802.3114
      -449.2664       -350.0774
   3562599.35147   2775452.63347  21791920.0334   21791922.1434
     -2972.9064      -2316.5504
    918928.59643    656339.83442  25169461.6274   25169466.8074
     -1871.9694      -1458.6774
   -173437.11845    -69464.97345  25146387.7914   25146391.4714
      1043.6724        813.2514
   -905691.22047   -705732.20247  21185430.1114   21185433.1234
      -560.6874       -436.8994
 98  7  2 15  3 45.0020000  0  8G 4G 5G 7G 8G 9G16G30G24
   3590550.32347   1483374.52947  21299597.1974   21299598.9674
     -3015.0004      -2349.3514
  -1660313.89946  -1256458.01346  22362432.3614   22362434.7294
       188.3594        146.7744
   7703761.38345   5964890.18345  23786650.6114   23786655.9204
     -4549.5624      -3545.1144
  -1175995.74946   -424597.74846  22438105.3694   22438107.8654
      -465.5164       -362.7394
   3607312.77547   2810294.24847  21800428.6824   21800430.7794
     -2988.9844      -2329.0794
    947120.46843    678307.49142  25174825.9864   25174830.7324
     -1887.0784      -1470.4504
   -189044.88245    -81626.84245  25143418.0804   25143421.8654
      1037.1564        808.1744
   -897168.53547   -699091.14147  21187051.8854   21187054.9674
      -575.8124       -448.6854
 98  7  2 15  4  0.0020000  0  8G 4G 5G 7G 8G 9G16G30G24
   3635895.65547   1518708.55147  21308226.0644   21308227.5764
     -3031.0474      -2361.8554
  -1663068.10846  -1258604.14746  22361908.1584   22361910.7604
       178.8914        139.3954
   7772059.02245   6018109.05744  23799647.0964   23799652.4284
     -4556.7504      -3550.7144
  -1168890.77746   -419061.40846  22439457.4394   22439460.1114
      -481.7194       -375.3654
   3652267.83247   2845324.14447  21808983.2754   21808985.4554
     -3005.0314      -2341.5834
    975540.02743    700452.64142  25180234.2834   25180241.5064
     -1902.2504      -1482.2734
   -204553.80545    -93711.68344  25140466.2444   25140470.6974
      1030.7034        803.1454
   -888417.51447   -692272.15447  21188717.1664   21188720.1194
      -590.9694       -460.4954
 98  7  2 15  4 15.0020000  0  8G 4G 5G 7G 8G 9G16G30G24
   3681481.09747   1554229.66847  21316900.8854   21316902.4794
     -3047.0004      -2374.2864
  -1665680.70346  -1260639.93046  22361410.8774   22361413.1274
       169.3754        131.9814
   7840464.02545   6071411.63445  23812663.8384   23812669.5104
     -4563.9064      -3556.2914
  -1161544.24846   -413336.84946  22440855.5414   22440858.2014
      -497.8124       -387.9064
   3697462.87847   2880541.04847  21817583.4864   21817585.7254
     -3021.0004      -2354.0264
   1004189.30443    722776.74342  25185686.5574   25185693.1434
     -1917.7344      -1494.3384
   -219964.82845   -105720.25344  25137533.2684   25137538.1194
      1024.0634        797.9714
   -879439.48447   -685276.27547  21190425.8694   21190428.6584
      -606.1254       -472.3054
 98  7  2 15  4 30.0020000  0  8G 4G 5G 7G 8G 9G16G30G24
   3727304.36747   1589936.10547  21325620.6824   21325622.1934
     -3062.6874      -2386.5104
  -1668149.69746  -1262563.81546  22360940.9864   22360943.3074
       159.8754        124.5784
   7908974.62745   6124796.46244  23825701.4394   23825706.3504
     -4570.7344      -3561.6114
  -1153957.21646   -407424.87546  22442299.2134   22442302.0724
      -513.6724       -400.2644
   3742897.69647   2915944.78647  21826229.4474   21826231.7324
     -3036.8914      -2366.4084
   1033071.39143    745282.25342  25191182.0644   25191188.8854
     -1933.1874      -1506.3804
   -235277.53545   -117652.21244  25134619.4164   25134623.5764
      1017.7344        793.0404
   -870233.71747   -678102.94147  21192177.5334   21192180.3814
      -621.1874       -484.0424
 98  7  2 15  4 45.0020000  0  8G 4G 5G 7G 8G 9G16G30G24
   3773364.06047   1625826.76847  21334385.6354   21334387.2404
     -3078.5164      -2398.8434
  -1670472.85446  -1264374.06346  22360498.8304   22360501.0684
       149.9064        116.8104
   7977588.95845   6178262.13145  23838758.3224   23838763.1274
     -4577.7814      -3567.1024
  -1146130.96546   -401326.50146  22443788.6894   22443791.2214
      -529.7974       -412.8294
   3788571.98147   2951535.12147  21834921.0884   21834923.2214
     -3053.0004      -2378.9614
   1062188.73643    767971.10842  25196723.7444   25196731.6584
     -1949.0784      -1518.7624
   -250493.41945   -129508.71044  25131723.8224   25131728.0064
      1011.0944        787.8654
   -860801.50747   -670753.15847  21193972.2834   21193975.1544
      -636.3594       -495.8644
 98  7  2 15  5  0.0020000  0  8G 4G 5G 7G 8G 9G16G30G24
   3819658.81047   1661900.59147  21343195.1584   21343196.7644
     -3094.3444      -2411.1774
  -1672647.22946  -1266068.37346  22360085.2834   22360087.6274
       139.7814        108.9204
   8046306.46345   6231808.19745  23851835.1044   23851839.4284
     -4584.7344      -3572.5204
  -1138063.63946   -395040.28646  22445323.4714   22445326.1544
      -546.0004       -425.4554
   3834487.24047   2987313.22847  21843658.3934   21843660.5614
     -3069.2194      -2391.5994
   1091543.37242    790844.84942  25202308.5884   25202316.9594
     -1965.0624      -1531.2184
   -265611.01245   -141288.61644  25128846.8694   25128850.1274
      1004.4064        782.6544
   -851142.92447   -663226.98047  21195810.3544   21195813.1664
      -651.6724       -507.7964
 98  7  2 15  5 15.0020000  0  8G 4G 5G 7G 8G 9G16G30G24
   3866190.78047   1698159.26547  21352049.8934   21352051.6274
     -3109.8754      -2423.2794
  -1674670.31146  -1267644.79946  22359700.3464   22359702.6544
       129.9694        101.2744
   8115126.68045   6285434.28945  23864931.2604   23864934.8344
     -4591.2664      -3577.6104
  -1129756.34546   -388567.06946  22446904.6354   22446907.0494
      -561.5624       -437.5814
   3880643.09547   3023278.81047  21852441.5254   21852443.7754
     -3084.8284      -2403.7624
   1121136.07142    813904.12542  25207940.1894   25207944.3034
     -1980.5784      -1543.3084
   -280630.29544   -152991.90542  25125989.1504   25125995.4434
       998.2194        777.8334
   -841255.26747   -655522.30247  21197691.9394   21197694.8464
      -666.6724       -519.4854
 98  7  2 15  5 30.0020000  0  8G 4G 5G 7G 8G 9G16G30G24
   3912956.26047   1734599.89147  21360949.0574   21360950.7444
     -3125.5314      -2435.4794
  -1676543.55046  -1269104.46246  22359343.7214   22359346.3464
       119.8134         93.3604
   8184047.13345   6339138.51245  23878046.3074   23878050.2564
     -4598.1414      -3582.9674
  -1121214.36846   -381910.98546  22448530.2364   22448532.6744
      -577.3594       -449.8904
   3927033.39247   3059427.07847  21861269.2364   21861271.4634
     -3100.5314      -2415.9984
   1150961.95942    837145.03542  25213615.6044   25213620.1744
     -1996.1414      -1555.4344
   -295556.85943   -164622.98443  25123148.8934   25123154.4004
       992.0004        772.9874
   -831141.19547   -647641.19747  21199616.8464   21199619.7994
      -681.8594       -531.3194
 98  7  2 15  5 45.0020000  0  8G 4G 5G 7G 8G 9G16G30G24
   3959956.30947   1771223.29847  21369892.9324   21369894.6894
     -3141.1724      -2447.6664
  -1678264.38646  -1270445.37046  22359016.1504   22359018.8114
       109.6094         85.4104
   8253072.21745   6392924.25545  23891181.3854   23891185.2754
     -4605.2344      -3588.4944
  -1112436.54346   -375071.13346  22450200.2444   22450202.7874
      -593.0164       -462.0904
   3973658.88747   3095758.61247  21870141.9554   21870144.1004
     -3116.1874      -2428.1984
   1181019.22443    860566.34242  25219335.7524   25219340.6744
     -2011.5164      -1567.4154
   -310390.63043   -176181.73642  25120326.0414   25120331.7014
       985.7664        768.1294
   -820798.57247   -639582.00347  21201584.7054   21201587.6354
      -697.1874       -543.2634
 98  7  2 15  6  0.0020000  0  8G 4G 5G 7G 8G 9G16G30G24
   4007190.83447   1808029.41547  21378881.3304   21378882.9714
     -3156.7974      -2459.8424
  -1679835.31146  -1271669.45446  22358717.2684   22358719.9284
        99.8594         77.8134
   8322201.17045   6446790.93645  23904336.2604   23904339.9634
     -4611.9224      -3593.7054
  -1103424.77246   -368048.97146  22451915.2054   22451917.5254
      -608.5314       -474.1804
   4020517.29147   3132271.63547  21879058.8304   21879060.9394
     -3131.5314      -2440.1544
   1211304.23443    884165.06842  25225099.5024   25225107.5104
     -2026.4374      -1579.0424
   -325131.82843   -187668.32442  25117520.6114   25117525.7684
       979.7344        763.4294
   -810227.34847   -631344.67547  21203596.2054   21203599.2054
      -712.2814       -555.0244
 98  7  2 15  6 15.0020000  0  8G 4G 5G 7G 8G 9G16G30G24
   4054663.27647   1845020.92047  21387915.0104   21387916.6744
     -3172.8124      -2472.3214
  -1681256.91546  -1272777.19246  22358446.5964   22358449.3384
        89.7664         69.9474
   8391432.55745   6500737.44345  23917510.5104   23917514.8344
     -4618.8754      -3599.1234
  -1094178.31946   -360843.95246  22453674.7994   22453677.4244
      -624.2504       -486.4294
   4067607.44847   3168965.24247  21888019.9164   21888022.0254
     -3147.1254      -2452.3054
   1241814.10343    907938.96742  25230904.7054   25230912.3964
     -2041.4694      -1590.7554
   -339779.78942   -199082.23842  25114733.0884   25114737.4474
       973.3754        758.4744
   -799427.41847   -622929.13547  21205651.6354   21205654.5064
      -727.6094       -566.9684
 98  7  2 15  6 30.0020000  0  8G 4G 5G 7G 8G 9G16G30G24
   4102372.53047   1882196.96147  21396993.8544   21396995.4944
     -3188.5004      -2484.5454
  -1682530.90446  -1273769.90246  22358204.3224   22358206.7134
        80.0784         62.3994
   8460765.30645   6554762.92445  23930704.2054   23930709.4904
     -4625.5314      -3604.3104
  -1084698.00646   -353456.69746  22455479.0254   22455481.5214
      -639.8284       -498.5674
   4114929.20147   3205839.31547  21897025.0254   21897027.1584
     -3162.4694      -2464.2614
   1272545.54943    931885.58542  25236752.7754   25236758.8694
     -2056.0944      -1602.1514
   -354335.44642   -210424.32941  25111962.5494   25111969.8544
       967.4064        753.8234
   -788400.43847   -614336.67247  21207750.0024   21207752.7794
      -742.6874       -578.7184
 98  7  2 15  6 45.0020000  0  8G 4G 5G 7G 8G 9G16G30G24
   4150320.20747   1919558.78047  21406118.0494   21406119.7254
     -3204.6254      -2497.1104
  -1683660.38946  -1274650.02446  22357989.3464   22357991.4794
        70.4694         54.9114
   8530199.27345   6608867.27145  23943917.0804   23943922.2134
     -4632.4534      -3609.7044
  -1074980.13246   -345884.33746  22457328.0884   22457330.9004
      -655.9844       -511.1574
   4162481.96347   3242893.39347  21906074.0104   21906076.1894
     -3177.9224      -2476.3034
   1303495.57443    956002.45042  25242642.4164   25242648.3344
     -2070.5784      -1613.4374
   -368801.52342   -221696.50341  25109210.2524   25109218.2604
       961.3284        749.0874
   -777146.92047   -605567.69147  21209891.2524   21209893.9364
      -757.8444       -590.5284
 98  7  2 15  7  0.0020000  0  8G 4G 5G 7G 8G 9G16G30G24
   4198509.67147   1957109.00847  21415288.0884   21415289.6354
     -3220.6874      -2509.6274
  -1684647.74946  -1275419.38446  22357801.5494   22357804.2214
        61.1884         47.6794
   8599737.74245   6663053.05345  23957149.7364   23957154.4244
     -4639.3754      -3615.0974
  -1065019.87446   -338123.09746  22459223.5804   22459225.8894
      -672.1094       -523.7224
   4210264.41947   3280126.45647  21915166.7994   21915168.8854
     -3193.0944      -2488.1254
   1334660.83443    980287.06042  25248573.1434   25248578.9674
     -2084.8284      -1624.5414
   -383176.20742   -232897.67041  25106474.6114   25106484.0724
       955.2664        744.3634
   -765667.00547   -596622.28947  21212075.8464   21212078.7174
      -772.8754       -602.2404
 98  7  2 15  7 15.0020000  0  8G 4G 5G 7G 8G 9G16G30G24
   4246940.59447   1994847.38447  21424504.2444   21424505.9554
     -3236.7664      -2522.1554
  -1685497.62446  -1276081.61646  22357639.8854   22357642.2294
        52.1254         40.6174
   8669378.63545   6717318.63645  23970402.0494   23970407.3574
     -4646.0624      -3620.3084
  -1054819.31846   -330174.61646  22461164.4864   22461167.1584
      -687.9534       -536.0674
   4258272.29447   3317535.17147  21924302.3614   21924304.3894
     -3207.9374      -2499.6924
   1366039.91943   1004738.33442  25254544.2054   25254551.0764
     -2099.0314      -1635.6094
   -397461.62342   -244029.07041  25103756.6114   25103762.0494
       949.4534        739.8344
   -753960.92647   -587500.65747  21214303.3614   21214306.1744
      -787.9374       -613.9774
 98  7  2 15  7 30.0020000  0  8G 4G 5G 7G 8G 9G16G30G24
   4295611.17747   2032772.50547  21433765.9244   21433767.7294
     -3252.4694      -2534.3914
  -1686212.16946  -1276638.40246  22357504.1194   22357506.5804
        43.2664         33.7134
   8739119.77845   6771662.35145  23983673.6894   23983678.2484
     -4652.6414      -3625.4344
  -1044380.41946   -322040.41046  22463150.9794   22463153.5214
      -703.7664       -548.3894
   4306503.04947   3355117.55947  21933480.2834   21933482.3344
     -3222.7344      -2511.2224
   1397631.95243   1029355.49542  25260556.0334   25260563.4674
     -2113.1414      -1646.6034
   -411659.57843   -255092.36742  25101054.7214   25101061.0964
       943.7504        735.3904
   -742029.16147   -578203.16847  21216574.0804   21216576.9164
      -802.8284       -625.5804
 98  7  2 15  7 45.0020000  0  8G 4G 5G 7G 8G 9G16G30G24
   4344518.04847   2070881.75247  21443072.4634   21443074.1504
     -3268.5474      -2546.9204
  -1686793.60446  -1277091.46046  22357393.2054   22357395.3144
        34.3134         26.7374
   8808960.14745   6826083.36545  23996963.7834   23996968.2254
     -4659.3754      -3630.6824
  -1033702.47346   -313719.93946  22465183.2214   22465186.0104
      -719.9374       -560.9904
   4354958.02047   3392874.66247  21942701.1504   21942703.1784
     -3237.9694      -2523.0934
   1429436.78043   1054138.48141  25266608.1354   25266616.8114
     -2127.6094      -1657.8774
   -425771.06443   -266088.32142  25098370.4324   25098372.5294
       937.7034        730.6784
   -729874.41747   -568731.93047  21218887.0184   21218889.8894
      -817.8594       -637.2934
 98  7  2 15  8  0.0020000  0  8G 4G 5G 7G 8G 9G16G30G24
   4393664.52247   2109177.69447  21452424.8774   21452426.5884
     -3284.3124      -2559.2054
  -1687244.85346  -1277443.07446  22357307.3694   22357309.7834
        25.8444         20.1384
   8878896.84745   6880579.45645  24010272.0414   24010276.1894
     -4665.4844      -3635.4424
  -1022785.28846   -305213.05046  22467260.5644   22467263.0724
      -735.7504       -573.3124
   4403639.53747   3430808.29247  21951964.8074   21951966.7524
     -3252.9064      -2534.7324
   1461458.31543   1079090.33042  25272701.0724   25272706.8034
     -2141.9694      -1669.0674
   -439791.75644   -277013.50842  25095701.7684   25095706.3614
       931.7344        726.0274
   -717496.33947   -559086.66447  21221242.4634   21221245.2294
      -832.5004       -648.7014
 98  7  2 15  8 15.0020000  0  8G 4G 5G 7G 8G 9G16G30G24
   4443047.77947   2147658.15147  21461822.0884   21461823.9044
     -3300.0474      -2571.4654
  -1687567.82446  -1277694.74146  22357245.6974   22357248.0184
        17.2504         13.4424
   8948925.08545   6935146.86045  24023598.4554   24023602.9794
     -4671.5944      -3640.2034
  -1011628.66846   -296519.58346  22469383.7054   22469386.3424
      -751.7194       -585.7554
   4452546.07247   3468917.26347  21961271.5334   21961273.4904
     -3267.9064      -2546.4204
   1493696.43642   1104210.93842  25278836.5804   25278842.5684
     -2156.4534      -1680.3534
   -453722.56844   -287868.71442  25093050.2524   25093054.2484
       925.7974        721.4004
   -704899.72547   -549271.11147  21223639.4864   21223642.4394
      -847.0004       -660.0004
 98  7  2 15  8 30.0020000  0  8G 4G 5G 7G 8G 9G16G30G24
   4492666.12847   2186321.79247  21471264.2054   21471266.1044
     -3315.6254      -2583.6044
  -1687761.69446  -1277845.80646  22357208.9794   22357211.4864
         8.6724          6.7574
   9019047.20445   6989787.42645  24036942.2684   24036946.1584
     -4677.9534      -3645.1584
  -1000233.30246   -287640.08046  22471552.0964   22471555.0374
      -767.6094       -598.1374
   4501678.34247   3507202.13247  21970621.2134   21970623.0064
     -3283.0314      -2558.2064
   1526152.73542   1129501.62242  25285012.3304   25285019.7294
     -2171.0314      -1691.7134
   -467566.07644   -298655.83042  25090416.3544   25090420.2684
       920.0784        716.9444
   -692085.33447   -539285.86347  21226078.0724   21226081.0844
      -861.5314       -671.3234
 98  7  2 15  8 45.0020000  0  8G 4G 5G 7G 8G 9G16G30G24
   4542515.88347   2225165.75347  21480750.2214   21480752.0964
     -3331.0474      -2595.6214
  -1687828.57046  -1277897.91146  22357196.2054   22357198.9244
         0.2194          0.1704
   9089262.78845   7044500.83345  24050303.5334   24050308.3614
     -4684.1414      -3649.9804
   -988600.83046   -278575.82146  22473765.4944   22473768.0494
      -783.2814       -610.3494
   4551035.67247   3545662.36847  21980013.5724   21980015.5644
     -3297.8754      -2569.7734
   1558827.44243   1154962.38142  25291230.4004   25291237.1274
     -2185.5474      -1703.0244
   -481327.85445   -309379.24543  25087797.6434   25087799.4124
       914.7974        712.8294
   -679053.69947   -529131.33347  21228557.7294   21228560.7644
      -876.0164       -682.6104
 98  7  2 15  9  0.0020000  0  8G 4G 5G 7G 8G 9G16G30G24
   4592600.44947   2264192.68447  21490281.2994   21490283.3034
     -3346.8444      -2607.9304
  -1687763.73846  -1277847.39746  22357208.4244   22357210.8854
        -8.9064         -6.9404
   9159573.82045   7099288.61245  24063683.4944   24063688.7564
     -4690.7034      -3655.0934
   -976732.43046   -269327.71746  22476024.0334   22476026.7294
      -799.0624       -622.6464
   4600617.51747   3584297.55547  21989448.5884   21989450.6044
     -3313.0004      -2581.5584
   1591721.86443   1180594.40641  25297490.7754   25297494.3504
     -2200.3444      -1714.5544
   -495005.26845   -320036.96843  25085194.8774   25085197.8894
       908.8754        708.2144
   -665802.26047   -518805.52847  21231079.2994   21231082.3114
      -890.8444       -694.1644
 98  7  2 15  9 15.0020000  0  8G 4G 5G 7G 8G 9G16G30G24
   4642917.74747   2303400.96247  21499856.2364   21499858.1704
     -3362.0624      -2619.7894
  -1687561.49446  -1277689.79646  22357247.0644   22357249.4204
       -18.0164        -14.0384
   9229982.61645   7154152.55945  24077081.6584   24077087.0024
     -4697.0944      -3660.0734
   -964631.67346   -259898.56246  22478326.9004   22478329.5374
      -814.3594       -634.5664
   4650425.54947   3623108.98847  21998926.7834   21998928.8574
     -3328.0314      -2593.2714
   1624838.12943   1206399.29642  25303791.7834   25303798.1934
     -2215.1094      -1726.0594
   -508594.57445   -330626.00143  25082609.1584   25082613.0254
       903.0784        703.6974
   -652328.54647   -508306.52047  21233643.5334   21233646.4754
      -905.6254       -705.6824
 98  7  2 15  9 30.0020000  0  8G 4G 5G 7G 8G 9G16G30G24
   4693461.15447   2342785.42647  21509474.3934   21509476.3264
     -3376.9064      -2631.3564
  -1687223.08246  -1277426.10246  22357311.6504   22357314.4164
       -27.0004        -21.0394
   9300486.04045   7209090.25445  24090498.0724   24090503.4984
     -4703.2814      -3664.8944
   -952302.96746   -250291.77646  22480672.7444   22480675.4634
      -829.4064       -646.2914
   4700459.28447   3662096.30147  22008447.7684   22008449.9004
     -3343.0944      -2605.0084
   1658172.18643   1232373.85742  25310134.6824   25310139.6154
     -2229.2664      -1737.0904
   -522097.46245   -341147.71043  25080039.5104   25080043.9284
       897.4064        699.2784
   -638635.10747   -497636.29747  21236249.1664   21236252.2364
      -920.0164       -716.8954
 98  7  2 15  9 45.0020000  0  8G 4G 5G 7G 8G 9G16G30G24
   4744228.04847   2382344.04047  21519134.9164   21519136.9554
     -3391.9064      -2643.0444
  -1686748.71746  -1277056.46346  22357401.6274   22357404.2294
       -36.1724        -28.1864
   9371085.10045   7264102.47445  24103932.6114   24103937.4284
     -4709.7974      -3669.9724
   -939746.57546   -240507.58146  22483062.3934   22483065.1114
      -844.7194       -658.2224
   4750721.75447   3701261.84147  22018012.3144   22018014.4364
     -3358.4534      -2616.9764
   1691718.19443   1258513.59442  25316519.4554   25316527.3814
     -2243.4374      -1748.1334
   -535513.33445   -351601.63944  25077485.9554   25077489.0614
       891.5164        694.6884
   -624726.12447   -486798.12147  21238895.7294   21238898.7524
      -934.4064       -728.1094
 98  7  2 15 10  0.0020000  0  8G 4G 5G 7G 8G 9G16G30G24
   4795219.19347   2422077.39347  21528838.0724   21528839.9474
     -3406.8124      -2654.6594
  -1686138.15846  -1276580.69346  22357518.1274   22357520.6354
       -45.2034        -35.2234
   9441779.88545   7319189.25045  24117385.1744   24117389.4864
     -4716.0624      -3674.8544
   -926961.53246   -230545.22146  22485495.1044   22485497.8344
      -859.8914       -670.0454
   4801211.72547   3740604.65647  22027620.5644   22027622.7214
     -3373.4534      -2628.6654
   1725475.68743   1284818.15242  25322942.3384   25322946.9324
     -2257.4694      -1759.0674
   -548842.90745   -361988.27444  25074950.1434   25074953.4124
       885.7664        690.2074
   -610603.77047   -475793.67847  21241583.1824   21241586.1584
      -948.5784       -739.1524
 98  7  2 15 10 15.0020000  0  8G 4G 5G 7G 8G 9G16G30G24
   4846429.09847   2461981.21147  21538583.1114   21538585.1504
     -3421.3594      -2665.9944
  -1685391.81746  -1275999.13646  22357660.3614   22357662.9754
       -54.5164        -42.4804
   9512566.85945   7374347.90645  24130855.9554   24130859.0024
     -4722.4064      -3679.7974
   -913950.78346   -220406.97346  22487971.1354   22487973.5964
      -875.0784       -681.8794
   4851923.60647   3780120.38747  22037270.5574   22037272.8424
     -3388.2974      -2640.2314
   1759440.68042   1311284.36542  25329405.9794   25329414.6074
     -2271.3444      -1769.8784
   -562087.69845   -372308.88044  25072429.7294   25072432.9284
       880.0314        685.7394
   -596269.20247   -464623.87947  21244311.1744   21244314.1394
      -962.8594       -750.2804
 98  7  2 15 10 30.0020000  0  8G 4G 5G 7G 8G 9G16G30G24
   4897857.88647   2502055.58147  21548369.5724   21548371.5884
     -3435.9534      -2677.3664
  -1684504.48146  -1275307.70646  22357828.7684   22357831.2644
       -63.9224        -49.8094
   9583451.21045   7429582.39945  24144344.6744   24144349.0454
     -4728.9374      -3684.8864
   -900712.37246   -210091.33346  22490490.3934   22490492.9474
      -890.1254       -693.6044
   4902857.68547   3819809.26347  22046963.0024   22046965.3114
     -3402.9844      -2651.6764
   1793613.07142   1337912.15142  25335908.3464   25335918.7914
     -2285.0784      -1780.5804
   -575246.15745   -382562.18644  25069925.0494   25069928.2484
       874.3284        681.2954
   -581718.19447   -453285.42047  21247079.9324   21247082.9794
      -977.4374       -761.6404
 98  7  2 15 10 45.0020000  0  8G 4G 5G 7G 8G 9G16G30G24
   4949505.86447   2542300.75347  21558198.2444   21558200.3074
     -3450.3444      -2688.5804
  -1683476.07546  -1274506.34946  22358024.5024   22358026.9394
       -73.1254        -56.9814
   9654432.80445   7484892.70044  24157851.9244   24157855.4984
     -4735.1094      -3689.6964
   -887248.10046   -199599.69346  22493052.4794   22493055.2564
      -905.0474       -705.2314
   4954010.05447   3859668.23347  22056696.8694   22056699.1894
     -3417.2344      -2662.7804
   1827990.33443   1364699.58142  25342450.7054   25342457.2684
     -2298.4534      -1791.0024
   -588317.80345   -392747.87244  25067437.6894   25067440.6894
       868.6254        676.8514
   -566948.20347   -441776.32447  21249890.7364   21249893.7134
      -991.7974       -772.8294
 98  7  2 15 11  0.0020000  0  8G 4G 5G 7G 8G 9G16G30G24
   5001371.49447   2582715.52747  21568067.7294   21568069.8264
     -3464.8284      -2699.8664
  -1682307.21246  -1273595.54446  22358247.0254   22358249.3934
       -82.5474        -64.3224
   9725506.78145   7540274.96644  24171376.9634   24171381.0414
     -4741.2194      -3694.4564
   -873558.54546   -188932.50646  22495657.4004   22495660.2714
      -920.0164       -716.8954
   5005376.30747   3899693.86347  22066471.7914   22066474.0534
     -3431.4224      -2673.8354
   1862568.63342   1391643.80942  25349029.3384   25349037.0644
     -2311.7504      -1801.3644
   -601302.29145   -402865.62244  25064966.8854   25064970.3074
       862.7814        672.2974
   -551962.34447   -430099.02547  21252742.3074   21252745.2954
     -1006.0944       -783.9694
 98  7  2 15 11 15.0020000  0  8G 4G 5G 7G 8G 9G16G30G24
   5053452.94847   2623298.47247  21577978.4864   21577980.4674
     -3479.2194      -2711.0804
  -1680995.90846  -1272573.74846  22358496.5254   22358498.7294
       -92.1254        -71.7864
   9796673.46745   7595729.47944  24184919.3464   24184925.2294
     -4747.5624      -3699.3994
   -859642.94846   -178089.18846  22498305.5574   22498308.1704
      -935.3124       -728.8154
   5056957.30347   3939886.82947  22076287.3464   22076289.4794
     -3445.9224      -2685.1344
   1897347.76243   1418744.40342  25355648.4394   25355655.1314
     -2325.4374      -1812.0294
   -614196.28345   -412912.86944  25062513.5104   25062516.1704
       856.6094        667.4884
   -536761.41147   -418254.13647  21255635.0724   21255638.0024
     -1020.6094       -795.2804
 98  7  2 15 11 30.0020000  0  8G 4G 5G 7G 8G 9G16G30G24
   5105747.58947   2664047.53847  21587929.8854   21587931.5964
     -3493.5784      -2722.2694
  -1679545.58146  -1271443.62546  22358772.6744   22358775.0884
      -101.3444        -78.9694
   9867932.30145   7651255.80344  24198479.6194   24198485.0804
     -4753.6724      -3704.1604
   -845498.15646   -167067.27946  22500996.9394   22500999.8574
      -950.8284       -740.9054
   5108753.37247   3980247.38747  22086143.9324   22086146.0294
     -3460.2974      -2696.3354
   1932332.00843   1446004.83842  25362305.9634   25362311.2364
     -2339.2664      -1822.8044
   -627001.14945   -422890.67244  25060076.8854   25060080.8694
       850.5944        662.8004
   -521344.92447   -406241.27947  21258568.4324   21258571.3734
     -1035.0474       -806.5304
 98  7  2 15 11 45.0020000  0  8G 4G 5G 7G 8G 9G16G30G24
   5158256.99447   2704963.95347  21597922.0334   21597923.9674
     -3507.8124      -2733.3604
  -1677958.90446  -1270207.25546  22359074.4864   22359076.9244
      -110.3444        -85.9824
   9939279.44345   7706850.91944  24212056.8854   24212061.5254
     -4759.4224      -3708.6404
   -831122.19346   -155865.23446  22503732.7834   22503735.7134
      -966.1414       -752.8374
   5160761.48847   4020773.16947  22096040.7834   22096042.8344
     -3474.2034      -2707.1714
   1967521.39043   1473425.10342  25369001.9634   25369006.2054
     -2352.9374      -1833.4584
   -639719.77445   -432801.24944  25057656.2684   25057659.6894
       845.1414        658.5514
   -505714.79847   -394061.95247  21261542.9554   21261546.1074
     -1049.1254       -817.5004
 98  7  2 15 12  0.0020000  0  8G 4G 5G 7G 8G 9G16G30G24
   5210979.40547   2746046.34247  21607954.7054   21607956.5684
     -3521.8594      -2744.3064
  -1676237.60746  -1268865.98146  22359401.8224   22359404.5294
      -119.2034        -92.8864
  10010711.40145   7762512.14644  24225649.7994   24225653.4434
     -4764.8284      -3712.8534
   -816515.99146   -144483.78446  22506512.4084   22506514.9284
      -981.3754       -764.7084
   5212974.48747   4061458.60147  22105976.6824   22105978.8034
     -3487.5474      -2717.5694
   2002919.05843   1501007.68742  25375738.1974   25375744.6074
     -2366.8754      -1844.3184
   -652357.60244   -442648.88444  25055251.3384   25055255.6274
       839.9384        654.4974
   -489872.44947   -381717.25647  21264557.4554   21264560.3964
     -1063.2664       -828.5194
 98  7  2 15 12 15.0020000  0  8G 4G 5G 7G 8G 9G16G30G24
   5263912.87347   2787293.19547  21618027.5724   21618029.5064
     -3535.9694      -2755.3004
  -1674383.51846  -1267421.23446  22359754.8144   22359757.3694
      -128.0624        -99.7894
  10082223.53645   7818235.88244  24239257.8224   24239263.6934
     -4770.1564      -3717.0054
   -801681.24446   -132924.25146  22509335.3694   22509338.1824
      -996.5784       -776.5544
   5265387.93947   4102300.23247  22115950.4164   22115952.7484
     -3500.9844      -2728.0404
   2038526.84943   1528754.00041  25382513.8854   25382523.1824
     -2380.8594      -1855.2154
   -664917.59644   -452435.87043  25052861.3384   25052865.0644
       834.6564        650.3814
   -473815.37747   -369205.24347  21267613.2134   21267616.0844
     -1077.7814       -839.8304
 98  7  2 15 12 30.0020000  0  8G 4G 5G 7G 8G 9G16G30G24
   5317059.23047   2828705.93747  21628141.2294   21628143.1044
     -3550.1564      -2766.3564
  -1672395.32046  -1265871.98946  22360133.2444   22360135.7054
      -136.8914       -106.6684
  10153816.52445   7874022.54644  24252882.3304   24252887.6154
     -4775.4694      -3721.1444
   -786618.44646   -121187.00946  22512201.6354   22512204.0614
     -1011.7194       -788.3524
   5318004.63047   4143300.23047  22125963.0104   22125965.2834
     -3514.4694      -2738.5474
   2074344.98343   1556664.21542  25389330.2604   25389332.0884
     -2394.7974      -1866.0754
   -677397.90044   -462160.74743  25050485.7214   25050488.7794
       829.4694        646.3394
   -457539.72247   -356522.90547  21270710.2834   21270713.2604
     -1092.2034       -851.0674
 98  7  2 15 12 45.0020000  0  8G 4G 5G 7G 8G 9G16G30G24
   5370421.45447   2870286.88147  21638295.4474   21638297.2754
     -3564.6254      -2777.6304
  -1670274.31346  -1264219.25846  22360536.8074   22360539.3614
      -145.7194       -113.5474
  10225490.55745   7929872.40944  24266521.0644   24266525.5294
     -4780.8914      -3725.3694
   -771327.27646   -109271.81746  22515111.2994   22515113.9824
     -1026.9224       -800.1994
   5370825.34447   4184459.21047  22136014.6824   22136016.9554
     -3528.1254      -2749.1884
   2110374.47243   1584739.17041  25396186.1744   25396193.3614
     -2409.0164      -1877.1554
   -689799.04743   -471823.93943  25048126.2294   25048128.9364
       824.1724        642.2124
   -441047.56947   -343671.86847  21273848.5644   21273851.6584
     -1106.5624       -862.2564
 98  7  2 15 13  0.0020000  0  8G 4G 5G 7G 8G 9G16G30G24
   5424000.15347   2912036.51447  21648491.3464   21648493.3964
     -3579.0784      -2788.8924
  -1668021.20146  -1262463.57946  22360965.4634   22360968.0294
      -154.5944       -120.4634
  10297244.67445   7985784.66944  24280175.5574   24280180.6194
     -4786.2344      -3729.5334
   -755808.45346    -97179.23346  22518064.7914   22518067.2524
     -1042.1564       -812.0704
   5423851.73447   4225778.45447  22146105.2134   22146107.4754
     -3542.0164      -2760.0124
   2146618.65443   1612981.40842  25403083.2294   25403090.4044
     -2423.4844      -1888.4294
   -702120.54843   -481425.08743  25045781.6434   25045784.8774
       818.7974        638.0244
   -424341.10647   -330653.83847  21277027.9714   21277031.0294
     -1120.8754       -873.4094
 98  7  2 15 13 15.0020000  0  8G 4G 5G 7G 8G 9G16G30G24
   5477792.38347   2953952.52847  21658727.5964   21658729.5534
     -3593.1874      -2799.8864
  -1665638.12546  -1260606.63946  22361419.1664   22361421.6864
      -163.1094       -127.0984
  10369076.11545   8041757.16944  24293844.4004   24293850.1894
     -4791.3124      -3733.4904
   -740064.63746    -84911.32446  22521060.3934   22521063.4164
     -1057.0164       -823.6494
   5477084.61647   4267258.60047  22156235.0574   22156237.2014
     -3555.6564      -2770.6414
   2183078.04043   1641391.25241  25410022.0494   25410030.0334
     -2437.7664      -1899.5584
   -714364.98843   -490966.15443  25043451.7054   25043456.3694
       813.8134        634.1404
   -407422.02147   -317470.12647  21280247.3074   21280250.3544
     -1135.0004       -884.4164
 98  7  2 15 13 30.0020000  0  8G 4G 5G 7G 8G 9G16G30G24
   5531797.58747   2996034.49847  21669004.5184   21669006.4754
     -3607.5944      -2811.1124
  -1663127.54946  -1258650.34446  22361896.9084   22361899.3574
      -171.6414       -133.7464
  10440985.06745   8097790.09844  24307528.6664   24307533.9394
     -4796.6094      -3737.6184
   -724096.30046    -72468.47346  22524099.3304   22524101.6744
     -1072.1564       -835.4464
   5530521.91647   4308898.03447  22166403.9474   22166406.1624
     -3569.3124      -2781.2824
   2219753.57043   1669969.52942  25417000.9944   25417005.1894
     -2452.3284      -1910.9054
   -726533.52144   -500448.10543  25041135.9794   25041139.0614
       808.6724        630.1344
   -390289.53147   -304120.12747  21283507.6504   21283510.5804
     -1149.3444       -895.5934
 98  7  2 15 13 45.0020000  0  8G 4G 5G 7G 8G 9G16G30G24
   5586018.42147   3038284.49347  21679322.4944   21679324.3934
     -3621.9064      -2822.2654
  -1660490.66646  -1256595.62746  22362398.6824   22362400.9084
      -180.0624       -140.3084
  10512972.22445   8153883.93144  24321227.1744   24321231.5924
     -4801.7664      -3741.6364
   -707902.53646    -59849.96446  22527180.7134   22527183.1154
     -1087.0624       -847.0624
   5584162.01147   4350695.48947  22176611.1744   22176613.3074
     -3582.7344      -2791.7414
   2256645.10443   1698716.17642  25424020.4244   25424023.7174
     -2466.5004      -1921.9484
   -738626.89844   -509871.47043  25038834.5414   25038837.5884
       803.7504        626.2994
   -372944.16647   -290604.25247  21286808.2834   21286811.3894
     -1163.4374       -906.5754
 98  7  2 15 14  0.0020000  0  8G 4G 5G 7G 8G 9G16G30G24
   5640453.23247   3080701.21747  21689681.2054   21689683.1044
     -3636.0784      -2833.3084
  -1657725.70346  -1254441.11646  22362924.5804   22362927.0884
      -188.6254       -146.9814
  10585037.71845   8210038.81245  24334941.1744   24334945.7564
     -4806.9844      -3745.7024
   -691487.34946    -47058.91546  22530304.4634   22530306.7014
     -1101.6874       -858.4584
   5638003.06147   4392649.53447  22186856.8614   22186859.2174
     -3596.1414      -2802.1874
   2293746.62743   1727626.49742  25431080.6044   25431088.2834
     -2480.3754      -1932.7604
   -750647.14945   -519237.87543  25036547.4084   25036550.0684
       798.8754        622.5004
   -355387.48247   -276923.71147  21290149.3694   21290152.3694
     -1177.4694       -917.5084
 98  7  2 15 14 15.0020000  0  8G 4G 5G 7G 8G 9G16G30G24
   5695100.94947   3123283.85047  21700080.1894   21700082.1934
     -3650.3754      -2844.4484
  -1654831.00646  -1252185.51346  22363475.7994   22363478.2254
      -197.3914       -153.8114
  10657182.98745   8266255.87445  24348669.6194   24348674.5414
     -4812.4534      -3749.9634
   -674852.05946    -34096.35146  22533470.2604   22533472.6864
     -1116.3914       -869.9154
   5692047.69647   4434762.21647  22197141.3774   22197143.6274
     -3609.9224      -2812.9264
   2331055.65343   1756698.40742  25438180.2604   25438185.6744
     -2494.1724      -1943.5114
   -762590.30145   -528544.23743  25034274.8074   25034277.4674
       793.5164        618.3244
   -337620.08647   -263078.98047  21293530.2054   21293533.2054
     -1191.5004       -928.4424
 98  7  2 15 14 30.0020000  0  8G 4G 5G 7G 8G 9G16G30G24
   5749960.35447   3166031.42847  21710519.4004   21710521.4394
     -3664.2504      -2855.2604
  -1651808.76246  -1249830.50846  22364050.9634   22364053.5764
      -205.7344       -160.3124
  10729407.41445   8322534.60144  24362413.4634   24362418.2444
     -4817.6094      -3753.9814
   -658001.42146    -20965.99646  22536676.8144   22536679.3934
     -1130.4844       -880.8974
   5746296.41847   4477033.92947  22207464.4084   22207466.5644
     -3623.3594      -2823.3974
   2368567.05143   1785928.04942  25445319.3614   25445325.6074
     -2507.3914      -1953.8114
   -774456.39845   -537790.50343  25032016.5334   25032019.4164
       788.5314        614.4404
   -319647.66447   -249074.48647  21296950.2364   21296953.2604
     -1204.8284       -938.8274
 98  7  2 15 14 45.0030000  0  8G 4G 5G 7G 8G 9G16G30G24
   5805032.75447   3208944.97947  21720999.4134   21721001.3704
     -3678.2194      -2866.1444
  -1648657.37046  -1247374.87446  22364650.2804   22364652.7534
      -214.2974       -166.9854
  10801716.58245   8378879.35544  24376173.6874   24376179.2654
     -4822.9694      -3758.1574
   -640934.92646     -7667.43346  22539924.1714   22539926.4334
     -1144.8594       -892.0984
   5800752.09847   4519466.90447  22217826.8124   22217829.0504
     -3636.8594      -2833.9164
   2406280.55643   1815315.18742  25452495.5544   25452502.9404
     -2520.6724      -1964.1604
   -786246.46145   -546977.54743  25029773.5464   25029776.1944
       783.4224        610.4594
   -301474.49647   -234913.56747  21300408.4764   21300411.3124
     -1218.0624       -949.1404
 98  7  2 15 15  0.0030000  0  8G 4G 5G 7G 8G 9G16G30G24
   5860309.05747   3252017.41647  21731518.4374   21731520.3234
     -3691.9374      -2876.8344
  -1645380.13047  -1244821.18746  22365274.0544   22365276.3514
      -222.6874       -173.5234
  10874100.39145   8435282.27644  24389947.8124   24389953.5774
     -4828.1874      -3762.2244
   -623655.85646      5796.77146  22543212.5624   22543215.2924
     -1159.1094       -903.2024
   5855404.38847   4562053.08447  22228227.2414   22228229.5734
     -3650.1414      -2844.2654
   2444188.31843   1844853.68341  25459709.5774   25459717.1044
     -2533.6254      -1974.2534
   -797962.73445   -556107.12243  25027543.9764   25027546.9054
       778.7194        606.7944
   -283104.89447   -220599.58447  21303904.3274   21303907.4684
     -1231.2814       -959.4404
 98  7  2 15 15 15.0030000  0  8G 4G 5G 7G 8G 9G16G30G24
   5915794.13147   3295252.53047  21742076.6874   21742078.5854
     -3705.7974      -2887.6344
  -1641973.13646  -1242166.38546  22365922.3354   22365924.4914
      -231.3284       -180.2564
  10946564.70245   8491747.93344  24403737.4764   24403743.3944
     -4833.5004      -3766.3644
   -606155.94146     19433.05946  22546542.6714   22546545.2844
     -1174.0624       -914.8544
   5910260.71747   4604798.25347  22238665.8904   22238668.1514
     -3663.8124      -2854.9194
   2482293.32043   1874545.86741  25466960.6164   25466965.1754
     -2546.7504      -1984.4814
   -809604.04845   -565178.21943  25025328.5544   25025332.4214
       773.7034        602.8864
   -264532.24847   -206127.37847  21307438.4374   21307441.4954
     -1244.8444       -970.0084
 98  7  2 15 15 30.0030000  0  8G 4G 5G 7G 8G 9G16G30G24
   5971480.61047   3338644.58347  21752673.4374   21752675.3234
     -3719.2194      -2898.0934
  -1638442.35847  -1239415.13546  22366594.3194   22366596.7574
      -239.5624       -186.6724
  11019103.35445   8548271.51344  24417540.9444   24417547.3784
     -4838.4694      -3770.2354
   -588436.49246     33240.41446  22549914.5224   22549917.0654
     -1188.7344       -926.2874
   5965315.57247   4647698.12347  22249142.5544   22249144.8624
     -3676.9694      -2865.1704
   2520587.19443   1904385.27442  25474247.2104   25474251.4644
     -2559.2504      -1994.2214
   -821176.94545   -574196.00743  25023126.1794   25023129.8584
       769.1884        599.3674
   -245762.39647   -191501.51747  21311009.9994   21311012.9404
     -1257.9374       -980.2114
 98  7  2 15 15 45.0030000  0  8G 4G 5G 7G 8G 9G16G30G24
   6027367.95647   3382193.15847  21763308.4524   21763310.2574
     -3732.5474      -2908.4784
  -1634788.92747  -1236568.30146  22367289.6084   22367291.9404
      -247.6724       -192.9914
  11091715.67945   8604852.50444  24431358.3274   24431364.4564
     -4843.2034      -3773.9254
   -570496.30246     47219.77446  22553328.4834   22553330.8624
     -1203.3594       -937.6834
   6020568.91647   4690752.65447  22259656.8354   22259659.2374
     -3690.2664      -2875.5324
   2559069.31843   1934371.37241  25481570.4444   25481576.1514
     -2571.7504      -2003.9614
   -832682.07245   -583161.03943  25020935.9294   25020940.7454
       764.7194        595.8854
   -226797.45947   -176723.63447  21314619.0074   21314622.0774
     -1270.7814       -990.2194
 98  7  2 15 16  0.0030000  0  8G 4G 5G 7G 8G 9G16G30G24
   6083454.80747   3425897.18547  21773981.4684   21773983.3084
     -3745.8124      -2918.8154
  -1631013.88747  -1233626.71346  22368007.8044   22368010.2534
      -255.7504       -199.2864
  11164396.72845   8661487.04645  24445189.4914   24445194.8234
     -4847.6414      -3777.3824
   -552337.81946     61369.23146  22556784.1794   22556786.6514
     -1217.8594       -948.9814
   6076021.98447   4733962.81747  22270209.2264   22270211.7454
     -3703.5944      -2885.9174
   2597737.03743   1964501.94141  25488928.2884   25488935.8044
     -2584.0474      -2013.5434
   -844120.36545   -592073.96643  25018759.5154   25018763.5694
       760.2504        592.4034
   -207640.27747   -161795.95547  21318264.6324   21318267.6084
     -1283.6254      -1000.2274
 98  7  2 15 16 15.0030000  0  8G 4G 5G 7G 8G 9G16G30G24
   6139740.34947   3469756.04647  21784692.1714   21784694.1634
     -3758.9694      -2929.0674
  -1627119.86747  -1230592.40846  22368748.9914   22368751.6284
      -263.4844       -205.3124
  11237142.44445   8718171.98644  24459032.3514   24459037.5544
     -4851.8594      -3780.6704
   -533962.03346     75688.02446  22560280.5694   22560283.3944
     -1232.3124       -960.2444
   6131674.81847   4777328.63747  22280799.7264   22280802.1284
     -3716.8754      -2896.2664
   2636589.30843   1994776.47642  25496322.1404   25496327.4954
     -2596.3594      -2023.1374
   -855491.45045   -600934.53243  25016595.3824   25016599.1554
       755.8134        588.9454
   -188291.55747   -146719.02147  21321946.5694   21321949.6984
     -1296.2504      -1010.0654
 98  7  2 15 16 30.0030000  0  8G 4G 5G 7G 8G 9G16G30G24
   6196223.20747   3513768.65547  21795440.5154   21795442.4604
     -3772.2194      -2939.3914
  -1623110.67747  -1227468.36346  22369511.8514   22369514.4764
      -271.1254       -211.2664
  11309951.24845   8774906.06544  24472887.9214   24472893.9444
     -4856.0944      -3783.9694
   -515368.79546     90176.25246  22563818.5154   22563821.2224
     -1246.9374       -971.6404
   6187527.56947   4820850.24347  22291428.1014   22291430.4444
     -3730.2344      -2906.6764
   2675627.70744   2025195.94042  25503750.4684   25503758.0304
     -2608.8754      -2032.8904
   -866795.96145   -609743.21243  25014444.7414   25014448.9954
       751.4534        585.5484
   -168753.18547   -131494.30547  21325664.7264   21325667.8194
     -1309.0164      -1020.0124
 98  7  2 15 16 45.0030000  0  8G 4G 5G 7G 8G 9G16G30G24
   6252903.65847   3557935.22947  21806226.5464   21806228.3744
     -3785.2664      -2949.5584
  -1618988.94147  -1224256.61846  22370296.2024   22370298.6044
      -278.5784       -217.0744
  11382822.76145   8831688.99344  24486754.6084   24486759.7534
     -4860.2194      -3787.1834
   -496555.70646    104835.79946  22567398.6554   22567401.1874
     -1261.6724       -983.1214
   6243579.50647   4864527.05847  22302094.1794   22302096.4874
     -3743.5004      -2917.0134
   2714852.77744   2055760.91442  25511214.9764   25511222.4794
     -2621.2664      -2042.5454
   -878037.78845   -618503.04843  25012306.0224   25012308.9294
       747.3594        582.3584
   -149021.00647   -116118.57947  21329419.5854   21329422.3864
     -1322.0944      -1030.2034
 98  7  2 15 17  0.0030000  0  8G 4G 5G 7G 8G 9G16G30G24
   6309779.99547   3602254.44747  21817049.6474   21817051.4644
     -3798.2814      -2959.7004
  -1614756.79947  -1220958.84446  22371101.4214   22371103.6124
      -285.6874       -222.6144
  11455754.99945   8888519.26244  24500632.8274   24500638.5694
     -4864.1094      -3790.2154
   -477520.62346    119668.32246  22571021.1324   22571023.7104
     -1276.3124       -994.5294
   6299828.78547   4908357.64147  22312798.3824   22312800.6444
     -3756.4064      -2927.0704
   2754264.43643   2086471.32342  25518715.3824   25518719.4724
     -2633.6724      -2052.2124
   -889219.20145   -627215.81644  25010178.1634   25010181.3394
       743.4844        579.3384
   -129090.72847   -100588.48247  21333212.1404   21333215.0584
     -1335.3124      -1040.5034
 98  7  2 15 17 15.0030000  0  8G 4G 5G 7G 8G 9G16G30G24
   6366852.06747   3646726.18147  21827910.2964   21827912.0774
     -3811.2344      -2969.7934
  -1610415.42947  -1217575.95646  22371927.6244   22371929.8394
      -293.0474       -228.3484
  11528746.93045   8945396.02544  24514523.2104   24514528.8474
     -4868.0474      -3793.2834
   -458264.41646    134673.15446  22574685.3044   22574687.5894
     -1291.1254      -1006.0714
   6356274.11347   4952340.99547  22323539.4994   22323541.6794
     -3769.5944      -2937.3464
   2793865.72643   2117329.52542  25526251.1244   25526256.9014
     -2646.5004      -2062.2084
   -900340.35045   -635881.58744  25008061.0774   25008063.6794
       739.2974        576.0754
   -108960.49847    -84902.58247  21337042.7104   21337045.6514
     -1348.6724      -1050.9134
 98  7  2 15 17 30.0030000  0  8G 4G 5G 7G 8G 9G16G30G24
   6424118.26947   3691349.18847  21838807.5544   21838809.3474
     -3824.2664      -2979.9474
  -1605963.84347  -1214107.18946  22372774.7184   22372776.7574
      -300.5004       -234.1564
  11601797.65345   9002318.62544  24528424.4764   24528429.6324
     -4872.1094      -3796.4494
   -438787.28546    149850.13546  22578391.9914   22578394.5344
     -1305.7194      -1017.4434
   6412917.79147   4996478.90547  22334318.6404   22334320.9724
     -3782.8594      -2947.6834
   2833662.36943   2148339.82942  25533823.5624   25533827.0194
     -2659.7504      -2072.5324
   -911396.32645   -644496.61544  25005957.7264   25005960.9954
       734.8754        572.6304
    -88629.28747    -69060.07347  21340911.6164   21340914.5224
     -1362.1414      -1061.4084
 98  7  2 15 17 45.0030000  0  8G 4G 5G 7G 8G 9G16G30G24
   6481580.04447   3736124.58647  21849742.1404   21849744.1674
     -3837.2194      -2990.0414
  -1601400.92247  -1210551.66346  22373643.0074   22373645.0814
      -307.8124       -239.8544
  11674910.17345   9059289.37544  24542337.0304   24542341.5894
     -4876.1724      -3799.6144
   -419096.55546    165193.56046  22582139.0624   22582141.3824
     -1319.6724      -1028.3164
   6469758.18047   5040770.09447  22345134.8904   22345137.1984
     -3795.7974      -2957.7644
   2873656.14643   2179503.76542  25541434.2804   25541443.4954
     -2672.7194      -2082.6384
   -922388.03345   -653061.54544  25003865.6474   25003869.9604
       730.7194        569.3914
    -68096.50147    -53060.49247  21344818.8194   21344821.8084
     -1375.4694      -1071.7944
 98  7  2 15 18  0.0030000  0  8G 4G 5G 7G 8G 9G16G30G24
   6539237.17647   3781052.21147  21860714.1244   21860715.9874
     -3850.2814      -3000.2194
  -1596726.07647  -1206908.92546  22374532.6404   22374534.7614
      -315.4064       -245.7714
  11748086.46045   9116309.78744  24556262.2804   24556267.9874
     -4880.5944      -3803.0604
   -399194.64746    180701.53046  22585926.3664   22585928.6874
     -1333.7814      -1039.3104
   6526793.87347   5085213.46747  22355988.3664   22355990.6754
     -3808.7974      -2967.8944
   2913846.17343   2210820.71841  25549082.8194   25549089.9134
     -2685.7664      -2092.8044
   -933316.36645   -661577.10344  25001786.6554   25001790.6164
       726.5004        566.1044
    -47362.47147    -36904.10047  21348764.5304   21348767.3904
     -1388.9844      -1082.3254
 98  7  2 15 18 15.0030000  0  8G 4G 5G 7G 8G 9G16G30G24
   6597088.79347   3826131.38347  21871722.8824   21871724.9684
     -3863.0944      -3010.2034
  -1591937.57947  -1203177.62446  22375443.9604   22375446.0344
      -323.0314       -251.7134
  11821329.62745   9173382.36444  24570200.0464   24570206.0224
     -4885.0944      -3806.5674
   -379082.40246    196373.40746  22589753.4374   22589755.9794
     -1347.7814      -1050.2194
   6584021.51347   5129806.41347  22366878.6944   22366881.0034
     -3821.4064      -2977.7194
   2954230.19743   2242288.73342  25556766.9914   25556774.6014
     -2698.7194      -2102.8984
   -944182.15045   -670043.95444  24999718.5774   24999722.1754
       722.3594        562.8774
    -26425.58247    -20589.63447  21352748.7104   21352751.3354
     -1402.5164      -1092.8694
 98  7  2 15 18 30.0030000  0  8G 4G 5G 7G 8G 9G16G30G24
   6655131.01947   3871359.08247  21882768.1324   21882770.2534
     -3875.7974      -3020.1014
  -1587031.28947  -1199354.54446  22376377.5934   22376379.8784
      -331.1564       -258.0444
  11894643.07345   9230509.67944  24584151.1324   24584156.4054
     -4890.0314      -3810.4144
   -358759.96746    212209.06546  22593620.7804   22593623.3704
     -1361.9064      -1061.2264
   6641437.05747   5174545.77947  22377804.5854   22377806.9404
     -3833.9844      -2987.5204
   2994810.05443   2273909.32941  25564489.2024   25564491.9094
     -2711.9064      -2113.1744
   -954985.83745   -678462.39445  24997662.2414   24997665.7924
       718.2034        559.6394
     -5285.40847     -4116.76947  21356771.4834   21356774.3084
     -1416.1564      -1103.4984
 98  7  2 15 18 45.0030000  0  8G 4G 5G 7G 8G 9G16G30G24
   6713361.79747   3916733.70547  21893848.9914   21893850.9254
     -3888.3754      -3029.9034
  -1582003.94647  -1195437.13546  22377334.2264   22377336.6164
      -339.2034       -264.3144
  11968028.70745   9287693.22844  24598116.4764   24598122.4294
     -4894.7814      -3814.1154
   -338226.22746    228209.37546  22597527.9914   22597530.3004
     -1376.0004      -1072.2084
   6699039.14847   5219430.49947  22388765.7724   22388768.1514
     -3846.2974      -2997.1144
   3035585.62843   2305682.54742  25572249.3124   25572255.7804
     -2724.8124      -2123.2314
   -965728.72145   -686833.43544  24995618.8514   24995622.9644
       714.1254        556.4614
     16058.32247     12514.71747  21360833.1634   21360835.9054
     -1429.7664      -1114.1034
 98  7  2 15 19  0.0030000  0  8G 4G 5G 7G 8G 9G16G30G24
   6771777.54247   3962252.46147  21904965.1164   21904967.0854
     -3900.5784      -3039.4124
  -1576857.04047  -1191426.55446  22378313.7494   22378316.0584
      -347.2974       -270.6214
  12041483.84645   9344930.97344  24612093.9054   24612099.8124
     -4899.4064      -3817.7194
   -317484.85446    244371.48046  22601475.0694   22601477.6834
     -1389.7194      -1082.8984
   6756822.39847   5264456.38647  22399761.2884   22399763.6554
     -3858.3284      -3006.4894
   3076552.43943   2337604.70042  25580044.6244   25580052.0114
     -2737.6724      -2133.2514
   -976412.10845   -695158.06244  24993585.5774   24993589.7844
       710.0634        553.2954
     37603.59947     29303.24947  21364932.9294   21364935.7534
     -1443.0624      -1124.4644
 98  7  2 15 19 15.0030000  0  8G 4G 5G 7G 8G 9G16G30G24
   6830379.84047   4007916.57747  21916116.7494   21916118.7414
     -3913.0004      -3049.0914
  -1571584.37147  -1187317.97746  22379317.1324   22379319.5224
      -355.7344       -277.1964
  12115011.93645   9402225.50344  24626085.9684   24626090.3394
     -4904.3124      -3821.5424
   -296534.61046    260696.34446  22605461.8514   22605464.4174
     -1403.6094      -1093.7224
   6814788.86647   5309625.04147  22410791.8194   22410794.0814
     -3870.5624      -3016.0234
   3117716.11643   2369680.27442  25587878.2184   25587883.5034
     -2750.8284      -2143.5024
   -987028.47145   -703430.53544  24991565.3904   24991567.8744
       705.4224        549.6794
     59350.59247     46248.96347  21369071.0694   21369073.8584
     -1456.4694      -1134.9114
 98  7  2 15 19 30.0030000  0  8G 4G 5G 7G 8G 9G16G30G24
   6889163.49347   4053722.01147  21927302.9764   21927304.9564
     -3924.8284      -3058.3084
  -1566187.26947  -1183112.44546  22380344.1554   22380346.4644
      -363.7974       -283.4784
  12188610.91645   9459575.31744  24640091.8194   24640096.8584
     -4908.8284      -3825.0614
   -275379.62346    277180.74646  22609487.6014   22609490.2374
     -1417.0004      -1104.1564
   6872936.68347   5354935.00947  22421857.1244   22421859.6204
     -3882.4064      -3025.2524
   3159073.24443   2401906.61942  25595747.1944   25595752.2694
     -2763.3594      -2153.2674
   -997577.67945   -711650.65944  24989557.8824   24989561.6904
       701.2034        546.3924
     81293.11747     63347.04447  21373246.6084   21373249.3514
     -1469.1724      -1144.8094
 98  7  2 15 19 45.0030000  0  8G 4G 5G 7G 8G 9G16G30G24
   6948127.35047   4099667.86547  21938523.2724   21938525.3354
     -3936.9064      -3067.7194
  -1560667.44847  -1178811.28546  22381394.3744   22381396.6944
      -372.0474       -289.9074
  12262279.72445   9516979.51844  24654110.4054   24654114.6594
     -4913.5784      -3828.7624
   -254022.23846    293822.85546  22613551.5934   22613553.9484
     -1430.5624      -1114.7244
   6931261.82747   5400383.14747  22432956.1324   22432958.6044
     -3894.0944      -3034.3594
   3200618.03643   2434279.14641  25603653.3194   25603657.8664
     -2775.7664      -2162.9344
  -1008063.55645   -719821.44344  24987561.9444   24987565.8474
       697.0314        543.1414
    103428.06847     80595.05947  21377458.8974   21377461.6874
     -1482.0314      -1154.8304
 98  7  2 15 20  0.0030000  0  8G 4G 5G 7G 8G 9G16G30G24
   7007298.58547   4145775.30947  21949783.2334   21949785.2844
     -3951.3124      -3078.9454
  -1554998.07047  -1174393.58946  22382473.2334   22382475.4834
      -382.6414       -298.1624
  12336046.69345   9574460.21044  24668147.6084   24668154.1364
     -4920.7194      -3834.3264
   -232432.52446    310646.01346  22617660.1404   22617662.5894
     -1446.8914      -1127.4474
   6989787.89747   5445987.85247  22444093.3044   22444095.7064
     -3908.1414      -3045.3044
   3242373.45643   2466815.82142  25611598.6944   25611604.4834
     -2790.4844      -2174.4034
  -1018459.13345   -727921.86545  24985584.0624   24985588.0114
       690.2504        537.8574
    125782.05347     98013.75347  21381712.7884   21381715.5424
     -1497.2194      -1166.6644
 98  7  2 15 20 15.0030000  0  8G 4G 5G 7G 8G 9G16G30G24
   7066657.48847   4192028.98647  21961078.8044   21961080.7494
     -3963.3444      -3088.3204
  -1549198.18247  -1169874.19646  22383577.0774   22383579.5264
      -390.7194       -304.4564
  12409890.92645   9632001.13044  24682199.4994   24682204.7374
     -4925.2344      -3837.8454
   -210625.87146    327638.20346  22621809.8124   22621812.3084
     -1460.8284      -1138.3084
   7048496.38747   5491734.70647  22455265.3514   22455267.7884
     -3919.7194      -3054.3264
   3284323.15743   2499503.89742  25619582.4294   25619590.3544
     -2802.9224      -2184.0954
  -1028779.99145   -735964.04544  24983620.2264   24983624.1514
       685.7034        534.3144
    148335.34047    115587.74847  21386004.7654   21386007.6364
     -1509.9844      -1176.6114
 98  7  2 15 20 30.0030000  0  8G 4G 5G 7G 8G 9G16G30G24
   7126198.87447   4238424.86547  21972409.3744   21972411.4484
     -3975.3754      -3097.6954
  -1543275.75447  -1165259.31446  22384703.9054   22384706.0504
      -398.7974       -310.7514
  12483802.60945   9689594.59144  24696265.1084   24696270.3354
     -4929.4844      -3841.1574
   -188607.92746    344795.03646  22625999.5154   22626001.9874
     -1474.7664      -1149.1684
   7107380.33347   5537618.28047  22466470.2964   22466472.7694
     -3931.3594      -3063.3974
   3326462.18444   2532339.53042  25627600.5934   25627606.1834
     -2815.4844      -2193.8844
  -1039029.27145   -743950.46444  24981669.7264   24981673.9094
       681.0004        530.6494
    171080.91747    133311.57847  21390332.6944   21390335.5654
     -1522.5944      -1186.4374
 98  7  2 15 20 45.0030000  0  8G 4G 5G 7G 8G 9G16G30G24
   7185920.19347   4284960.94547  21983774.0544   21983776.0464
     -3987.4694      -3107.1194
  -1537236.01747  -1160553.02746  22385853.4524   22385855.6444
      -406.3754       -316.6564
  12557777.46845   9747237.29944  24710341.9994   24710348.2804
     -4933.7344      -3844.4684
   -166382.24846    362113.74846  22630228.9684   22630231.1014
     -1488.5784      -1159.9314
   7166440.13447   5583638.87947  22477709.3434   22477711.7224
     -3943.2664      -3072.6754
   3368787.62544   2565320.37142  25635655.4524   25635661.3124
     -2827.8444      -2203.5154
  -1049209.23945   -751882.90845  24979732.3664   24979735.9294
       676.3914        527.0584
    194014.00347    151181.52447  21394696.9524   21394699.8474
     -1535.1414      -1196.2134
 98  7  2 15 21  0.0030000  0  8G 4G 5G 7G 8G 9G16G30G24
   7245824.05147   4331639.26747  21995173.3514   21995175.2964
     -3999.6874      -3116.6404
  -1531085.75947  -1155760.61546  22387023.5854   22387025.9644
      -413.6094       -322.2934
  12631812.88245   9804927.15744  24724430.6164   24724435.0694
     -4937.5944      -3847.4764
   -143950.80646    379592.78546  22634497.7804   22634500.3354
     -1502.1874      -1170.5364
   7225679.10047   5629799.08647  22488982.1794   22488984.6284
     -3955.1874      -3081.9644
   3411297.36144   2598444.81342  25643744.2264   25643749.4294
     -2840.1094      -2213.0724
  -1059319.87945   -759761.29144  24977808.3434   24977811.4254
       671.8134        523.4904
    217134.69247    169197.64847  21399096.6634   21399099.5344
     -1547.5784      -1205.9054
 98  7  2 15 21 15.0030000  0  8G 4G 5G 7G 8G 9G16G30G24
   7305909.88247   4378459.38547  22006607.1794   22006609.0194
     -4011.7664      -3126.0514
  -1524827.85347  -1150884.32546  22388214.4524   22388216.6554
      -420.7504       -327.8574
  12705903.45845   9862660.05744  24738529.6084   24738533.8514
     -4941.1254      -3850.2274
   -121317.70946    397228.96346  22638804.4134   22638806.8514
     -1515.5944      -1180.9824
   7285094.01847   5676096.40347  22500288.3664   22500290.8274
     -3966.8124      -3091.0234
   3453989.74244   2631711.58242  25651868.9914   25651873.6904
     -2852.1724      -2222.4724
  -1069365.27445   -767588.84144  24975896.5774   24975899.9764
       667.5634        520.1794
    240439.47847    187357.22447  21403531.3044   21403534.1874
     -1559.7194      -1215.3654
 98  7  2 15 21 30.0030000  0  8G 4G 5G 7G 8G 9G16G30G24
   7366177.73947   4425421.34147  22018075.7264   22018077.7064
     -4024.0944      -3135.6574
  -1518464.13547  -1145925.58146  22389425.3434   22389427.5224
      -427.8594       -333.3974
  12780046.41145   9920433.74343  24752638.3194   24752642.7264
     -4944.7034      -3853.0154
    -98482.99246    415022.24246  22643149.8904   22643152.5264
     -1529.1414      -1191.5384
   7344683.58547   5722529.81047  22511628.1014   22511630.5264
     -3978.6094      -3100.2154
   3496861.34043   2665118.02741  25660026.6634   25660032.5344
     -2864.1414      -2231.7984
  -1079347.15045   -775366.89444  24973997.3044   24974000.6904
       663.2344        516.8064
    263925.97547    205658.39647  21408000.6244   21408003.2614
     -1571.9694      -1224.9114
 98  7  2 15 21 45.0030000  0  8G 4G 5G 7G 8G 9G16G30G24
   7426631.91447   4472528.48147  22029579.8194   22029581.7654
     -4036.4064      -3145.2524
  -1511993.36347  -1140883.42046  22390656.6944   22390658.8514
      -434.8284       -338.8274
  12854243.38345   9978249.48544  24766757.7804   24766761.2374
     -4948.0944      -3855.6574
    -75444.42446    432974.37346  22647533.9764   22647536.5544
     -1542.6414      -1202.0584
   7404450.91447   5769101.73147  22523001.1634   22523003.7184
     -3990.2974      -3109.3224
   3539912.18143   2698664.11342  25668218.2654   25668223.9374
     -2875.8914      -2240.9544
  -1089265.88645   -783095.75444  24972109.7884   24972113.5154
       659.3594        513.7874
    287598.08147    224104.19947  21412505.4054   21412508.1014
     -1584.2664      -1234.4934
 98  7  2 15 22  0.0030000  0  8G 4G 5G 7G 8G 9G16G30G24
   7487271.07447   4519779.76147  22041119.2264   22041121.1364
     -4048.6254      -3154.7734
  -1505418.42447  -1135760.09246  22391907.7964   22391909.8944
      -441.6414       -344.1364
  12928490.58845  10036104.41043  24780886.7334   24780891.2454
     -4951.3594      -3858.2024
    -52202.80646    451084.71546  22651956.7264   22651959.1404
     -1556.1094      -1212.5534
   7464393.99347   5815810.60447  22534408.1014   22534410.5504
     -4001.9694      -3118.4174
   3583138.90343   2732347.28142  25676444.8584   25676449.1944
     -2887.4844      -2249.9884
  -1099125.77145   -790778.74545  24970233.8514   24970236.8274
       655.4694        510.7554
    311454.75747    242693.82147  21417045.1324   21417047.7924
     -1596.4374      -1243.9774
 98  7  2 15 22 15.0030000  0  8G 4G 5G 7G 8G 9G16G30G24
   7548092.52147   4567173.08847  22052693.1554   22052694.9724
     -4060.9374      -3164.3674
  -1498741.37347  -1130557.19346  22393178.5224   22393180.8784
      -448.6874       -349.6274
  13002785.98245  10093996.85343  24795024.2334   24795029.0034
     -4954.6874      -3860.7954
    -28758.33546    469353.12646  22656418.0154   22656420.4764
     -1569.8124      -1223.2314
   7524513.96847   5862657.31547  22545848.6244   22545851.0624
     -4014.1254      -3127.8904
   3626539.77743   2766166.09942  25684703.8044   25684708.6794
     -2899.4064      -2259.2784
  -1108927.77745   -798416.68145  24968368.1794   24968371.1204
       651.4224        507.6014
    335492.28347    261424.36547  21421619.1404   21421621.9294
     -1608.6564      -1253.4984
 98  7  2 15 22 30.0030000  0  8G 4G 5G 7G 8G 9G16G30G24
   7609095.42247   4614707.80347  22064301.4914   22064303.5424
     -4072.7974      -3173.6084
  -1491961.27247  -1125273.99446  22394468.9214   22394471.4994
      -455.3594       -354.8254
  13077128.10845  10151925.75343  24809170.9214   24809176.7224
     -4957.6254      -3863.0844
     -5111.95246    487778.87646  22660917.8584   22660920.2844
     -1583.0944      -1233.5804
   7584813.69247   5909644.09147  22557323.4914   22557325.7884
     -4025.8124      -3136.9974
   3670115.67644   2800121.37642  25692995.8514   25693001.1124
     -2910.7344      -2268.1054
  -1118672.58745   -806010.01244  24966514.2184   24966517.0774
       647.8594        504.8254
    359711.22647    280296.27147  21426228.0384   21426230.6634
     -1620.5944      -1262.8004
 98  7  2 15 22 45.0030000  0  8G 4G 5G 7G 8G 9G16G30G24
   7670275.72047   4662380.75747  22075943.7804   22075945.6204
     -4084.5784      -3182.7884
  -1485080.07647  -1119912.02346  22395778.2264   22395780.6874
      -462.1564       -360.1224
  13151514.78945  10209889.32743  24823326.2024   24823332.0734
     -4960.6564      -3865.4464
     18733.48046    506359.72746  22665455.5934   22665458.0424
     -1596.3594      -1243.9164
   7645288.74447   5956767.48647  22568831.3354   22568833.7614
     -4037.5944      -3146.1774
   3713861.73644   2834209.13541  25701320.8904   25701326.6554
     -2922.1874      -2277.0294
  -1128365.28645   -813562.76344  24964669.6324   24964671.3544
       644.4694        502.1834
    384110.50847    299308.70647  21430871.1634   21430874.0584
     -1632.7504      -1272.2734
 98  7  2 15 23  0.0030000  0  8G 4G 5G 7G 8G 9G16G30G24
   7731635.53647   4710193.58947  22087620.1634   22087622.0854
     -4096.5624      -3192.1274
  -1478094.77947  -1114468.93346  22397107.7264   22397109.8124
      -469.1724       -365.5884
  13225949.61945  10267890.44943  24837491.2724   24837496.5344
     -4963.7664      -3867.8694
     42782.04446    525098.86646  22670031.6084   22670034.0934
     -1610.0164      -1254.5584
   7705943.40947   6004030.84147  22580373.5074   22580375.8514
     -4049.4844      -3155.4424
   3757783.51944   2868433.92241  25709678.6714   25709684.0504
     -2933.9224      -2286.1734
  -1138004.54345   -821073.84344  24962835.3044   24962838.3044
       640.9224        499.4204
    408696.52647    318466.65047  21435549.5074   21435552.4484
     -1645.2344      -1282.0014
 98  7  2 15 23 15.0030000  0  8G 4G 5G 7G 8G 9G16G30G24
   7793169.29247   4758141.95647  22099329.6244   22099331.5584
     -4107.9844      -3201.0274
  -1471005.70547  -1108944.98046  22398456.3664   22398458.6164
      -476.1724       -371.0434
  13300425.65045  10325923.66144  24851663.9994   24851669.9404
     -4966.4844      -3869.9884
     67032.67746    543995.45546  22674646.3514   22674648.7534
     -1623.4844      -1265.0534
   7766769.26247   6051427.58447  22591948.1794   22591950.5814
     -4060.6874      -3164.1724
   3801877.38743   2902792.80842  25718069.0934   25718078.3434
     -2945.3444      -2295.0734
  -1147594.30445   -828546.38644  24961010.2334   24961013.5854
       637.6564        496.8754
    433464.05947    337766.03047  21440262.6164   21440265.4874
     -1657.2034      -1291.3274
 98  7  2 15 23 30.0030000  0  8G 4G 5G 7G 8G 9G16G30G24
   7854872.87547   4806222.66147  22111071.6084   22111073.4724
     -4119.1724      -3209.7444
  -1463808.23647  -1103336.55746  22399826.4214   22399828.6714
      -483.5314       -376.7784
  13374946.43645  10383991.76543  24865844.4374   24865850.8004
     -4969.6874      -3872.4844
     91487.48546    563051.14346  22679300.1014   22679302.3514
     -1637.2344      -1275.7674
   7827764.98847   6098956.69547  22603555.3744   22603557.8704
     -4072.1724      -3173.1214
   3846144.12943   2937286.35341  25726493.1084   25726497.9484
     -2956.9694      -2304.1314
  -1157133.18145   -835979.23944  24959195.0304   24959198.2294
       634.0944        494.0994
    458412.88547    357206.67747  21445010.1874   21445012.8704
     -1669.3754      -1300.8124
 98  7  2 15 23 45.0030000  0  8G 4G 5G 7G 8G 9G16G30G24
   7916741.68847   4854432.11447  22122844.7104   22122846.7374
     -4129.9534      -3218.1454
  -1456501.98747  -1097643.37646  22401216.4524   22401218.5734
      -490.5624       -382.2564
  13449513.18945  10442095.66744  24880034.2724   24880039.6164
     -4972.5004      -3874.6754
    116146.51746    582265.96646  22683992.5224   22683995.2534
     -1650.5784      -1286.1654
   7888932.47747   6146619.65347  22615195.1554   22615197.8044
     -4083.4224      -3181.8874
   3890584.79843   2971915.50941  25734949.3584   25734956.7454
     -2968.3914      -2313.0324
  -1166620.69345   -843372.12544  24957389.5854   24957392.8784
       630.9694        491.6644
    483542.48447    376788.18647  21449792.2104   21449794.7884
     -1681.2034      -1310.0284
 98  7  2 15 24  0.0030000  0  8G 4G 5G 7G 8G 9G16G30G24
   7978775.19647   4902769.89747  22134649.3584   22134651.4334
     -4141.1564      -3226.8754
  -1449087.02147  -1091865.48446  22402627.4604   22402629.3234
      -498.0624       -388.1014
  13524124.87645  10500234.57843  24894232.5464   24894237.3154
     -4975.7034      -3877.1714
    141010.37746    601640.40046  22688723.7964   22688726.4094
     -1664.5314      -1297.0374
   7950270.72047   6194415.66047  22626867.4134   22626870.1084
     -4094.9694      -3190.8854
   3935200.37543   3006680.82441  25743440.1634   25743448.9914
     -2980.3754      -2322.3704
  -1176058.33445   -850726.12344  24955593.7884   24955598.1834
       627.3594        488.8514
    508852.81447    396510.52347  21454608.7024   21454611.4684
     -1693.4374      -1319.5624
 98  7  2 15 24 15.0030000  0  8G 4G 5G 7G 8G 9G16G30G24
   8040974.17147   4951236.62247  22146485.4134   22146487.2414
     -4151.7504      -3235.1304
  -1441562.21547  -1086001.99446  22404059.4914   22404061.7184
      -505.0164       -393.5194
  13598781.82945  10558408.80243  24908439.0224   24908443.7224
     -4978.2974      -3879.1924
    166079.23646    621174.56446  22693494.3274   22693496.7884
     -1677.7034      -1307.3014
   8011778.16347   6242343.51247  22638572.1714   22638574.9014
     -4105.7194      -3199.2614
   3979994.18444   3041585.02441  25751963.8744   25751968.5034
     -2991.8754      -2331.3314
  -1185443.49345   -858039.22444  24953807.6714   24953810.3194
       624.2344        486.4164
    534342.41947    416372.56047  21459459.3194   21459462.3664
     -1704.9374      -1328.5234
 98  7  2 15 24 30.0030000  0  8G 4G 5G 7G 8G 9G16G30G24
   8103332.83447   4999827.77447  22158351.7884   22158353.9214
     -4162.7034      -3243.6654
  -1433930.25947  -1080055.01346  22405511.6554   22405513.9404
      -512.5474       -399.3874
  13673479.84245  10616614.99043  24922654.1714   24922659.7724
     -4981.3444      -3881.5674
    191345.58646    640862.62346  22698302.6474   22698305.1444
     -1691.0944      -1317.7354
   8073447.69147   6290397.66447  22650307.3354   22650309.8194
     -4116.8284      -3207.9184
   4024963.14344   3076625.78842  25760521.7104   25760529.9994
     -3003.9534      -2340.7434
  -1194780.03145   -865314.41644  24952030.6554   24952033.2574
       620.6414        483.6164
    560008.16247    436371.84747  21464343.3434   21464346.2614
     -1717.1724      -1338.0564
 98  7  2 15 24 45.0030000  0  8G 4G 5G 7G 8G 9G16G30G24
   8165855.35847   5048546.61247  22170249.3434   22170251.4054
     -4173.6254      -3252.1754
  -1426185.63047  -1074020.23946  22406985.4214   22406987.5774
      -520.0624       -405.2444
  13748224.23345  10674857.31243  24936877.0224   24936881.7334
     -4984.5474      -3884.0624
    216811.36446    660706.07846  22703148.4524   22703151.0304
     -1704.3594      -1328.0724
   8135280.58747   6338579.11847  22662073.9684   22662076.7224
     -4127.5314      -3216.2584
   4070112.94844   3111807.45042  25769113.6874   25769121.6594
     -3016.0624      -2350.1794
  -1204063.40645   -872548.24445  24950264.8044   24950266.2104
       617.1564        480.9014
    585857.32647    456514.05647  21469262.1474   21469265.0774
     -1729.3444      -1347.5414
 98  7  2 15 25  0.0030000  0  8G 4G 5G 7G 8G 9G16G30G24
   8228538.55347   5097390.64947  22182177.7414   22182179.7924
     -4184.1564      -3260.3814
  -1418330.69847  -1067899.50846  22408480.3744   22408482.6834
      -527.3284       -410.9054
  13823013.21945  10733134.39743  24951108.6554   24951114.3744
     -4987.3284      -3886.2304
    242474.73546    680703.50746  22708031.9604   22708034.5034
     -1717.4224      -1338.2514
   8197272.44047   6386884.42747  22673870.5074   22673873.1554
     -4138.0784      -3224.4764
   4115441.17744   3147128.08541  25777739.0304   25777747.3664
     -3027.7344      -2359.2744
  -1213296.99145   -879743.21844  24948507.1554   24948510.9644
       613.9534        478.4054
    611884.85047    476795.24747  21474215.0074   21474217.9484
     -1740.9374      -1356.5754
 98  7  2 15 25 15.0040000  0  8G 4G 5G 7G 8G 9G16G30G24
   8291387.93747   5146364.18347  22194137.4344   22194139.5554
     -4195.1564      -3268.9534
  -1410359.68247  -1061688.32646  22409997.0904   22409999.4694
      -535.3594       -417.1634
  13897853.51145  10791451.44143  24965350.2624   24965355.1604
     -4990.6414      -3888.8114
    268340.33046    700858.50546  22712954.0514   22712956.6874
     -1730.9534      -1348.7954
   8259430.25947   6435319.07147  22685698.8954   22685701.4614
     -4148.9844      -3232.9754
   4160951.14143   3182590.43542  25786398.6454   25786402.0434
     -3039.7504      -2368.6364
  -1222477.44045   -886896.82145  24946760.5744   24946763.7734
       610.0944        475.3984
    638090.87147    497215.53147  21479201.8014   21479204.8014
     -1752.8444      -1365.8524
 98  7  2 15 25 30.0040000  0  8G 4G 5G 7G 8G 9G16G30G24
   8354396.12247   5195461.45347  22206127.5824   22206129.7734
     -4206.0474      -3277.4394
  -1402270.47747  -1055385.05046  22411536.4804   22411538.8594
      -543.2504       -423.3124
  13972736.23744  10849801.53643  24979599.6054   24979605.3594
     -4993.8284      -3891.2954
    294402.36146    721166.57746  22717913.4264   22717916.0394
     -1744.0624      -1359.0104
   8321745.74447   6483876.56447  22697557.0824   22697559.5314
     -4159.8594      -3241.4494
   4206635.36043   3218188.52142  25795092.2934   25795097.8244
     -3051.5624      -2377.8414
  -1231602.32645   -894007.08144  24945024.3554   24945027.9064
       606.4534        472.5614
    664470.83647    517771.34847  21484221.7854   21484224.7154
     -1764.6254      -1375.0324
 98  7  2 15 25 45.0040000  0  8G 4G 5G 7G 8G 9G16G30G24
   8417569.11547   5244687.15047  22218148.9884   22218151.1684
     -4217.0314      -3285.9984
  -1394064.12047  -1048990.48046  22413098.0594   22413100.5434
      -550.8124       -429.2054
  14047665.48945  10908187.95843  24993858.6914   24993865.0904
     -4996.6254      -3893.4744
    320659.56546    741626.72546  22722910.0664   22722912.6214
     -1756.8444      -1368.9694
   8384224.36347   6532561.17947  22709446.3554   22709448.9694
     -4170.5624      -3249.7894
   4252496.50343   3253924.43942  25803818.7624   25803825.4304
     -3063.2034      -2386.9124
  -1240672.74245   -901074.94044  24943297.5594   24943301.1914
       602.9844        469.8584
    691028.29547    538465.47647  21489275.4654   21489278.1484
     -1776.3444      -1384.1644
 98  7  2 15 26  0.0040000  0  8G 4G 5G 7G 8G 9G16G30G24
   8480910.32347   5294043.92847  22230202.4654   22230204.5514
     -4228.3754      -3294.8384
  -1385745.66947  -1042508.57146  22414680.9494   22414683.3984
      -558.2194       -434.9764
  14122635.54245  10966606.10243  25008125.5594   25008131.0204
     -4999.3284      -3895.5804
    347109.20846    762236.83046  22727943.4104   22727946.0004
     -1769.7344      -1379.0144
   8446863.01447   6581370.48947  22721365.9884   22721368.5204
     -4181.1724      -3258.0564
   4298533.42443   3289797.36141  25812580.2304   25812586.8164
     -3074.9374      -2396.0554
  -1249691.33545   -908102.39444  24941581.2774   24941584.9694
       599.5164        467.1554
    717762.73247    559297.51247  21494362.8794   21494365.6564
     -1788.1874      -1393.3934
 98  7  2 15 26 15.0040000  0  8G 4G 5G 7G 8G 9G16G30G24
   8544416.31347   5343529.10147  22242287.2464   22242289.5554
     -4239.1874      -3303.2634
  -1377319.30647  -1035942.57146  22416284.5514   22416286.8714
      -565.4374       -440.6014
  14197643.83745  11025054.07643  25022398.7854   25022402.4184
     -5001.9224      -3897.6014
    373748.13746    782994.42746  22733012.6294   22733015.1134
     -1782.2194      -1388.7424
   8509656.22847   6630300.24147  22733315.2544   22733317.8674
     -4191.3914      -3266.0194
   4344742.12243   3325804.15341  25821372.9734   25821375.9614
     -3086.4064      -2404.9924
  -1258659.57345   -915090.62445  24939874.5514   24939878.5004
       596.1564        464.5374
    744670.98447    580264.98547  21499483.3164   21499486.1294
     -1799.6874      -1402.3544
 98  7  2 15 26 30.0040000  0  8G 4G 5G 7G 8G 9G16G30G24
   8608089.06147   5393144.21647  22254403.6604   22254405.6994
     -4249.8594      -3311.5794
  -1368778.23047  -1029287.18746  22417909.7544   22417912.2034
      -572.7664       -446.3114
  14272697.77445  11083537.57343  25036681.0594   25036686.7664
     -5004.6564      -3899.7324
    400579.80146    803902.20646  22738118.4024   22738120.7234
     -1794.8284      -1398.5674
   8572609.32847   6679354.57847  22745294.6454   22745297.1644
     -4201.7504      -3274.0914
   4391128.35743   3361949.26541  25830200.8954   25830205.1954
     -3097.7504      -2413.8314
  -1267572.70245   -922035.90045  24938178.8714   24938182.3634
       592.8594        461.9684
    771757.24547    601371.16747  21504637.6214   21504640.4804
     -1811.2344      -1411.3514
 98  7  2 15 26 45.0040000  0  8G 4G 5G 7G 8G 9G16G30G24
   8671914.29947   5442878.15547  22266549.0984   22266550.9494
     -4260.2664      -3319.6874
  -1360135.06047  -1022552.24846  22419554.4104   22419556.9064
      -579.7194       -451.7294
  14347785.96045  11142047.83843  25050969.5434   25050975.2274
     -5007.0944      -3901.6314
    427595.51146    824953.39746  22743259.5664   22743262.2504
     -1807.3444      -1408.3204
   8635711.99747   6728525.46047  22757303.0514   22757305.7934
     -4212.0164      -3282.0904
   4437677.48043   3398221.20742  25839058.4264   25839063.6524
     -3108.8594      -2422.4884
  -1276443.15345   -928947.92545  24936490.8794   24936494.6874
       589.8444        459.6194
    799010.31947    622607.33047  21509823.7854   21509826.6564
     -1822.5474      -1420.1664
 98  7  2 15 27  0.0040000  0  8G 4G 5G 7G 8G 9G16G30G24
   8735898.56347   5492736.01547  22278725.3874   22278727.3794
     -4271.0004      -3328.0524
  -1351385.98647  -1015734.78546  22421219.4494   22421221.6414
      -586.8284       -457.2694
  14422912.07045  11200587.60543  25065266.3404   25065271.9064
     -5009.7034      -3903.6654
    454802.29446    846153.47346  22748436.4574   22748438.9774
     -1820.2814      -1418.4014
   8698970.22247   6777817.55447  22769340.6684   22769343.3054
     -4222.5004      -3290.2604
   4484395.56344   3434624.90241  25847948.4964   25847958.1094
     -3120.2194      -2431.3394
  -1285266.74245   -935823.45745  24934811.8874   24934815.9064
       586.6254        457.1104
    826433.06047    643975.70847  21515042.0904   21515044.9494
     -1833.8594      -1428.9814
 98  7  2 15 27 15.0040000  0  8G 4G 5G 7G 8G 9G16G30G24
   8800044.87547   5542720.13547  22290931.6994   22290933.8094
     -4282.0784      -3336.6844
  -1342530.25847  -1008834.21446  22422904.6054   22422906.9264
      -594.1414       -462.9674
  14498076.35045  11259157.11444  25079570.1454   25079575.3364
     -5012.4534      -3905.8084
    482202.99346    867504.65646  22753650.7774   22753653.7194
     -1833.2974      -1428.5434
   8762389.21247   6827234.92247  22781408.7154   22781411.5274
     -4233.5314      -3298.8564
   4531284.08843   3471161.40841  25856871.3714   25856880.5044
     -3131.8284      -2440.3864
  -1294040.02345   -942659.74745  24933142.2544   24933146.1214
       582.9534        454.2494
    854027.01547    665477.49447  21520293.1454   21520296.1214
     -1845.5944      -1438.1254
 98  7  2 15 27 30.0040000  0  8G 4G 5G 7G 8G 9G16G30G24
   8864358.57147   5592834.69547  22303170.3634   22303172.5204
     -4293.0944      -3345.2684
  -1333566.87847  -1001849.76146  22424609.9574   22424612.3594
      -600.8284       -468.1784
  14573282.76345  11317759.47443  25093880.8634   25093886.2664
     -5015.0004      -3907.7924
    509796.96446    889006.44946  22758901.6684   22758904.5274
     -1845.8594      -1438.3324
   8825972.48747   6876780.30447  22793508.1294   22793510.9184
     -4244.1724      -3307.1474
   4578347.51544   3507834.25342  25865826.4264   25865831.8874
     -3143.2814      -2449.3104
  -1302758.56445   -949453.41345  24931483.4884   24931486.9574
       579.6414        451.6684
    881798.50747    687117.62047  21525577.7704   21525580.6874
     -1857.2344      -1447.1964
 98  7  2 15 27 45.0040000  0  8G 4G 5G 7G 8G 9G16G30G24
   8928836.47647   5643077.21147  22315440.2624   22315442.2774
     -4303.8444      -3353.6444
  -1324506.98747   -994790.10746  22426334.2234   22426336.3554
      -606.9844       -472.9754
  14648526.06845  11376390.52743  25108199.0434   25108204.9494
     -5017.3444      -3909.6194
    537577.76946    910653.81846  22764188.3794   22764191.1914
     -1858.1564      -1447.9144
   8889713.73447   6926448.78447  22805637.6374   22805640.3914
     -4254.5474      -3315.2314
   4625581.66444   3544640.00141  25874815.4884   25874818.3244
     -3154.4694      -2458.0284
  -1311429.07745   -956209.65745  24929833.3714   24929836.7584
       576.5164        449.2334
    909743.31147    708892.79747  21530895.6684   21530898.5044
     -1868.6564      -1456.0964
 98  7  2 15 28  0.0040000  0  8G 4G 5G 7G 8G 9G16G30G24
   8993479.71947   5693448.56047  22327741.2774   22327743.3874
     -4314.9844      -3362.3254
  -1315350.22547   -987654.96246  22428076.8404   22428079.0084
      -613.7194       -478.2224
  14723810.37045  11435053.59143  25122525.2934   25122529.3834
     -5020.3914      -3911.9934
    565548.71746    932449.34646  22769511.1214   22769513.9104
     -1871.0944      -1457.9954
   8953615.12947   6976242.05047  22817797.6914   22817800.4224
     -4265.4224      -3323.7054
   4672988.19744   3581580.22742  25883836.5044   25883841.0744
     -3166.1724      -2467.1474
  -1320046.79445   -962924.75345  24928193.1764   24928197.0784
       572.7344        446.2874
    937863.92047    730804.96847  21536246.6844   21536249.6134
     -1880.4844      -1465.3124
 98  7  2 15 28 15.0040000  0  8G 4G 5G 7G 8G 9G16G30G24
   9058282.99047   5743944.60647  22340072.9024   22340074.8364
     -4325.5004      -3370.5194
  -1306096.05747   -980443.92446  22429837.8404   22429840.1254
      -620.3284       -483.3734
  14799137.51945  11493750.02443  25136859.9414   25136864.6764
     -5023.3914      -3914.3304
    593709.40046    954392.72246  22774869.8714   22774872.4844
     -1883.7814      -1467.8814
   9017673.85447   7026157.91147  22829987.8794   22829990.6214
     -4275.8444      -3331.8264
   4720564.80444   3618652.83142  25892890.2464   25892893.7974
     -3177.4374      -2475.9254
  -1328612.65345   -969599.41845  24926563.2464   24926566.6214
       569.2504        443.5714
    966156.03347    752850.77147  21541630.6914   21541633.4804
     -1891.8754      -1474.1884
 98  7  2 15 28 30.0040000  0  8G 4G 5G 7G 8G 9G16G30G24
   9123245.70647   5794564.89247  22352434.9104   22352437.0554
     -4336.2034      -3378.8604
  -1296738.98447   -973152.69846  22431618.5274   22431620.8484
      -627.2344       -488.7544
  14874512.67045  11552483.82543  25151203.2704   25151206.3874
     -5026.5314      -3916.7784
    622060.59046    976484.54546  22780265.0124   22780267.6484
     -1896.4224      -1477.7314
   9081891.20147   7076197.37547  22842208.2704   22842210.9414
     -4286.4844      -3340.1184
   4768312.11044   3655858.52641  25901976.0514   25901981.3834
     -3188.8124      -2484.7894
  -1337124.45045   -976231.99345  24924943.7704   24924947.0624
       565.7344        440.8324
    994620.69147    775031.02947  21547047.1524   21547050.0944
     -1903.4064      -1483.1744
 98  7  2 15 28 45.0040000  0  8G 4G 5G 7G 8G 9G16G30G24
   9188368.25747   5845309.72447  22364827.2304   22364829.2344
     -4346.8124      -3387.1274
  -1287281.50847   -965783.23346  22433418.1604   22433420.4224
      -633.7344       -493.8194
  14949931.55745  11611251.76043  25165554.7384   25165559.6254
     -5029.3124      -3918.9454
    650601.60246    998724.28246  22785696.2154   22785698.8054
     -1909.0474      -1487.5694
   9146267.72447   7126360.87447  22854458.6294   22854461.3714
     -4297.0474      -3348.3484
   4816226.90944   3693194.72742  25911093.9414   25911098.5704
     -3199.8444      -2493.3854
  -1345585.86645   -982825.27445  24923333.7234   24923337.1214
       562.3914        438.2264
   1023257.55147    797345.46947  21552496.5434   21552499.2274
     -1914.8754      -1492.1104
 98  7  2 15 29  0.0040000  0  8G 4G 5G 7G 8G 9G16G30G24
   9253649.34247   5896178.09747  22377250.0354   22377251.9804
     -4357.2814      -3395.2844
  -1277728.16647   -958339.06646  22435235.8634   22435238.0434
      -640.0164       -498.7134
  15025390.72145  11670051.05343  25179914.3484   25179920.3014
     -5031.8124      -3920.8934
    679330.33046   1021110.29446  22791162.9964   22791165.8094
     -1921.3284      -1497.1394
   9210800.85147   7176646.40347  22866738.6914   22866741.5274
     -4307.2814      -3356.3234
   4864307.62544   3730660.15842  25920243.7774   25920247.3634
     -3210.8444      -2501.9564
  -1353997.86045   -989380.07345  24921732.9964   24921737.2504
       559.3134        435.8284
   1052065.60847    819793.31147  21557978.4654   21557981.1134
     -1926.1254      -1500.8774
 98  7  2 15 29 15.0040000  0  8G 4G 5G 7G 8G 9G16G30G24
   9319086.09147   5947167.75546  22389701.9804   22389704.0904
     -4367.6414      -3403.3564
  -1268080.50347   -950821.40446  22437071.8484   22437073.9804
      -646.3594       -503.6574
  15100887.53145  11728879.69443  25194281.3094   25194287.2274
     -5034.4374      -3922.9384
    708243.18346   1043639.78046  22796664.8794   22796667.4804
     -1933.7504      -1506.8184
   9275486.30047   7227050.62247  22879048.3014   22879051.2304
     -4317.4374      -3364.2374
   4912551.64444   3768252.90341  25929424.3244   25929432.0984
     -3221.7034      -2510.4184
  -1362364.18145   -995899.26645  24920141.3874   24920145.1024
       556.1884        433.3934
   1081041.36747    842371.82647  21563492.6294   21563495.5124
     -1937.3754      -1509.6434
 98  7  2 15 29 30.0040000  0  8G 4G 5G 7G 8G 9G16G30G24
   9384678.80747   5998278.95447  22402184.1134   22402186.2704
     -4378.1094      -3411.5144
  -1258336.13747   -943228.39346  22438926.0434   22438928.2814
      -653.0004       -508.8314
  15176424.05444  11787739.28743  25208654.7234   25208659.8094
     -5037.2034      -3925.0934
    737342.40446   1066314.48146  22802202.5044   22802205.2584
     -1946.2194      -1516.5344
   9340323.14747   7277572.81247  22891386.3324   22891389.0864
     -4327.4694      -3372.0544
   4960959.73544   3805973.47641  25938635.5204   25938642.3634
     -3232.7974      -2519.0624
  -1370683.35945  -1002381.75045  24918557.5904   24918560.7194
       553.0164        430.9214
   1110186.91747    865082.65147  21569038.6294   21569041.5354
     -1948.7504      -1518.5064
 98  7  2 15 29 45.0040000  0  8G 4G 5G 7G 8G 9G16G30G24
   9450426.37147   6049510.80847  22414695.4414   22414697.5164
     -4388.1254      -3419.3184
  -1248492.00647   -935557.63546  22440799.3554   22440801.6874
      -659.5004       -513.8964
  15252001.49644  11846630.71742  25223036.8324   25223042.1644
     -5039.7194      -3927.0544
    766629.53346   1089135.62346  22807775.6524   22807778.3244
     -1958.7344      -1526.2874
   9405308.42447   7328210.66747  22903752.5594   22903755.4184
     -4337.1724      -3379.6144
   5009532.36544   3843822.22642  25947879.0124   25947884.7304
     -3243.5004      -2527.4034
  -1378957.15445  -1008828.83245  24916983.4734   24916986.1564
       550.2344        428.7544
   1139501.09447    887924.86647  21574617.0984   21574619.8874
     -1959.7814      -1527.1024
 98  7  2 15 30  0.0040000  0  8G 4G 5G 7G 8G 9G16G30G24
   9516320.84847   6100857.14447  22427234.7624   22427236.8714
     -4397.7974      -3426.8554
  -1238548.81047   -927809.68746  22442691.6604   22442693.9804
      -666.2814       -519.1804
  15327617.26544  11905552.10942  25237426.4654   25237431.8794
     -5042.3914      -3929.1364
    796105.01346                  22813384.5904
     -1971.3594
   9470438.67647   7378961.48547  22916146.6524   22916149.1254
     -4346.8594      -3387.1634
   5058264.05244   3881795.00142  25957152.2934   25957157.1094
     -3254.0624      -2535.6334
  -1387189.66145  -1015243.76645  24915416.6454   24915419.8674
       547.4064        426.5504
   1168981.05647    910896.29546  21580226.7384   21580229.4224
     -1970.9224      -1535.7834
 98  7  2 15 30 15.0040000  0  8G 4G 5G 7G 8G 9G16G30G24
   9582361.18747   6152317.13647  22439801.6524   22439803.6214
     -4407.6094      -3434.5014
  -1228501.90247   -919980.92546  22444603.2934   22444605.5784
      -673.2974       -524.6474
  15403274.53044  11964505.74742  25251823.9884   25251829.7194
     -5045.2194      -3931.3394
    825771.62946                  22819029.8484
     -1984.2664
   9535715.10047   7429826.20647  22928568.0664   22928570.6564
     -4356.7034      -3394.8344
   5107156.18544   3919892.68842  25966456.1054   25966463.6214
     -3264.9224      -2544.0954
  -1395380.35945  -1021626.12345  24913858.0434   24913860.9734
       544.6564        424.4074
   1198630.03147    933999.36947  21585868.8554   21585871.6804
     -1982.3754      -1544.7084
 98  7  2 15 30 30.0040000  0  8G 4G 5G 7G 8G 9G16G30G24
   9648548.15347   6203891.38347  22452396.6374   22452398.4534
     -4417.4844      -3442.1964
  -1218354.67447   -912073.99246  22446534.4024   22446536.7234
      -679.8124       -529.7244
  15478970.11444  12023489.23842  25266227.1994   25266231.8284
     -5047.6414      -3933.2264
    855630.33446                  22824712.0204
     -1997.0004
   9601136.75947   7480804.09347  22941017.3164   22941020.0354
     -4366.3914      -3402.3824
   5156209.18544   3958115.83742  25975790.6914   25975795.8364
     -3275.6254      -2552.4354
  -1403532.71645  -1027978.59645  24912306.8244   24912311.3244
       542.1724        422.4724
   1228449.84847    957235.60647  21591543.3634   21591546.1874
     -1993.7344      -1553.5594
 98  7  2 15 30 45.0040000  0  8G 4G 5G 7G 8G 9G16G30G24
   9714884.89547   6255582.34047  22465020.1134   22465022.0004
     -4427.3914      -3449.9154
  -1208109.35547   -904090.62546  22448483.7934   22448486.2194
      -686.2034       -534.7044
  15554702.67544  12082501.57642  25280639.5744   25280643.1724
     -5050.0004      -3935.0654
    885682.65246     21859.22956  22830430.4654   22830433.0664
     -2009.9694      -1566.2094
   9666705.96747   7531896.95347  22953494.8794   22953497.6454
     -4376.1254      -3409.9684
   5205423.70744   3996464.81642  25985156.5434   25985162.7194
     -3286.3124      -2560.7634
  -1411646.17545  -1034300.76345  24910762.8244   24910766.0004
       539.6094        420.4754
   1258441.33047    980605.58847  21597250.5514   21597253.2704
     -2005.1094      -1562.4234
 98  7  2 15 31  0.0040000  0  8G 4G 5G 7G 8G 9G16G30G24
   9781368.99447   6307388.12047  22477671.6844   22477673.7814
     -4437.1564      -3457.5244
  -1197768.57047   -896032.86846  22450451.8164   22450454.3124
      -692.6724       -539.7444
  15630470.75843  12141541.58842  25295056.2074   25295061.0354
     -5052.4534      -3936.9764
    915929.39346     45428.10446  22836186.3554   22836188.9224
     -2022.9224      -1576.3034
   9732420.06647   7583102.72047  22965999.9574   22966002.6874
     -4385.7504      -3417.4684
   5254798.59244   4034938.81342  25994551.2544   25994559.4024
     -3297.0314      -2569.1154
  -1419720.20445  -1040592.20045  24909226.2854   24909229.5434
       536.8284        418.3084
   1288602.11047   1004107.50247  21602990.1914   21602993.0514
     -2016.3124      -1571.1534
 98  7  2 15 31 15.0040000  0  8G 4G 5G 7G 8G 9G16G30G24
   9848000.02647   6359308.39647  22490351.2624   22490353.3594
     -4447.0784      -3465.2564
  -1187328.09347   -887897.42646  22452438.6914   22452441.1994
      -699.5164       -545.0774
  15706276.59543  12200610.98942  25309482.8874   25309489.4024
     -5055.0474      -3938.9984
    946369.98846     69148.03846  22841978.8094   22841981.2814
     -2035.9064      -1586.4204
   9798277.79247   7634420.39947  22978532.2464   22978534.9414
     -4395.3284      -3424.9314
   5304334.98144   4073538.48741  26003977.9104   26003983.3124
     -3307.8444      -2577.5414
  -1427752.35745  -1046851.00445  24907697.5274   24907700.7034
       534.0474        416.1404
   1318930.94247   1027740.36147  21608761.5204   21608764.3324
     -2027.6094      -1579.9554
 98  7  2 15 31 30.0040000  0  8G 4G 5G 7G 8G 9G16G30G24
   9914780.50247   6411345.11647  22503059.2304   22503060.9884
     -4456.9694      -3472.9634
  -1176784.05847   -879681.29046  22454445.0044   22454447.2544
      -706.2814       -550.3494
  15782121.22543  12259710.63842  25323916.6994   25323922.6174
     -5057.5314      -3940.9334
    977006.01346     93020.25646  22847808.8794   22847811.4804
     -2048.8124      -1596.4774
   9864280.24447   7685850.85247  22991092.1454   22991094.7114
     -4404.9534      -3432.4314
   5354032.08244   4112263.51042  26013435.3484   26013441.4064
     -3318.3914      -2585.7594
  -1435740.55545  -1053075.57345  24906177.9574   24906180.8164
       531.0944        413.8394
   1349429.79947   1051505.71147  21614565.1294   21614567.8714
     -2038.8594      -1588.7224
 98  7  2 15 31 45.0040000  0  8G 4G 5G 7G 8G 9G16G30G24
   9981708.25447   6463496.59946  22515795.0594   22515796.9104
     -4466.7664      -3480.5974
  -1166140.66247   -871387.73146  22456470.4884   22456472.7154
      -712.8124       -555.4384
  15858002.10844  12318838.52942  25338355.9104   25338360.3874
     -5060.0004      -3942.8574
   1007832.40046    117040.80646  22853675.0904   22853677.9494
     -2061.4694      -1606.3394
   9930426.93647   7737393.70047  23003679.4734   23003682.0164
     -4414.6874      -3440.0164
   5403887.34544   4151111.75342  26022922.4574   26022928.9964
     -3328.9534      -2593.9894
  -1443684.35845  -1059265.52145  24904666.5044   24904669.3054
       528.0944        411.5024
   1380096.70947   1075402.00947  21620400.8634   21620403.6764
     -2050.1094      -1597.4884
 98  7  2 15 32  0.0040000  0  8G 4G 5G 7G 8G 9G16G30G24
  10048779.94347   6515760.24546  22528558.3094   22528560.2424
     -4476.1254      -3487.8904
  -1155403.83647   -863021.36846  22458513.5984   22458515.8364
      -718.7344       -560.0534
  15933918.31144  12377993.97242  25352801.8484   25352808.1764
     -5062.1254      -3944.5134
   1038847.89346    141208.71446  22859577.0824   22859579.9304
     -2073.8754      -1616.0064
   9996718.39747   7789049.35547  23016294.3634   23016296.9414
     -4424.1414      -3447.3824
   5453898.22444   4190081.28241  26032439.6604   26032447.6094
     -3339.1094      -2601.9034
  -1451585.87245  -1065422.53445  24903162.4344   24903165.9734
       525.4384        409.4324
   1410931.00847   1099428.73847  21626268.5204   21626271.4374
     -2061.0944      -1606.0474
 98  7  2 15 32 15.0040000  0  8G 4G 5G 7G 8G 9G16G30G24
  10115996.30947   6568136.62446  22541349.1374   22541351.0704
     -4486.0164      -3495.5974
  -1144574.27147   -854582.74446  22460574.3874   22460576.5784
      -725.0624       -564.9844
  16009867.57645  12437175.14643  25367254.5664   25367261.0704
     -5064.2814      -3946.1934
   1070051.85346    165523.47946  22865514.9734   22865517.8204
     -2086.5474      -1625.8814
  10063154.60547   7840817.80647  23028936.8554   23028939.3984
     -4433.9224      -3455.0044
   5504063.93444   4229171.41142  26041985.5354   26041991.0434
     -3349.6254      -2610.0974
  -1459443.83345  -1071545.60645  24901666.8324   24901670.2194
       522.3754        407.0454
   1441932.91247   1123586.07147  21632167.7154   21632170.5274
     -2072.3284      -1614.8014
 98  7  2 15 32 30.0040000  0  9G10G 4G 5G 7G 8G 9G16G30G24
     -2517.47853                  26038684.5824
       503.4224
  10183360.12647   6620627.90046  22554168.1844   22554170.2344
     -4495.7814      -3503.2064
  -1133651.95947   -846071.85146  22462652.7704   22462654.9494
      -731.1874       -569.7564
  16085845.68144  12496378.78643  25381713.8324   25381717.9694
     -5066.0314      -3947.5574
   1101444.73546    189985.45046  22871488.8634   22871491.8754
     -2099.0624      -1635.6334
  10129735.99347   7892699.38047  23041606.7774   23041609.6844
     -4443.5164      -3462.4804
   5554387.07944   4268384.21642  26051561.9344   26051566.0824
     -3360.0314      -2618.2064
  -1467256.67045  -1077633.50545  24900180.2854   24900183.4264
       519.3914        404.7204
   1473099.75147   1147871.92447  21638098.5984   21638101.5274
     -2083.1564      -1623.2394
 98  7  2 15 32 45.0040000  0  9G10G 4G 5G 7G 8G 9G16G30G24
    -10063.99143                  26037248.3484
       502.7974
  10250870.53947   6673233.40046  22567014.9654   22567017.1214
     -4505.4844      -3510.7674
  -1122636.20647   -837488.14646  22464749.0984   22464751.4534
      -737.6254       -574.7734
  16161849.64944  12555602.61043  25396176.1454   25396182.6954
     -5067.8444      -3948.9694
   1133023.37146    214592.16246  22877498.2624   22877501.1804
     -2111.3444      -1645.2034
  10196460.25047   7944692.27947  23054304.0904   23054306.9494
     -4453.0004      -3469.8704
   5604864.94944   4307717.62842  26061167.2154   26061172.9224
     -3370.3284      -2626.2304
  -1475024.09945  -1083686.04445  24898701.8094   24898704.5864
       516.2974        402.3094
   1504427.40047   1172283.08347  21644060.1134   21644062.8794
     -2093.8124      -1631.5424
 98  7  2 15 33  0.0040000  0  9G10G 4G 5G 7G 8G 9G16G30G24
    -17600.96443                  26035813.6134
       502.2194
  10318524.97047   6725951.12946  22579889.2234   22579891.3914
     -4514.9844      -3518.1704
  -1111521.27647   -828827.15546  22466864.3094   22466866.8404
      -744.2664       -579.9474
  16237882.49144  12614848.91843  25410644.5354   25410651.3324
     -5069.6874      -3950.4064
   1164786.44246    239342.59946  22883542.6214   22883545.6214
     -2123.6254      -1654.7734
  10263325.18647   7996794.79846  23067027.9734   23067031.0784
     -4462.2344      -3477.0664
   5655496.69544   4347170.92942  26070802.0124   26070809.2114
     -3380.4694      -2634.1314
  -1482745.32445  -1089702.54645  24897232.8014   24897235.8834
       513.3444        400.0084
   1535915.31947   1196819.12947  21650052.2074   21650055.0554
     -2104.5004      -1639.8704
 98  7  2 15 33 15.0040000  0  9G10G 4G 5G 7G 8G 9G16G30G24
    -25131.38943                  26034381.2234
       501.9844
  10386320.19647   6778778.56846  22592790.1844   22592792.3634
     -4524.2664      -3525.4024
  -1100307.84447   -820089.41746  22468998.1134   22469000.5624
      -750.7664       -585.0124
  16313939.66244  12674114.20742  25425117.7304   25425124.1294
     -5071.1094      -3951.5144
   1196732.30346    264235.46646  22889621.2934   22889624.2584
     -2135.7034      -1664.1844
  10330327.78847   8049004.58746  23079778.3094   23079781.3794
     -4471.3124      -3484.1404
   5706280.40444   4386742.67442  26080465.7704   26080472.8874
     -3390.5784      -2642.0094
  -1490424.65045  -1095686.40645  24895771.3554   24895774.1564
       510.7194        397.9634
   1567562.32847   1221479.14047  21656074.2934   21656077.1294
     -2115.0314      -1648.0764
 98  7  2 15 33 30.0040000  0  9G10G 4G 5G 7G 8G 9G16G30G24
    -32658.23042                  26032948.1054
       501.6414
  10454255.90047   6831715.46346  22605717.6764   22605720.1954
     -4533.8284      -3532.8534
  -1088997.22847   -811275.94546  22471150.4024   22471152.7584
      -757.2814       -590.0894
  16390017.82444  12733395.80843  25439595.4804   25439601.5864
     -5072.6564      -3952.7194
   1228859.70046    289269.79446  22895734.9574   22895738.2274
     -2147.9844      -1673.7544
  10397466.73547   8101320.61847  23092554.1294   23092556.8594
     -4480.5944      -3491.3724
   5757216.35744   4426432.96042  26090158.5274   26090164.0004
     -3400.8754      -2650.0324
  -1498065.32545  -1101640.17145  24894317.1684   24894320.1564
       508.0164        395.8564
   1599369.45947   1246263.91947  21662127.0904   21662129.9144
     -2125.9374      -1656.5754
 98  7  2 15 33 45.0040000  0  9G10G 4G 5G 7G 8G 9G16G30G24
    -40183.61343     -1172.48451  26031516.2464   26031521.6484
       501.7664        390.9864
  10522332.53147   6884762.17846  22618672.3014   22618674.7504
     -4543.0164      -3540.0124
  -1077591.43147   -802388.31146  22473320.7464   22473323.2074
      -763.4534       -594.8994
  16466118.92044  12792695.32142  25454076.0594   25454080.3954
     -5074.0784      -3953.8274
   1261170.01646    314446.65746  22901883.4654   22901886.4414
     -2159.9374      -1683.0684
  10464744.67047   8153744.95546  23105356.7464   23105359.7234
     -4489.6724      -3498.4464
   5808305.83544   4466242.91042  26099880.7774   26099885.6524
     -3411.0314      -2657.9464
  -1505665.70245  -1107562.51145  24892871.3794   24892874.4494
       505.4384        393.8474
   1631337.85747   1271174.36147  21668210.3404   21668213.0124
     -2136.5004      -1664.8054
 98  7  2 15 34  0.0040000  0  9G10G 4G 5G 7G 8G 9G16G30G24
    -47709.20642     -7036.46041  26030083.4024   26030090.4264
       501.5004        390.7794
  10590546.00747   6937915.52146  22631652.9574   22631655.4534
     -4552.2344      -3547.1964
  -1066092.53947   -793428.13246  22475508.8634   22475511.5124
      -769.9064       -599.9274
  16542240.03845  12852010.44442  25468562.5904   25468568.6724
     -5075.5164      -3954.9474
   1293659.25046    339762.92846  22908066.3874   22908069.3634
     -2172.0474      -1692.5044
  10532155.64247   8206272.95646  23118184.7384   23118187.8794
     -4498.5474      -3505.3614
   5859548.00644   4506171.86342  26109631.8634   26109638.1334
     -3421.3594      -2665.9944
  -1513228.69045  -1113455.72545  24891431.9414   24891434.4494
       502.8284        391.8144
   1663464.26247   1296207.92947  21674323.8714   21674326.6254
     -2147.1564      -1673.1094
 98  7  2 15 34 15.0040000  0  8G 4G 5G 7G 8G 9G16G30G24
  10658898.54047   6991177.22347  22644660.3404   22644662.7774
     -4561.6414      -3554.5254
  -1054493.10247   -784389.60746  22477716.1374   22477718.7274
      -776.9064       -605.3814
  16618382.77445  12911342.35343  25483051.7854   25483056.0164
     -5076.9844      -3956.0924
   1326330.31046    365220.88746  22914283.0594   22914285.5434
     -2184.2814      -1702.0374
  10599699.62247   8258904.60346  23131037.8404   23131040.7704
     -4507.5164      -3512.3504
   5910945.43644   4546221.81042  26119412.1454   26119419.0624
     -3431.8284      -2674.1524
  -1520749.96545  -1119316.44445  24890000.8794   24890004.4654
       499.8134        389.4644
   1695750.52047   1321366.05747  21680467.7624   21680470.6334
     -2157.8914      -1681.4734
 98  7  2 15 34 30.0040000  0  8G 4G 5G 7G 8G 9G16G30G24
  10727392.39747   7044549.04346  22657694.4264   22657696.8404
     -4571.0164      -3561.8304
  -1042787.80447   -775268.59446  22479943.6914   22479946.0824
      -783.9224       -610.8484
  16694548.19345  12970692.00043  25497545.7704   25497550.5394
     -5078.6094      -3957.3584
   1359184.12746    390821.24946  22920534.9884   22920537.6134
     -2196.3914      -1711.4734
  10667378.09647   8311641.05446  23143916.8484   23143919.8834
     -4516.4224      -3519.2904
   5962500.28144   4586394.39342  26129223.3874   26129226.0004
     -3442.2974      -2682.3094
  -1528225.00045  -1125141.11245  24888578.1764   24888581.3874
       496.7344        387.0664
   1728197.47547   1346649.39947  21686642.2704   21686645.1994
     -2168.5624      -1689.7894
 98  7  2 15 34 45.0040000  0  9G10G 4G 5G 7G 8G 9G16G30G24
     -7015.12742                  26025791.5204
       501.0004
  10796025.25147   7098029.17646  22670754.5434   22670757.0044
     -4580.1414      -3568.9414
  -1030977.39547   -766065.67546  22482191.2074   22482193.4924
      -790.9374       -616.3154
  16770739.45245  13030061.74143  25512044.7854   25512050.1524
     -5080.3914      -3958.7464
   1392219.00146    416562.70146  22926821.3244   22926823.9374
     -2208.3594      -1720.8004
  10735188.57247   8364480.35546  23156821.1054   23156824.0704
     -4525.0944      -3526.0474
   6014210.93944   4626688.37142  26139063.3014   26139068.2344
     -3452.5784      -2690.3214
  -1535655.67145  -1130931.23345  24887164.3404   24887167.8554
       493.9224        384.8744
   1760804.30647   1372057.32347  21692847.2854   21692849.8634
     -2179.2034      -1698.0804
 98  7  2 15 35  0.0050000  0  9G10G 4G 5G 7G 8G 9G16G30G24
    -14535.71042                  26024360.5244
       501.4064
  10864795.42147   7151616.30646  22683840.9314   22683843.3924
     -4588.8444      -3575.7224
  -1019064.61847   -756782.99246  22484458.1104   22484460.5604
      -797.5784       -621.4894
  16846959.44345  13089453.89743  25526548.9854   25526553.4974
     -5081.8444      -3959.8784
   1425431.98346    442442.94446  22933141.3214   22933143.9234
     -2220.0314      -1729.8944
  10803129.85047   8417421.58947  23169749.8684   23169752.7044
     -4533.4694      -3532.5734
   6066076.24544   4667102.90941  26148932.8294   26148938.2314
     -3462.5944      -2698.1254
  -1543047.99345  -1136691.46245  24885757.7984   24885760.4704
       491.3914        382.9024
   1793569.89847   1397588.95447  21699082.1654   21699084.9314
     -2189.5474      -1706.1404
 98  7  2 15 35 15.0050000  0  9G10G 4G 5G 7G 8G 9G16G30G24
    -22055.74343                  26022929.9314
       500.8754
  10933697.54147   7205306.26146  22696952.8534   22696955.3134
     -4598.4534      -3583.2104
  -1007048.80247   -747420.01346  22486744.4934   22486746.9664
      -804.8754       -627.1754
  16923200.82144  13148862.70243  25541056.8374   25541061.9814
     -5084.0164      -3961.5714
   1458824.63946    468463.18346  22939495.9464   22939498.6534
     -2232.6564      -1739.7324
  10871198.87347   8470462.35246  23182702.8134   23182705.6384
     -4542.8284      -3539.8664
   6118093.78543   4707636.04041  26158831.4544   26158838.4074
     -3473.4844      -2706.6114
  -1550395.82245  -1142417.01645  24884359.1104   24884361.4544
       487.9224        380.1994
   1826494.49047   1423244.48447  21705347.6574   21705350.4814
     -2200.7814      -1714.8944
 98  7  2 15 35 30.0050000  0  8G10G 4G 5G 7G 8G 9G30G24
    -29572.60943                  26021498.9544
       501.0314
  11002738.12647   7259104.10346  22710090.8604   22710093.1224
     -4607.2814      -3590.0894
   -994929.30447   -737976.24346  22489050.8534   22489053.3494
      -811.4064       -632.2654
  16999470.05344  13208293.20243  25555570.1734   25555575.2944
     -5085.6094      -3962.8124
   1492399.83746    494625.66646  22945885.0484   22945887.8954
     -2244.2974      -1748.8034
  10939403.28747   8523608.62147  23195681.6424   23195684.6654
     -4551.4224      -3546.5624
  -1557695.79045  -1148105.28145  24882969.6654   24882972.6064
       485.0314        377.9464
   1859582.18447   1449027.10747  21711643.9784   21711646.7674
     -2211.2504      -1723.0524
 98  7  2 15 35 45.0050000  0  8G10G 4G 5G 7G 8G 9G30G24
    -37087.42743                  26020069.2824
       501.1094
  11071914.19847   7313007.52346  22723254.6424   22723256.8684
     -4616.0004      -3596.8834
   -982709.72047   -728454.48846  22491376.0714   22491378.4974
      -817.7194       -637.1834
  17075767.96944  13267746.09343  25570089.1344   25570095.0634
     -5087.2814      -3964.1154
   1526152.07146    520926.09346  22952307.7514   22952310.5404
     -2255.8284      -1757.7884
  11007739.49447   8576857.58446  23208685.6184   23208688.6184
     -4559.9224      -3553.1864
  -1564947.44445  -1153755.89345  24881590.0564   24881592.4934
       482.0004        375.5844
   1892830.24647   1474934.68847  21717970.8134   21717973.6264
     -2221.6254      -1731.1364
 98  7  2 15 36  0.0050000  0  8G10G 4G 5G 7G 8G 9G30G24
    -44599.38343     -4681.91352  26018639.7904   26018645.8494
       500.4694        389.9764
  11141222.50347   7367013.98246  22736443.3994   22736445.6034
     -4625.0784      -3603.9574
   -970391.80347   -718856.11046  22493720.2514   22493722.5484
      -824.6414       -642.5774
  17152092.21744  13327219.47443  25584612.9544   25584618.6384
     -5089.1724      -3965.5884
   1560078.01446    547361.88946  22958763.9784   22958766.7314
     -2267.6254      -1766.9814
  11076204.57247   8630206.96546  23221714.2204   23221717.1734
     -4568.6874      -3560.0164
  -1572151.82245  -1159369.66045  24880219.1734   24880221.9384
       478.6414        372.9674
   1926235.46247   1500964.72547  21724327.5244   21724330.1854
     -2232.3444      -1739.4894
 98  7  2 15 36 15.0050000  0  8G10G 4G 5G 7G 8G 9G30G24
    -52100.12443    -10526.51542  26017211.8454   26017217.7744
       499.6724        389.3554
  11210667.58747   7421127.02246  22749658.5954   22749660.8334
     -4634.2664      -3611.1164
   -957969.93447   -709176.73146  22496083.9934   22496086.3024
      -831.5944       -647.9954
  17228444.82044  13386714.94543  25599143.3604   25599149.3254
     -5091.2034      -3967.1714
   1594182.87646    573937.09146  22965253.8844   22965256.7554
     -2279.7344      -1776.4164
  11144803.07447   8683660.31146  23234768.0954   23234771.0604
     -4577.8444      -3567.1514
  -1579306.26145  -1164944.53045  24878857.6964   24878860.3334
       475.2814        370.3494
   1959802.31747   1527120.72147  21730715.2744   21730717.9704
     -2243.2814      -1748.0114
 98  7  2 15 36 30.0050000  0  8G10G 4G 5G 7G 8G 9G30G24
    -59590.54944    -16363.13442  26015786.5954   26015794.5794
       499.0944        388.9044
  11280250.08447   7475347.13946  22762899.6184   22762901.8924
     -4643.3594      -3618.2024
   -945446.09347   -699417.88847  22498467.3214   22498469.7354
      -838.2034       -653.1454
  17304828.57344  13446234.71542  25613678.4934   25613684.1534
     -5093.2664      -3968.7784
   1628470.06346    600654.37246  22971778.4464   22971781.5754
     -2291.8594      -1785.8644
  11213539.56347   8737221.17846  23247848.1424   23247851.2824
     -4586.9694      -3574.2614
  -1586412.57445  -1170481.86845  24877505.3604   24877507.8454
       472.3134        368.0364
   1993533.77847   1553404.97647  21737134.0324   21737136.7164
     -2254.2664      -1756.5714
 98  7  2 15 36 45.0050000  0  8G10G 4G 5G 7G 8G 9G30G24
    -67068.15344    -22189.75942  26014364.1964   26014370.4074
       498.0944        388.1254
  11349971.15247   7529675.22546  22776167.1034   22776169.4464
     -4652.5474      -3625.3614
   -932821.39947   -689580.46347  22500869.5714   22500871.8684
      -844.8594       -658.3324
  17381246.71044  13505781.19542  25628220.1344   25628225.2904
     -5095.5314      -3970.5444
   1662942.43046    627515.94546  22978338.1814   22978341.1574
     -2304.2344      -1795.5074
  11282415.15747   8790890.44146  23260954.6424   23260957.5954
     -4596.2194      -3581.4694
  -1593473.00345  -1175983.47045  24876161.8374   24876164.9664
       469.2814        365.6744
   2027432.87047   1579819.85547  21743584.8454   21743587.4934
     -2265.4224      -1765.2644
 98  7  2 15 37  0.0050000  0  8G10G 4G 5G 7G 8G 9G30G24
    -74533.70544    -28006.98343  26012942.7674   26012948.2284
       497.0784        387.3344
  11419825.05347   7584106.82946  22789459.8924   22789462.0014
     -4661.4844      -3632.3254
   -920101.31847   -679668.71147  22503290.3764   22503292.5094
      -851.2504       -663.3124
  17457692.65043  13565349.43942  25642767.2594   25642771.2554
     -5097.3594      -3971.9684
   1697595.53746    654518.35246  22984932.7354   22984935.4544
     -2316.3594      -1804.9554
  11351425.11647   8844664.40146  23274086.9784   23274089.7434
     -4605.3124      -3588.5554
  -1600492.62545  -1181453.28745  24874825.7824   24874828.8884
       466.4844        363.4944
   2061495.04847   1606361.81347  21750066.5874   21750069.5284
     -2276.4064      -1773.8234
 98  7  2 15 37 15.0050000  0  8G10G 4G 5G 7G 8G 9G30G24
    -81983.23444    -33811.72443  26011525.5244   26011533.0054
       496.1564        386.6154
  11489813.56947   7638643.31946  22802778.0954   22802780.3214
     -4670.2504      -3639.1564
   -907287.41647   -669683.84947  22505728.4384   22505730.7244
      -857.1874       -667.9384
  17534164.41243  13624937.72042  25657319.0634   25657325.6384
     -5098.8124      -3973.1014
   1732429.75946    681661.89046  22991561.2674   22991564.3024
     -2328.1414      -1814.1364
  11420571.17947   8898544.42246  23287244.9624   23287247.9274
     -4614.0624      -3595.3734
  -1607469.14946  -1186889.50545  24873498.2044   24873501.6854
       463.8284        361.4254
   2095721.89447   1633032.08547  21756579.7204   21756582.4744
     -2287.1094      -1782.1634
 98  7  2 15 37 30.0050000  0  8G10G 4G 5G 7G 8G 9G30G24
    -89416.13244    -39603.49143  26010110.7824   26010117.9934
       494.7504        385.5194
  11559934.34247   7693282.87346  22816121.9154   22816124.1884
     -4679.3124      -3646.2184
   -894383.96447   -659629.21547  22508184.0244   22508186.3924
      -863.4224       -672.7964
  17610658.29143  13684543.30042  25671876.3214   25671883.3454
     -5100.5004      -3974.4164
   1767441.49546    708943.75346  22998223.8294   22998226.8644
     -2340.2664      -1823.5844
  11489848.32447   8952526.57546  23300427.6884   23300430.8294
     -4623.0314      -3602.3624
  -1614406.84746  -1192295.48945  24872178.3684   24872181.7904
       461.0634        359.2694
   2130109.18247   1659827.37447  21763123.5324   21763126.3334
     -2298.0164      -1790.6624
 98  7  2 15 37 45.0050000  0  8G10G 4G 5G 7G 8G 9G30G24
    -96828.91645    -45379.56443  26008700.1104   26008707.4504
       493.4844        384.5334
  11630188.82847   7748026.61547  22829490.7284   22829493.0364
     -4688.1094      -3653.0724
   -881389.09147   -649503.33247  22510656.7904   22510659.0174
      -869.4224       -677.4724
  17687175.68843  13744167.15842  25686437.2284   25686444.1574
     -5101.9534      -3975.5484
   1802633.10946    736365.78646  23004920.6884   23004923.6424
     -2352.2194      -1832.8984
  11559257.47447   9006611.59646  23313636.2594   23313639.5524
     -4631.7034      -3609.1194
  -1621304.62046  -1197670.34545  24870865.5564   24870868.5204
       458.4694        357.2484
   2164657.57847   1686748.20447  21769697.7744   21769700.6224
     -2308.6414      -1798.9414
 98  7  2 15 38  0.0050000  0  8G10G 4G 5G 7G 8G 9G30G24
   -104219.10845    -51138.09043  26007294.2434   26007302.3334
       491.8914        383.2914
  11700578.29647   7802875.54047  22842885.7204   22842887.8064
     -4697.1564      -3660.1224
   -868299.86147   -639303.93347  22513147.6184   22513149.8104
      -875.8444       -682.4764
  17763716.92543  13803809.59042  25701001.9234   25701006.7634
     -5103.5164      -3976.7654
   1838010.83046    763932.82446  23011652.8294   23011655.5604
     -2364.8594      -1842.7484
  11628801.33247   9060801.58046  23326870.1264   23326873.4074
     -4640.8284      -3616.2304
  -1628159.84746  -1203012.05645  24869561.0174   24869564.2864
       455.5944        355.0084
   2199368.79547   1713795.90847  21776303.2824   21776306.2244
     -2319.5474      -1807.4394
 98  7  2 15 38 15.0050000  0  8G10G 4G 5G 7G 8G 9G30G24
   -111590.16145    -56881.67243  26005891.2904   26005898.6064
       491.0784        382.6584
  11771099.31847   7857826.97347  22856305.3134   22856307.5524
     -4705.5474      -3666.6604
   -855117.61247   -629032.04847  22515656.2674   22515658.5054
      -881.6564       -687.0054
  17840277.40043  13863467.09942  25715570.8374   25715576.0404
     -5104.5314      -3977.5574
   1873574.05846    791644.42046  23018420.2284   23018423.0524
     -2376.8594      -1852.0984
  11698477.90347   9115094.98846  23340129.2124   23340132.4234
     -4649.3124      -3622.8414
  -1634976.72945  -1208323.88645  24868264.1424   24868267.5524
       453.4224        353.3164
   2234240.32047   1740968.52547  21782938.9934   21782941.8174
     -2329.9224      -1815.5244
 98  7  2 15 38 30.0050000  0  8G10G 4G 5G 7G 8G 9G30G24
   -118948.63645    -62615.46943  26004490.9544   26004498.7514
       490.0314        381.8434
  11841748.63847   7912878.37847  22869749.2354   22869751.4624
     -4714.3444      -3673.5154
   -841846.35647   -618690.81047  22518181.6034   22518183.7824
      -887.8754       -691.8514
  17916858.70643  13923140.73242  25730144.2044   25730151.2864
     -5106.2814      -3978.9204
   1909320.75246    819498.97646  23025222.7204   23025225.6614
     -2389.3594      -1861.8384
  11768285.16747   9169490.22646  23353412.9544   23353415.9894
     -4658.2664      -3629.8174
  -1641757.56145  -1213607.62345  24866973.3844   24866976.3024
       450.6884        351.1854
   2269271.40947   1768265.48047  21789605.2204   21789607.6924
     -2340.8754      -1824.0584
 98  7  2 15 38 45.0050000  0  8G10G 4G 5G 7G 8G 9G30G24
   -126292.47945    -68337.86443  26003093.4544   26003100.0994
       489.0784        381.1004
  11912527.64047   7968030.83547  22883218.3134   22883220.3534
     -4722.8754      -3680.1624
   -828482.26447   -608277.23347  22520724.5634   22520726.8604
      -894.1094       -696.7094
  17993463.36943  13982832.63242  25744722.2904   25744729.5134
     -5107.6724      -3980.0044
   1945253.17846    847498.25946  23032060.5174   23032063.3884
     -2401.6564      -1871.4204
  11838222.88547   9223987.11746  23366721.8134   23366724.7434
     -4666.8124      -3636.4774
  -1648497.95545  -1218859.84945  24865690.7284   24865693.3994
       447.9384        349.0424
   2304463.40747   1795687.81447  21796302.1424   21796304.7554
     -2351.3754      -1832.2404
 98  7  2 15 39  0.0050000  0  8G10G 4G 5G 7G 8G 9G30G24
   -133623.10245    -74049.91343  26001698.6494   26001704.7314
       488.2974        380.4914
  11983433.18747   8023281.89746  22896711.0174   22896713.3134
     -4731.2664      -3686.7004
   -815024.63547   -597790.76447  22523285.5014   22523287.9034
      -900.3284       -701.5544
  18070086.55743  14042538.92742  25759302.6104   25759308.0014
     -5108.7814      -3980.8694
   1981368.01046    875639.67646  23038932.8374   23038936.0134
     -2413.7034      -1880.8084
  11908288.43847   9278583.62146  23380054.5324   23380057.6144
     -4675.3124      -3643.1014
  -1655195.68445  -1224078.82745  24864416.2044   24864419.0054
       445.0474        346.7904
   2339809.90447   1823230.54147  21803028.5014   21803031.2314
     -2361.5474      -1840.1664
 98  7  2 15 39 15.0050000  0  8G10G 4G 5G 7G 8G 9G30G24
   -140942.21144    -79753.06143  26000305.0634   26000311.6144
       487.5314        379.8944
  12054466.32547   8078632.38146  22910228.2204   22910230.4584
     -4739.8754      -3693.4094
   -801471.82547   -587230.13447  22525864.6264   22525866.9814
      -906.8124       -706.6074
  18146728.12643  14102259.53042  25773887.2124   25773892.6144
     -5110.1724      -3981.9524
   2017663.25746    903921.67246  23045839.7744   23045842.8684
     -2425.7664      -1890.2074
  11978481.94047   9333279.82446  23393412.0014   23393415.2354
     -4683.8754      -3649.7734
  -1661848.95145  -1229263.15545  24863150.0094   24863153.1614
       441.9534        344.3794
   2375309.80247   1850892.79747  21809783.7284   21809786.4814
     -2371.8444      -1848.1904
 98  7  2 15 39 30.0050000  0  8G10G 4G 5G 7G 8G 9G30G24
   -148251.54044    -85448.53743  25998913.9384   25998919.8214
       487.1254        379.5784
  12125627.95047   8134082.98746  22923769.9854   22923772.2004
     -4748.2504      -3699.9354
   -787820.19547   -576592.50247  22528462.5564   22528464.7824
      -913.3594       -711.7094
  18223391.33343  14161997.09142  25788475.3454   25788481.6494
     -5111.5164      -3982.9994
   2054138.64646    932344.04946  23052780.7354   23052783.8174
     -2437.6094      -1899.4364
  12048803.80646   9388076.05546  23406793.8214   23406797.1384
     -4692.3594      -3656.3844
  -1668455.21345  -1234410.87245  24861892.6264   24861896.0244
       438.9844        342.0664
   2410964.19347   1878675.44047  21816568.2284   21816571.0874
     -2382.0474      -1856.1404
 98  7  2 15 39 45.0050000  0  8G10G 4G 5G 7G 8G 9G30G24
   -155558.22544    -91141.94842  25997523.8924   25997531.2314
       487.0004        379.4814
  12196911.67547   8189628.73346  22937334.6344   22937336.9894
     -4756.3444      -3706.2424
   -774071.89647   -565879.53747  22531078.7514   22531081.3534
      -919.8594       -716.7744
  18300072.62843  14221748.66442  25803068.0484   25803073.3214
     -5112.8124      -3984.0104
   2090790.27746    960903.75046  23059755.3134   23059758.1614
     -2449.3754      -1908.6044
  12119252.14846   9442970.82946  23420199.7434   23420202.9424
     -4700.8754      -3663.0194
  -1675019.21645  -1239525.63145  24860643.8924   24860646.8334
       436.0634        339.7894
   2446769.92047   1906576.00947  21823382.1264   21823385.1494
     -2392.2344      -1864.0794
 98  7  2 15 40  0.0050000  0  8G10G 4G 5G 7G 8G 9G30G24
   -162861.85744    -96833.02943  25996134.1264   25996139.9384
       486.6254        379.1884
  12268317.95747   8245269.97846  22950922.8844   22950925.3454
     -4764.7194      -3712.7684
   -760224.51547   -555089.37447  22533713.6884   22533716.0324
      -926.7344       -722.1314
  18376775.56743  14281517.10842  25817663.6264   25817669.8604
     -5114.4224      -3985.2644
   2127618.87646    989601.35246  23066763.0954   23066765.9544
     -2461.2664      -1917.8694
  12189829.48846   9497966.13046  23433630.2824   23433633.6924
     -4709.6094      -3669.8254
  -1681536.27645  -1244603.85245  24859403.8764   24859406.1034
       432.7034        337.1714
   2482731.10347   1934597.71247  21830225.3294   21830228.1424
     -2402.8284      -1872.3344
 98  7  2 15 40 15.0050000  0  8G10G 4G 5G 7G 8G 9G30G24
   -170159.47444   -102519.36543  25994744.6964   25994752.1534
       486.2974        378.9334
  12339851.18047   8301010.13846  22964535.3454   22964537.4894
     -4773.1564      -3719.3434
   -746272.45547   -544217.64247  22536368.9464   22536371.1964
      -933.6254       -727.5004
  18453503.09743  14341304.73742  25832264.5244   25832268.5914
     -5116.0164      -3986.5064
   2164623.25246   1018435.92246  23073805.2044   23073808.2744
     -2472.7034      -1926.7824
  12260536.59546   9553062.54046  23447085.2904   23447088.5244
     -4718.0784      -3676.4254
  -1688002.48545  -1249642.42445  24858173.1734   24858175.8804
       429.4064        334.6024
   2518851.58547   1962743.54347  21837098.7284   21837101.5634
     -2413.3754      -1880.5524
 98  7  2 15 40 30.0050000  0  8G10G 4G 5G 7G 8G 9G30G24
   -177452.09044   -108201.84943  25993356.9854   25993364.7244
       485.7664        378.5194
  12411512.22547   8356849.90346  22978171.8294   22978174.0094
     -4781.9224      -3726.1734
   -732215.95047   -533264.51647  22539043.8214   22539046.2474
      -940.8284       -733.1134
  18530256.63843  14401112.59842  25846870.3604   25846878.3804
     -5118.0624      -3988.1014
   2201797.34446   1047402.74246  23080879.3684   23080882.3684
     -2484.1564      -1935.7064
  12331369.94046   9608257.31746  23460564.5094   23460567.7554
     -4726.6414      -3683.0974
  -1694419.08245  -1254642.33445  24856952.5324   24856955.7784
       425.8914        331.8634
   2555129.62947   1991012.14647  21844002.2674   21844005.0914
     -2423.9694      -1888.8074
 98  7  2 15 40 45.0050000  0  8G10G 4G 5G 7G 8G 9G30G24
   -184736.88643   -113878.24342  25991970.5244   25991975.5054
       485.5314        378.3364
  12483303.23747   8412790.94046  22991833.1424   22991835.4274
     -4790.1724      -3732.6014
   -718052.31547   -522227.91747  22541738.9464   22541741.4544
      -947.6724       -738.4464
  18607036.94743  14460941.30942  25861481.6814   25861486.8494
     -5119.2664      -3989.0384
   2239142.26446   1076502.66846  23087985.6654   23087988.5134
     -2495.1724      -1944.2904
  12402328.68846   9663549.81346  23474067.4154   23474070.7084
     -4734.4844      -3689.2094
  -1700784.03145  -1259602.02345  24855740.7824   24855743.8414
       422.7974        329.4524
   2591562.86147   2019401.68047  21850935.3214   21850938.3564
     -2433.7504      -1896.4294
 98  7  2 15 41  0.0050000  0  8G10G 4G 5G 7G 8G 9G30G24
   -192017.71443   -119551.47842  25990584.9234   25990591.2634
       485.1564        378.0444
  12555217.15347   8468827.74546  23005518.2594   23005520.4854
     -4798.4374      -3739.0424
   -703786.25747   -511111.50747  22544453.8374   22544456.1694
      -954.5314       -743.7914
  18683834.58743  14520783.59842  25876095.0244   25876101.1064
     -5120.5004      -3990.0004
   2276652.94246   1105731.76346  23095123.8604   23095126.3334
     -2506.3124      -1952.9714
  12473404.67946   9718933.66946  23487592.8134   23487596.1774
     -4742.3914      -3695.3694
  -1707103.16445  -1264526.00545  24854538.9074   24854541.7904
       419.6884        327.0294
   2628142.64247   2047905.40947  21857896.2354   21857899.1424
     -2443.6874      -1904.1724
 98  7  2 15 41 15.0050000  0  8G10G 4G 5G 7G 8G 9G30G24
   -199290.16843   -125218.23342  25989201.2824   25989210.3924
       484.4224        377.4724
  12627258.06347   8524963.50646  23019226.9704   23019229.0324
     -4807.0624      -3745.7634
   -689415.58147   -499913.57947  22547188.1654   22547190.4384
      -961.6414       -749.3304
  18760654.03143  14580642.85242  25890713.1184   25890720.4114
     -5122.1724      -3991.3034
   2314333.17546   1135092.97046  23102294.2824   23102296.9894
     -2517.7664      -1961.8954
  12544601.63846   9774411.78246  23501141.1884   23501144.4584
     -4750.5784      -3701.7494
  -1713372.90445  -1269411.48745  24853345.0324   24853347.5174
       416.2034        324.3144
   2664876.27147   2076529.01147  21864886.1574   21864889.0634
     -2454.1874      -1912.3544
 98  7  2 15 41 30.0050000  0  8G10G 4G 5G 7G 8G 9G30G24
   -206553.57743   -130877.97842  25987819.1184   25987825.9894
       483.7664        376.9604
  12699423.56247   8581196.34946  23032959.6654   23032961.9384
     -4815.2504      -3752.1434
   -674942.26747   -488635.67047  22549942.3214   22549944.6184
      -968.4224       -754.6144
  18837494.43143  14640518.37842  25905335.4384   25905341.9544
     -5123.4694      -3992.3134
   2352182.16446   1164585.68046  23109496.6964   23109499.4744
     -2529.0784      -1970.7104
  12615915.76446   9829981.19446  23514711.9934   23514715.3454
     -4758.2664      -3707.7394
  -1719595.19545  -1274260.00545  24852160.9384   24852163.5284
       413.1724        321.9524
   2701763.28847   2105272.14747  21871905.8684   21871908.6924
     -2464.3594      -1920.2804
 98  7  2 15 41 45.0050000  0  8G10G 4G 5G 7G 8G 9G30G24
   -213807.34143   -136530.14742  25986438.3844   25986445.2164
       483.3914        376.6684
  12771709.82347   8637523.29646  23046715.2514   23046717.7244
     -4822.9534      -3758.1454
   -660368.18147   -477279.23847  22552715.7284   22552718.0834
      -974.7344       -759.5334
  18914353.08743  14700408.22742  25919961.2354   25919967.7744
     -5124.3754      -3993.0194
   2390201.88346   1194211.42546  23116731.7594   23116734.6774
     -2540.2504      -1979.4164
  12687344.89546   9885640.22746  23528304.5954   23528307.9814
     -4765.6254      -3713.4744
  -1725773.91846  -1279074.58345  24850985.2594   24850987.7204
       410.7034        320.0284
   2738801.56647   2134133.14647  21878953.9154   21878956.8804
     -2474.0474      -1927.8294
 98  7  2 15 42  0.0050000  0  8G10G 4G 5G 7G 8G 9G30G24
   -221049.68943   -142173.50642  25985060.2354   25985064.1264
       482.0944        375.6574
  12844115.88047   8693943.58846  23060493.6814   23060495.9784
     -4831.3914      -3764.7204
   -645696.36047   -465846.64747  22555507.4464   22555509.7554
      -981.6874       -764.9514
  18991229.94543  14760312.21242  25934591.3844   25934596.9974
     -5126.0944      -3994.3594
   2428393.75946   1223971.32046  23123999.1264   23124001.9154
     -2552.1724      -1988.7054
  12758887.49946   9941387.67646  23541918.6344   23541922.0324
     -4773.5784      -3719.6714
  -1731912.05646  -1283857.52045  24849817.6034   24849820.7554
       407.5164        317.5454
   2775987.60147   2163109.27647  21886030.2674   21886033.0794
     -2484.2194      -1935.7554
 98  7  2 15 42 15.0050000  0  8G10G 4G 5G 7G 8G 9G30G24
   -228273.36543   -147802.21942  25983685.7984   25983694.1344
       481.0164        374.8174
  12916648.19047   8750462.25646  23074296.2434   23074298.6454
     -4839.6564      -3771.1614
   -630919.96947   -454332.57447  22558319.6494   22558321.9464
      -988.5624       -770.3084
  19068131.70043  14820235.58042  25949225.4314   25949231.6304
     -5127.5784      -3995.5154
   2466763.92946   1253870.14346  23131300.9314   23131303.6384
     -2564.0004      -1997.9224
  12830548.12046   9997227.09146  23555555.3994   23555558.5994
     -4781.2504      -3725.6494
  -1738002.88446  -1288603.61145  24848658.5094   24848661.1574
       404.5004        315.1954
   2813322.80947   2192201.64747  21893134.5954   21893137.6304
     -2493.9224      -1943.3164
 98  7  2 15 42 30.0050000  0  8G10G 4G 5G 7G 8G 9G30G24
   -235483.10543   -153420.10842  25982313.5954   25982320.6424
       480.2194        374.1964
  12989302.27947   8807075.82146  23088121.6964   23088124.1454
     -4847.5624      -3777.3214
   -616042.90147   -442740.05647  22561150.7044   22561153.0014
      -995.0624       -775.3734
  19145056.69543  14880177.01741  25963862.9854   25963869.5134
     -5129.1254      -3996.7214
   2505312.85946   1283908.25546  23138636.4704   23138639.0134
     -2576.0004      -2007.2734
  12902324.53646  10053156.72846  23569213.8994   23569217.0754
     -4789.0314      -3731.7134
  -1744049.37546  -1293315.13545  24847507.9384   24847510.6344
       401.7034        313.0154
   2850802.84647   2221406.86747  21900267.0404   21900270.0174
     -2503.4694      -1950.7554
 98  7  2 15 42 45.0050000  0  8G10G 4G 5G 7G 8G 9G30G24
   -242676.25843   -159025.08342  25980945.0014   25980953.1384
       479.0004        373.2474
  13062078.09047   8863784.23146  23101970.6574   23101973.0714
     -4855.6724      -3783.6404
   -601063.85547   -431068.06647  22564001.0954   22564003.3334
     -1001.9694       -780.7554
  19222008.51244  14940139.46842  25978506.8374   25978514.6104
     -5130.9224      -3998.1214
   2544050.19746   1314093.18646  23146008.0794   23146011.0794
     -2588.8444      -2017.2814
  12974224.06946  10109182.30246  23582895.8924   23582899.1264
     -4797.4534      -3738.2754
  -1750049.62046  -1297990.63645  24846365.8844   24846369.0014
       398.5004        310.5194
   2888431.03247   2250727.53547  21907427.4704   21907430.4464
     -2513.4844      -1958.5594
 98  7  2 15 43  0.0050000  0  8G10G 4G 5G 7G 8G 9G30G24
   -249853.25543   -164617.44742  25979578.4784   25979585.3954
       477.9384        372.4194
  13134970.30347   8920583.34446  23115841.3844   23115843.5284
     -4863.1874      -3789.4974
   -585984.77847   -419318.13747  22566870.6344   22566872.7674
     -1008.4844       -785.8324
  19298982.65844  15000119.27142  25993154.3294   25993161.9384
     -5132.2504      -3999.1564
   2582977.62146   1344426.23246  23153415.6034   23153418.5094
     -2601.3594      -2027.0334
  13046247.97046  10165304.78846  23596601.5324   23596604.9784
     -4805.7344      -3744.7284
  -1756005.82546  -1302631.81745  24845232.6494   24845235.7554
       395.7034        308.3404
   2926207.46047   2280163.71447  21914616.0244   21914619.0604
     -2523.3594      -1966.2544
 98  7  2 15 43 15.0050000  0  8G10G 4G 5G 7G 8G 9G30G24
   -257014.79843   -170197.77642  25978215.8294   25978223.2284
       476.8594        371.5794
  13207974.79647   8977469.95146  23129733.9854   23129736.1884
     -4870.8124      -3795.4384
   -570808.89547   -407492.77247  22569758.4704   22569760.8134
     -1015.0004       -790.9094
  19375977.90744  15060115.51342  26007805.6654   26007812.2634
     -5133.7664      -4000.3374
   2622090.00446   1374903.40246  23160858.3764   23160861.4584
     -2613.5944      -2036.5674
  13118397.95046  10221525.50846  23610331.2904   23610334.9234
     -4814.2504      -3751.3644
  -1761920.23546  -1307240.41945  24844107.4234   24844110.9384
       392.8444        306.1124
   2964133.38947   2309716.38347  21921833.1104   21921836.0174
     -2533.4064      -1974.0834
 98  7  2 15 43 30.0050000  0  8G10G 4G 5G 7G 8G 9G30G24
   -264159.87243   -175765.28442  25976855.9934   25976863.0634
       475.6884        370.6664
  13281094.36647   9034446.22046  23143648.0874   23143650.4664
     -4878.6094      -3801.5144
   -555533.83747   -395590.12647  22572665.2904   22572667.7044
     -1021.8124       -796.2184
  19452995.01844  15120128.76442  26022462.0874   26022468.4274
     -5135.3594      -4001.5794
   2661384.68446   1405522.62046  23168335.8214   23168338.9154
     -2625.7974      -2046.0754
  13190674.71546  10277845.03146  23624085.3134   23624088.9354
     -4822.7814      -3758.0114
  -1767791.39146  -1311815.32745  24842989.5094   24842992.5204
       389.8754        303.7994
   3002207.87147   2339384.81547  21929078.3764   21929081.3534
     -2543.2814      -1981.7784
 98  7  2 15 43 45.0050000  0  8G10G 4G 5G 7G 8G 9G30G24
   -271289.11844   -181320.46042  25975499.8294   25975507.0284
       474.9064        370.0574
  13354330.01147   9091512.94546  23157584.0874   23157586.3254
     -4886.1564      -3807.3944
   -540158.09247   -383609.02047  22575590.8764   22575593.1144
     -1028.2974       -801.2704
  19530034.62544  15180159.55842  26037122.1884   26037129.4464
     -5136.5784      -4002.5284
   2700860.26946   1436282.80646  23175847.9384   23175851.0674
     -2637.6094      -2055.2804
  13263078.12446  10334263.23146  23637863.2514   23637866.6384
     -4831.0624      -3764.4644
  -1773621.51946  -1316358.26045  24841880.4784   24841883.6424
       387.4844        301.9364
   3040429.18547   2369167.65747  21936351.6424   21936354.6304
     -2552.9224      -1989.2904
 98  7  2 15 44  0.0050000  0  8G10G 4G 5G 7G 8G 9G30G24
   -278405.60644   -186865.67142  25974145.4934   25974152.9624
       473.9844        369.3384
  13427680.71147   9148669.32246  23171542.5324   23171544.9354
     -4893.9694      -3813.4824
   -524684.43047   -371551.62047  22578535.6964   22578538.1574
     -1034.8284       -806.3604
  19607093.96844  15240205.75642  26051786.1734   26051794.5564
     -5137.9534      -4003.6004
   2740512.94746   1467180.98546  23183393.5874   23183396.5754
     -2649.3594      -2064.4364
  13335607.65446  10390779.70946  23651665.1184   23651668.3534
     -4839.5164      -3771.0514
  -1779413.43946  -1320871.43545  24840778.0174   24840781.4974
       384.7194        299.7814
   3078797.52447   2399065.06647  21943652.8684   21943655.8454
     -2562.8754      -1997.0454
 98  7  2 15 44 15.0050000  0  8G10G 4G 5G 7G 8G 9G30G24
   -285506.42644   -192398.68743  25972794.2984   25972800.3804
       472.9534        368.5354
  13501151.03747   9205918.90946  23185523.5094   23185525.9114
     -4901.9224      -3819.6794
   -509110.79247   -359416.31547  22581499.0324   22581501.3294
     -1041.5474       -811.5954
  19684175.06744  15300268.87243  26066454.9934   26066461.0634
     -5139.3444      -4004.6834
   2780342.24446   1498216.78746  23190973.0094   23190975.9384
     -2661.1094      -2073.5924
  13408264.33546  10447395.26346  23665491.1964   23665494.3954
     -4847.8914      -3777.5774
  -1785160.05846  -1325349.29145  24839684.6034   24839687.6854
       381.5944        297.3464
   3117317.36047   2429080.52347  21950983.1574   21950986.2984
     -2573.0474      -2004.9724
 98  7  2 15 44 30.0050000  0  8G10G 4G 5G 7G 8G 9G30G24
   -292594.02544   -197921.45842  25971445.8454   25971452.3134
       472.0634        367.8414
  13574737.73547   9263259.17946  23199526.5244   23199529.0324
     -4909.6254      -3825.6824
   -493437.84947   -347203.63347  22584481.4784   22584483.5404
     -1048.1414       -816.7334
  19761272.63444  15360344.84142  26081126.5174   26081131.4504
     -5140.2974      -4005.4264
   2820345.77146   1529388.35846  23198585.3064   23198587.9894
     -2672.6564      -2082.5894
  13481042.66846  10504105.60646  23679340.4624   23679343.7674
     -4855.8914      -3783.8114
  -1790862.77446  -1329792.95445  24838599.4854   24838602.3104
       378.7974        295.1664
   3155990.68547   2459215.58547  21958342.3684   21958345.3804
     -2583.4534      -2013.0804
 98  7  2 15 44 45.0060000  0  8G10G 4G 5G 7G 8G 9G30G24
   -299667.73744   -203433.30543  25970098.8734   25970106.3654
       470.9844        367.0014
  13648445.81547   9320694.03046  23213552.8574   23213555.2364
     -4917.5314      -3831.8434
   -477665.21247   -334913.26347  22587483.1314   22587485.3114
     -1054.8284       -821.9444
  19838389.63844  15420435.96943  26095800.6074   26095807.5614
     -5141.2504      -4006.1694
   2860524.39646   1560696.36646  23206231.0534   23206233.5254
     -2684.1564      -2091.5504
  13553946.46846  10560913.72946  23693213.5844   23693217.0414
     -4863.9844      -3790.1184
  -1796524.99846  -1334205.04745  24837522.2644   24837525.5334
       376.1254        293.0844
   3194823.16847   2489474.66247  21965731.7254   21965734.6894
     -2593.8914      -2021.2134
 98  7  2 15 45  0.0060000  0  8G10G 4G 5G 7G 8G 9G30G24
   -306722.99644   -208930.85242  25968756.7094   25968762.9904
       469.6094        365.9294
  13722269.08047   9378218.64246  23227600.8574   23227603.2604
     -4925.6414      -3838.1624
   -461791.33147   -322544.00347  22590503.6234   22590505.8964
     -1061.7344       -827.3254
  19915514.36144  15480533.09643  26110477.1464   26110483.8734
     -5142.1724      -4006.8874
   2900870.82446   1592135.12446  23213908.8654   23213911.3734
     -2695.3754      -2100.2924
  13626965.24746  10617811.44146  23707108.6784   23707112.2754
     -4871.8594      -3796.2544
  -1802147.37046  -1338586.09945  24836452.2094   24836455.0684
       373.4384        290.9904
   3233809.30947   2519853.47047  21973150.6704   21973153.5534
     -2604.3444      -2029.3594
 98  7  2 15 45 15.0060000  0  8G10G 4G 5G 7G 8G 9G30G24
   -313753.38045   -214408.98043  25967418.4364   25967424.6704
       467.5474        364.3224
  13796217.91447   9435841.09346  23241672.5534   23241675.1074
     -4934.5474      -3845.1014
   -445811.19047   -310091.94247  22593544.5294   22593546.8144
     -1069.2504       -833.1824
  19992658.07244  15540644.98943  26125157.8114   26125163.0494
     -5143.9534      -4008.2754
   2941387.21746   1623706.33246  23221618.6544   23221621.3144
     -2707.1094      -2109.4364
  13700103.68046  10674802.39346  23721026.4284   23721030.0964
     -4880.2034      -3802.7564
  -1807725.03346  -1342932.30945  24835390.3264   24835392.9514
       369.9224        288.2514
   3272956.75547   2550357.97647  21980600.0924   21980603.1394
     -2615.5944      -2038.1254
 98  7  2 15 45 30.0060000  0  8G10G 4G 5G 7G 8G 9G30G24
   -320750.44145   -219861.13443  25966087.2404   25966093.4044
       465.4384        362.6794
  13870305.13347   9493571.37646  23255771.2644   23255773.8074
     -4943.7034      -3852.2364
   -429713.68347   -297548.43047  22596607.9514   22596610.2014
     -1077.0314       -839.2454
  20069832.68044  15600780.94443  26139842.8734   26139848.5924
     -5145.9374      -4009.8214
   2982083.48746   1655417.69346  23229363.1864   23229366.1624
     -2719.0944      -2118.7744
  13773368.89646  10731892.13746  23734968.3654   23734971.8574
     -4888.4064      -3809.1484
  -1813245.91046  -1347234.26945  24834339.6464   24834342.4124
       366.2664        285.4024
   3312275.76147   2580996.16447  21988082.3424   21988085.4824
     -2626.8594      -2046.9034
 98  7  2 15 45 45.0060000  0  8G10G 4G 5G 7G 8G 9G30G24
   -327724.88145   -225295.68043  25964760.1624   25964765.9394
       464.0474        361.5954
  13944519.03347   9551400.38046  23269893.6624   23269896.1464
     -4951.8754      -3858.6044
   -413508.70547   -284921.16947  22599691.9044   22599694.1434
     -1084.0624       -844.7244
  20147028.98844  15660933.86943  26154533.0764   26154540.6864
     -5147.3594      -4010.9294
   3022953.43146   1687264.39446  23237140.2254   23237143.3534
     -2730.6724      -2127.7964
  13846748.21946  10789070.78946  23748932.1154   23748935.4204
     -4895.9534      -3815.0284
  -1818721.94346  -1351501.28845  24833297.8894   24833301.3464
       363.4224        283.1864
   3351754.28147   2611758.64847  21995594.9754   21995598.1034
     -2637.4224      -2055.1344
 98  7  2 15 46  0.0060000  0  8G10G 4G 5G 7G 8G 9G30G24
   -334677.17145   -230712.99143  25963437.0294   25963443.0764
       463.0004        360.7794
  14018856.02447   9609325.28746  23284039.3814   23284041.9124
     -4959.6094      -3864.6314
   -397197.42947   -272211.08247  22602795.6234   22602797.7794
     -1090.6874       -849.8864
  20224248.62543  15721104.88543  26169227.4824   26169233.1784
     -5148.4844      -4011.8064
   3063999.56246   1719248.37346  23244951.1394   23244954.1974
     -2742.0474      -2136.6604
  13920243.18146  10846339.55746  23762917.9124   23762921.1584
     -4903.2974      -3820.7514
  -1824153.33946  -1355733.53545  24832263.9904   24832266.8264
       360.8284        281.1654
   3391393.73447   2642646.53447  22003138.1074   22003141.0494
     -2647.6564      -2063.1094
 98  7  2 15 46 15.0060000  0  8G10G 4G 5G 7G 8G 9G30G24
   -341612.31145   -236116.92843  25962117.4904   25962124.5844
       461.6724        359.7444
  14093309.70347   9667341.12946  23298207.3574   23298209.7134
     -4967.5624      -3870.8284
   -380784.86347   -259422.06947  22605918.7874   22605921.0144
     -1097.6724       -855.3294
  20301488.49943  15781291.75542  26183925.8034   26183932.0614
     -5150.1724      -4013.1214
   3105218.09046   1751366.69846  23252794.8574   23252797.7754
     -2753.7974      -2145.8164
  13993849.23946  10903694.88446  23776924.6704   23776927.7404
     -4910.8754      -3826.6564
  -1829542.59246  -1359932.92845  24831238.8264   24831241.7914
       357.7194        278.7424
   3431186.80347   2673654.11847  22010710.5064   22010713.3774
     -2658.0474      -2071.2054
 98  7  2 15 46 30.0060000  0  8G10G 4G 5G 7G 8G 9G30G24
   -348529.11845   -241506.58543  25960800.8424   25960807.8894
       460.5474        358.8684
  14167880.10847   9725447.92046  23312397.9594   23312400.3854
     -4975.1874      -3876.7694
   -364268.39047   -246552.08547  22609061.8264   22609064.0644
     -1104.6094       -860.7354
  20378752.17143  15841497.11942  26198628.1004   26198635.8854
     -5151.7504      -4014.3514
   3146611.86046   1783621.56646  23260671.9124   23260674.8534
     -2765.4844      -2154.9234
  14067568.31346  10961138.26946  23790953.0214   23790956.1154
     -4918.4694      -3832.5734
  -1834888.21346  -1364098.32845  24830221.2404   24830224.1704
       354.9534        276.5874
   3471132.03347   2704780.27347  22018311.7564   22018314.7214
     -2668.1094      -2079.0464
 98  7  2 15 46 45.0060000  0  7G10G 4G 5G 8G 9G30G24
   -355428.82645   -246882.91943  25959488.1464   25959494.0064
       459.4224        357.9914
  14242566.38747   9783645.00646  23326610.3504   23326612.7644
     -4983.0164      -3882.8694
   -347645.91147   -233599.49847  22612224.9284   22612227.3074
     -1111.6874       -866.2504
   3188182.15846   1816013.99346  23268582.4514   23268585.3574
     -2777.2194      -2164.0674
  14141404.96146  11018673.28146  23805003.6864   23805006.8614
     -4926.4694      -3838.8074
  -1840190.65545  -1368230.08145  24829212.4044   24829215.6864
       352.0314        274.3104
   3511229.93047   2736025.39047  22025942.0294   22025944.8534
     -2678.2194      -2086.9244
 98  7  2 15 47  0.0060000  0  7G10G 4G 5G 8G 9G30G24
   -362311.30545   -252245.76043  25958177.8964   25958184.2014
       458.3914        357.1884
  14317371.17947   9841934.43846  23340844.9984   23340847.5294
     -4990.7194      -3888.8724
   -330918.16747   -220564.89747  22615407.9754   22615410.4714
     -1118.5004       -871.5584
   3229930.40146   1848545.07246  23276526.8734   23276529.8854
     -2789.0004      -2173.2474
  14215362.22246  11076302.27746  23819077.3114   23819080.8264
     -4934.2974      -3844.9074
  -1845447.38945  -1372326.22845  24828211.8504   24828214.8144
       349.0314        271.9724
   3551478.24347   2767387.70947  22033601.0534   22033604.1004
     -2688.0164      -2094.5584
 98  7  2 15 47 15.0060000  0  7G10G 4G 5G 8G 9G30G24
   -369178.11845   -257596.47543  25956871.3654   25956877.3654
       457.4224        356.4334
  14392288.99247   9900311.93646  23355101.4044   23355103.9004
     -4998.1094      -3894.6314
   -314090.11447   -207452.12247  22618610.5374   22618612.9514
     -1125.0164       -876.6364
   3271853.62146   1881212.50746  23284504.7484   23284507.5724
     -2800.5624      -2182.2564
  14289435.53346  11134021.70446  23833172.7954   23833176.4164
     -4941.9534      -3850.8734
  -1850657.19245  -1376385.79245  24827220.3424   24827223.7174
       345.7814        269.4404
   3591873.58847   2798864.60147  22041288.1004   22041290.9944
     -2697.8444      -2102.2164
 98  7  2 15 47 30.0060000  0  7G10G 4G 5G 8G 9G30G24
   -376030.75344   -262936.11543  25955567.6544   25955574.2874
       456.5314        355.7394
  14467319.65947   9958777.37846  23369379.5064   23369382.2604
     -5005.7664      -3900.5974
   -297163.09147   -194262.23247  22621831.5454   22621833.7014
     -1131.7194       -881.8594
   3313952.79546   1914017.04146  23292515.7714   23292518.6664
     -2812.4374      -2191.5104
  14363625.51346  11191832.03946  23847290.8734   23847294.4474
     -4949.7814      -3856.9724
  -1855815.90545  -1380405.54345  24826238.8184   24826242.1824
       342.3134        266.7374
   3632417.66347   2830457.38847  22049003.5614   22049006.5844
     -2707.7194      -2109.9114
 98  7  2 15 47 45.0060000  0  7G10G 4G 5G 8G 9G30G24
   -382868.65245   -268264.26843  25954265.8184   25954273.2174
       455.2814        354.7654
  14542465.61547  10017332.65246  23383679.1074   23383681.7444
     -5013.5784      -3906.6844
   -280135.43147   -180993.92547  22625071.7644   22625073.9904
     -1138.5314       -887.1674
   3356231.30746   1946961.32046  23300561.3184   23300564.1194
     -2824.5784      -2200.9704
  14437932.77346  11249733.76146  23861431.2174   23861434.6394
     -4957.7664      -3863.1944
  -1860922.71246  -1384384.85345  24825266.9124   24825270.1004
       338.7504        263.9614
   3673108.40547   2862164.46247  22056746.5924   22056749.6744
     -2717.6564      -2117.6544
 98  7  2 15 48  0.0060000  0  7G10G 4G 5G 8G 9G30G24
   -389690.72445   -273580.11744  25952967.8424   25952975.0644
       454.1254        353.8644
  14617726.15546  10075977.21246  23398000.4984   23398003.3344
     -5021.4064      -3912.7844
   -263009.13847   -167648.75547  22628330.5924   22628332.8894
     -1145.1874       -892.3544
   3398687.81046   1980044.29646  23308640.3344   23308643.0644
     -2836.4694      -2210.2354
  14512357.22446  11307726.79746  23875593.5454   23875596.9434
     -4965.6724      -3869.3554
  -1865978.86746  -1388324.69445  24824304.9204   24824307.9204
       335.2034        261.1974
   3713946.66047   2893986.47747  22064517.9514   22064520.9394
     -2727.6874      -2125.4714
 98  7  2 15 48 15.0060000  0  7G10G 4G 5G 8G 9G30G24
   -396490.06645   -278878.23243  25951673.8344   25951680.4434
       452.4534        352.5614
  14693109.03146  10134717.09546  23412345.6074   23412348.4784
     -5029.6254      -3919.1884
   -245778.62647   -154222.38347  22631609.7404   22631612.1314
     -1152.1874       -897.8084
   3441326.22146   2013269.01046  23316753.8814   23316756.6114
     -2848.6414      -2219.7204
  14586903.85346  11365815.04446  23889779.6154   23889783.0494
     -4973.8444      -3875.7224
  -1870976.93846  -1392219.27645  24823353.8184   24823356.3614
       331.1884        258.0684
   3754940.30447   2925929.57547  22072318.5764   22072321.6584
     -2738.1564      -2133.6284
 98  7  2 15 48 30.0060000  0  7G10G 4G 5G 8G 9G30G24
   -403267.25045   -284159.09944  25950384.0764   25950390.1464
       451.0784        351.4894
  14768610.24947  10193549.19646  23426713.0214   23426715.6004
     -5037.2814      -3925.1544
   -228448.70347   -140718.54447  22634907.2564   22634909.6824
     -1158.5624       -902.7764
   3484143.42646   2046633.05146  23324901.9514   23324904.9514
     -2860.4064      -2228.8884
  14661567.31346  11423994.32946  23903987.8034   23903991.1664
     -4981.3914      -3881.6034
  -1875919.17046  -1396070.35445  24822413.1004   24822416.5924
       327.7504        255.3904
   3796087.71147   2957992.49347  22080148.6934   22080151.7284
     -2748.2814      -2141.5184
 98  7  2 15 48 45.0060000  0  7G10G 4G 5G 8G 9G30G24
   -410021.03045   -289421.71943  25949098.5534   25949104.9044
       449.5634        350.3084
  14844229.37646  10252473.17946  23441102.8814   23441105.7284
     -5045.1094      -3931.2544
   -211020.23247   -127137.91947  22638223.9204   22638226.4164
     -1165.0944       -907.8654
   3527139.70746   2080136.62946  23333083.9824   23333086.9474
     -2872.3124      -2238.1664
  14736346.00546  11482263.41346  23918217.5844   23918221.0884
     -4988.9534      -3887.4964
  -1880807.96446  -1399879.77445  24821483.1784   24821486.4364
       324.2504        252.6624
   3837390.44447   2990176.44147  22088008.5454   22088011.5334
     -2758.6254      -2149.5784
 98  7  2 15 49  0.0060000  0  7G10G 4G 5G 8G 9G30G24
   -416749.91345   -294664.95443  25947818.3654   25947824.6584
       447.7034        348.8604
  14919968.46646  10311490.63246  23455515.4364   23455518.2714
     -5053.2974      -3937.6344
   -193492.50947   -113479.94847  22641559.3654   22641561.7324
     -1171.8124       -913.1014
   3570315.23846   2113779.88346  23341299.6934   23341302.9044
     -2884.3124      -2247.5164
  14811237.80246  11540620.62846  23932468.8814   23932472.2094
     -4996.5004      -3893.3774
  -1885643.87346  -1403648.00645  24820562.8034   24820565.3344
       320.6724        249.8744
   3878848.68847   3022481.56847  22095897.7954   22095900.6314
     -2768.9844      -2157.6504
 98  7  2 15 49 15.0060000  0  7G10G 4G 5G 8G 9G30G24
   -423448.85445   -299884.81843  25946543.9674   25946549.7324
       445.5944        347.2164
  14995829.27646  10370602.93446  23469951.1464   23469953.8074
     -5061.3284      -3943.8924
   -175862.63747    -99742.38347  22644914.2954   22644916.5574
     -1178.7974       -918.5434
   3613672.45446   2147564.70946  23349550.5764   23349553.7174
     -2896.4844      -2257.0014
  14886243.36846  11599066.49646  23946741.8814   23946745.3964
     -5004.1414      -3899.3304
  -1890424.69846  -1407373.31045  24819652.8964   24819655.1934
       316.9064        246.9404
   3920463.36847   3054908.59147  22103816.6864   22103819.5924
     -2779.5314      -2165.8694
 98  7  2 15 49 30.0060000  0  7G10G 4G 5G 8G 9G30G24
   -430120.86945   -305083.73643  25945274.3344   25945280.8384
       444.1724        346.1084
  15071806.29846  10429805.79346  23484409.2954   23484411.8384
     -5068.8284      -3949.7364
   -158129.89147    -85924.65447  22648288.5764   22648290.7794
     -1185.5164       -923.7784
   3657207.42646   2181488.04846  23357835.0374   23357838.2134
     -2908.0944      -2266.0474
  14961359.99046  11657598.90046  23961036.3504   23961039.8184
     -5011.2664      -3904.8824
  -1895153.59446  -1411058.14745  24818753.2094   24818756.6194
       313.8134        244.5294
   3962232.60147   3087456.04746  22111765.2564   22111768.1624
     -2789.5004      -2173.6364
 98  7  2 15 49 45.0060000  0  7G10G 4G 5G 8G 9G30G24
   -436768.18645   -310263.36443  25944008.8504   25944015.4474
       442.1564        344.5374
  15147899.06746  10489098.84746  23498889.4124   23498891.8854
     -5076.8124      -3955.9584
   -140290.80947    -72024.07047  22651683.4204   22651685.7404
     -1193.0314       -929.6354
   3700921.29946   2215550.78546  23366153.6624   23366156.8384
     -2920.3914      -2275.6294
  15036586.25746  11716216.74846  23975351.3734   23975354.7714
     -5018.8754      -3910.8124
  -1899834.31846  -1414705.46045  24817862.5534   24817865.2134
       310.2974        241.7904
   4004153.31147   3120121.53447  22119742.3654   22119745.4124
     -2799.9064      -2181.7454
 98  7  2 15 50  0.0060000  0  7G10G 4G 5G 8G 9G30G24
   -443387.78844   -315421.45743  25942749.1624   25942756.0334
       440.6414        343.3564
  15224107.43446  10548481.97346  23513391.4514   23513394.1114
     -5084.0944      -3961.6314
   -122341.20947    -58037.37047  22655098.7714   22655101.2794
     -1200.1564       -935.1874
   3744816.24046   2249754.61646  23374506.5214   23374509.6394
     -2932.0624      -2284.7244
  15111924.95246  11774922.19746  23989687.9824   23989691.2754
     -5026.1874      -3916.5104
  -1904465.32146  -1418314.02045  24816981.1544   24816983.9204
       307.3284        239.4764
   4046228.65347   3152907.51746  22127748.8894   22127751.8654
     -2809.9374      -2189.5624
 98  7  2 15 50 15.0060000  0  7G10G 4G 5G 8G 9G30G24
   -449981.93144   -320559.67243  25941494.3344   25941500.1234
       438.9064        342.0054
  15300426.90646  10607951.67446  23527914.4514   23527917.1824
     -5091.5164      -3967.4154
   -104280.17847    -43963.83647  22658535.8894   22658538.3854
     -1207.7034       -941.0674
   3788889.56246   2284097.44646  23382893.7014   23382896.6434
     -2944.0944      -2294.0994
  15187377.30746  11833716.21546  24004045.9984   24004049.5024
     -5033.7974      -3922.4394
  -1909047.50046  -1421884.53445  24816109.1934   24816111.9714
       303.9534        236.8474
   4088455.61947   3185811.64246  22135784.6934   22135787.6354
     -2819.9534      -2197.3664
 98  7  2 15 50 30.0060000  0  7G10G 4G 5G 8G 9G30G24
   -456551.08644   -325678.45743  25940243.7324   25940250.7094
       437.2034        340.6784
  15376857.30246  10667507.81346  23542458.6234   23542461.4944
     -5099.0164      -3973.2594
    -86104.83147    -29801.22847  22661994.4124   22661996.9674
     -1215.4374       -947.0944
   3833143.89446   2318581.32746  23391315.0144   23391317.8964
     -2956.2194      -2303.5474
  15262944.61246  11892599.79146  24018425.9204   24018429.5644
     -5041.5784      -3928.5024
  -1913579.48846  -1425415.93945  24815246.9824   24815249.3384
       300.5314        234.1804
   4130830.82847   3218831.28647  22143848.3424   22143851.6114
     -2829.8284      -2205.0614
 98  7  2 15 50 45.0060000  0  7G10G 4G 5G 8G 9G30G24
   -463094.15444   -330776.87843  25938998.9514   25939005.9044
       435.4694        339.3264
  15453402.55646  10727153.44946  23557024.6624   23557027.4754
     -5106.7814      -3979.3104
    -67811.52847    -15546.70147  22665475.6314   22665478.2914
     -1223.4694       -953.3524
   3877579.78446   2353206.67446  23399770.5144   23399773.5024
     -2968.2664      -2312.9344
  15338628.79746  11951574.43946  24032828.3814   24032832.1434
     -5049.3914      -3934.5904
  -1918060.10346  -1428907.30345  24814394.0764   24814396.9364
       297.1254        231.5264
   4173354.20547   3251966.38147  22151940.1934   22151943.3224
     -2839.7194      -2212.7684
 98  7  2 15 51  0.0060000  0  7G10G 4G 5G 8G 9G30G24
   -469614.69144   -335857.70943  25937757.8964   25937764.4594
       433.9384        338.1334
  15530062.72046  10786888.62746  23571612.8424   23571615.7134
     -5114.4844      -3985.3124
    -49398.81747     -1199.13447  22668979.6314   22668981.9514
     -1231.5314       -959.6354
   3922192.83346   2387970.07346  23408260.3264   23408263.3854
     -2980.0474      -2322.1144
  15414427.89946  12010638.63946  24047252.3344   24047255.9324
     -5057.1094      -3940.6054
  -1922489.75246  -1432358.96345  24813551.2484   24813553.7324
       293.5164        228.7134
   4216023.30847   3285215.03146  22160059.8814   22160062.9394
     -2849.4534      -2220.3534
 98  7  2 15 51 15.0060000  0  7G10G 4G 5G 8G 9G30G24
   -476112.72844   -340921.07542  25936521.0144   25936526.6154
       432.5164        337.0254
  15606835.76046  10846711.75446  23586222.0684   23586224.9284
     -5121.8444      -3991.0474
    -30866.26347     13241.81947  22672505.9824   22672508.6894
     -1239.4374       -965.7954
   3966980.46946   2422869.51446  23416783.1314   23416786.1074
     -2991.6254      -2331.1364
  15490341.05446  12069791.70646  24061698.0844   24061701.6584
     -5064.5944      -3946.4374
  -1926865.30546  -1435768.47245  24812718.5844   24812721.8074
       289.9064        225.9014
   4258836.96547   3318576.32247  22168207.1394   22168210.1394
     -2859.0164      -2227.8044
 98  7  2 15 51 30.0060000  0  7G10G 4G 5G 8G 9G30G24
   -482592.56245   -345970.21143  25935288.6394   25935294.9324
       431.3284        336.1004
  15683713.84546  10906616.74146  23600851.4594   23600854.2254
     -5128.7034      -3996.3924
    -12219.45447     27771.80147  22676054.3264   22676056.9394
     -1246.9374       -971.6404
   4011938.00046   2457901.34146  23425338.3424   23425341.3774
     -3002.7664      -2339.8174
  15566361.04646  12129028.02546  24076164.2794   24076167.9244
     -5071.4844      -3951.8064
  -1931189.96746  -1439138.33045  24811895.4754   24811898.9674
       286.6414        223.3564
   4301792.33847   3352048.04147  22176381.1934   22176384.0764
     -2868.4534      -2235.1584
 98  7  2 15 51 45.0060000  0  7G10G 4G 5G 8G 9G30G24
   -489051.76145   -351003.31643  25934059.5374   25934064.7524
       429.9534        335.0284
  15760698.43946  10966604.71646  23615501.1784   23615503.9554
     -5135.8754      -4001.9814
      6542.10647     42391.20147  22679624.6234   22679626.9784
     -1254.5164       -977.5454
   4057063.65346   2493064.16646  23433925.0764   23433928.0064
     -3013.9374      -2348.5234
  15642485.33546  12188345.61046  24090650.2874   24090653.9204
     -5078.3754      -3957.1754
  -1935464.41646  -1442469.06245  24811082.1864   24811084.8934
       283.3284        220.7754
   4344890.66547   3385631.15547  22184582.5214   22184585.6154
     -2877.9534      -2242.5614
 98  7  2 15 52  0.0060000  0  7G10G 4G 5G 8G 9G30G24
   -495488.17245   -356018.63043  25932834.1074   25932840.2834
       428.0784        333.5674
  15837793.37946  11026678.67546  23630172.2094   23630175.1154
     -5143.5784      -4007.9834
     25418.20247     57099.84847  22683216.6234   22683219.0494
     -1262.3594       -983.6574
   4102358.79846   2528359.06546  23442544.8034   23442547.8034
     -3025.5314      -2357.5574
  15718715.92046  12247746.03346  24105156.8734   24105160.6004
     -5085.8284      -3962.9834
  -1939685.96246  -1445758.56345  24810278.8894   24810281.5724
       279.4384        217.7444
   4388134.76147   3419327.85047  22192811.5924   22192814.4754
     -2888.0474      -2250.4264
 98  7  2 15 52 15.0060000  0  7G10G 4G 5G 8G 9G30G24
   -501897.37045   -361012.74343  25931614.8424   25931621.1234
       426.4384        332.2894
  15915000.64046  11086840.16146  23644864.2094   23644866.7874
     -5150.7194      -4013.5474
     44408.66347     71897.61047  22686830.4124   22686832.9324
     -1269.7194       -989.3914
   4147823.75446   2563786.29246  23451196.5924   23451199.3694
     -3036.5004      -2366.1044
  15795055.74346  12307231.57546  24119683.5844   24119686.9944
     -5092.8124      -3968.4254
  -1943852.52646  -1449005.21945  24809486.0144   24809488.5104
       276.0314        215.0894
   4431526.86847   3453139.88247  22201068.9754   22201071.7874
     -2897.5474      -2257.8294
 98  7  2 15 52 30.0060000  0  7G10G 4G 5G 8G 9G30G24
   -508277.95645   -365984.55743  25930399.7794   25930406.3184
       424.0784        330.4504
  15992318.30246  11147087.67246  23659577.0684   23659579.7754
     -5158.5624      -4019.6594
     63510.89547     86782.46747  22690465.2954   22690467.7324
     -1277.4534       -995.4184
   4193456.11746   2599343.95846  23459879.9904   23459883.0374
     -3048.0474      -2375.1014
  15871500.48146  12366798.86646  24134230.3894   24134233.8344
     -5100.0314      -3974.0504
  -1947963.88546  -1452208.87345  24808703.5374   24808706.3964
       271.8914        211.8634
   4475065.09847   3487065.77646  22209353.9754   22209356.8574
     -2907.9064      -2265.9014
 98  7  2 15 52 45.0060000  0  7G10G 4G 5G 8G 9G30G24
   -514625.53645   -370930.69143  25929192.7254   25929198.8774
       422.2344        329.0144
  16069750.81846  11207424.68246  23674312.1004   23674314.9714
     -5165.7504      -4025.2604
     82724.93647    101754.45047  22694121.8114   22694124.3424
     -1284.4064      -1000.8364
   4239257.31546   2635033.18346  23468595.6394   23468598.8384
     -3058.8124      -2383.4904
  15948049.27746  12426447.25046  24148797.3114   24148801.1434
     -5106.4064      -3979.0184
  -1952015.54246  -1455365.99145  24807932.3264   24807935.4084
       268.2974        209.0634
   4518759.04947   3521113.00747  22217668.6784   22217671.6664
     -2917.9844      -2273.7544
 98  7  2 15 53  0.0060000  0  7G10G 4G 5G 8G 9G30G24
   -520944.22545   -375854.30043  25927990.5614   25927996.6894
       420.3754        327.5654
  16147289.09346  11267844.09846  23689067.2094   23689070.1624
     -5172.5314      -4030.5444
    102042.89447    116807.40147  22697797.8654   22697800.3384
     -1291.2034      -1006.1324
   4285220.74646   2670848.82546  23477342.3264   23477345.5144
     -3069.5624      -2391.8674
  16024692.25546  12486169.01146  24163381.8114   24163385.5844
     -5112.5624      -3983.8154
  -1956012.28046  -1458480.31745  24807171.9674   24807174.8614
       264.7034        206.2624
   4562604.28447   3555278.12646  22226012.1934   22226015.2524
     -2927.8754      -2281.4614
 98  7  2 15 53 15.0060000  0  7G10G 4G 5G 8G 9G30G24
   -527235.60745   -380756.58243  25926792.8424   25926797.8464
       418.4224        326.0434
  16224927.94746  11328341.88946  23703841.5144   23703844.2444
     -5179.3124      -4035.8284
    121461.77047    131938.99347  22701493.1624   22701495.9634
     -1298.0004      -1011.4294
   4331346.61546   2706791.03946  23486119.8264   23486123.0844
     -3080.5624      -2400.4384
  16101428.43746  12545963.40046  24177984.2564   24177987.9244
     -5118.9694      -3988.8074
  -1959953.87146  -1461551.67645  24806421.9594   24806424.7014
       260.8754        203.2794
   4606596.81647   3589558.01846  22234383.4904   22234386.7254
     -2937.7664      -2289.1684
 98  7  2 15 53 30.0060000  0  7G10G 4G 5G 8G 9G30G24
   -533495.91945   -385634.72444  25925601.6544   25925607.6784
       416.2344        324.3384
  16302669.07546  11388919.37546  23718634.9284   23718637.7174
     -5186.2194      -4041.2094
    140983.34347    147150.60847  22705208.1314   22705210.6974
     -1304.9224      -1016.8224
   4377639.25446   2742863.20946  23494928.9434   23494932.1434
     -3091.8124      -2409.2054
  16178261.03946  12605832.91446  24192604.9904   24192608.5294
     -5125.4534      -3993.8604
  -1963839.65646  -1464579.54545  24805682.2094   24805685.0804
       257.2034        200.4184
   4650737.51947   3623953.36746  22242783.3034   22242786.3734
     -2947.7504      -2296.9484
 98  7  2 15 53 45.0060000  0  7G10G 4G 5G 8G 9G30G24
   -539723.65645   -390487.47843  25924416.6394   25924422.8144
       414.0634        322.6464
  16380513.71246  11449577.51346  23733448.4434   23733451.1864
     -5193.1874      -4046.6404
    160607.75647    162442.35647  22708942.2714   22708944.6274
     -1311.7974      -1022.1794
   4424099.37346   2779065.87846  23503770.1314   23503773.0724
     -3103.0004      -2417.9224
  16255192.02846  12665779.10746  24207244.7254   24207248.5334
     -5132.1564      -3999.0834
  -1967671.83746  -1467565.65545  24804953.3034   24804955.4594
       253.6884        197.6794
   4695026.86947   3658464.55147  22251211.3504   22251214.5374
     -2957.5164      -2304.5584
 98  7  2 15 54  0.0060000  0  7G10G 4G 5G 8G 9G30G24
   -545919.28245   -395315.17744  25923237.8184   25923242.6354
       412.0784        321.1004
  16458463.74546  11510317.78146  23748281.9364   23748284.7714
     -5200.0784      -4052.0094
    180335.88847    177814.92647  22712696.5294   22712698.9324
     -1318.5474      -1027.4394
   4470729.69246   2815401.17146  23512643.5844   23512646.6194
     -3114.3914      -2426.7984
  16332226.37646  12725805.83246  24221903.8734   24221907.5184
     -5139.1094      -4004.5014
  -1971450.34246  -1470509.92545  24804234.3734   24804237.1864
       250.0944        194.8784
   4739462.02647   3693089.34546  22259667.0214   22259669.9864
     -2967.1564      -2312.0704
 98  7  2 15 54 15.0070000  0  7G10G 4G 5G 8G 9G30G24
   -552085.25845   -400119.76344  25922063.7534   25922070.1634
       409.8134        319.3344
  16536520.38746  11571141.11646  23763135.4724   23763138.3434
     -5206.8284      -4057.2694
    200164.86847    193266.07947  22716469.9174   22716472.2374
     -1325.2814      -1032.6874
   4517534.41446   2851872.36246  23521550.2064   23521553.2534
     -3125.8914      -2435.7594
  16409369.35946  12785917.20946  24236583.8784   24236587.7224
     -5146.0004      -4009.8704
  -1975174.49246  -1473411.85145  24803525.4794   24803528.2694
       246.3284        191.9444
   4784044.16447   3727828.67446  22268150.6444   22268153.7844
     -2976.8284      -2319.6064
 98  7  2 15 54 30.0070000  0  7G10G 4G 5G 8G 9G30G24
   -558215.56045   -404896.59944  25920897.3944   25920902.5734
       407.6564        317.6544
  16614672.14246  11632038.56646  23778007.4014   23778010.2264
     -5213.3914      -4062.3824
    220095.46747    208796.41547  22720262.3474   22720264.6554
     -1332.0474      -1037.9594
   4564508.55746   2888475.57246  23530489.1834   23530492.3114
     -3137.2814      -2444.6354
  16486609.48646  12846104.28746  24251281.7844   24251285.4764
     -5152.6414      -4015.0454
  -1978841.79346  -1476269.47045  24802827.3704   24802829.5854
       242.6414        189.0714
   4828769.26247   3762679.39946  22276661.6754   22276664.6404
     -2986.5624      -2327.1924
 98  7  2 15 54 45.0070000  0  7G10G 4G 5G 8G 9G30G24
   -564315.92245   -409650.06444  25919737.0424   25919743.4174
       405.7664        316.1814
  16692922.83646  11693013.11246  23792898.0194   23792900.7614
     -5220.0314      -4067.5574
    240125.65547    224404.35147  22724074.1904   22724076.6284
     -1338.6724      -1043.1214
   4611653.60346   2925211.94846  23539460.5114   23539463.5694
     -3148.7344      -2453.5594
  16563947.80046  12906367.87346  24265999.1124   24266002.8864
     -5159.2034      -4020.1584
  -1982454.89446  -1479084.84345  24802140.1364   24802143.5464
       239.1414        186.3434
   4873641.35247   3797644.66046  22285200.4404   22285203.4404
     -2996.3444      -2334.8134
 98  7  2 15 55  0.0070000  0  7G10G 4G 5G 8G 9G30G24
   -570384.22745   -414378.58644  25918582.0194   25918588.2764
       403.4224        314.3554
  16771276.71546  11754068.06146  23807808.1674   23807810.9214
     -5227.0474      -4073.0244
    260260.74147    240094.02747  22727905.8004   22727908.1794
     -1345.9534      -1048.7954
   4658974.32646   2962085.22646  23548465.4014   23548468.4724
     -3160.5944      -2462.8004
  16641390.95446  12966713.15046  24280735.9644   24280739.4684
     -5166.4844      -4025.8324
  -1986013.70846  -1481857.93745  24801463.0264   24801466.0384
       235.4844        183.4944
   4918661.11047   3832724.99646  22293767.3624   22293770.4684
     -3006.1254      -2342.4354
 98  7  2 15 55 15.0070000  0  7G10G 4G 5G 8G 9G30G24
   -576418.67445   -419080.69044  25917433.9254   25917440.1834
       401.1564        312.5894
  16849735.54046  11815204.78846  23822738.5264   23822741.5974
     -5234.2194      -4078.6124
    280505.44047    255869.11747  22731758.4094   22731760.6244
     -1353.4064      -1054.6024
   4706470.95546   2999095.56546  23557503.6984   23557506.8514
     -3172.3444      -2471.9564
  16718944.52046  13027144.46746  24295494.0974   24295497.6594
     -5174.0624      -4031.7374
  -1989519.95546  -1484590.06445  24800795.9874   24800799.1044
       231.9534        180.7434
   4963825.73347   3867918.20346  22302362.0734   22302365.0384
     -3015.8754      -2350.0324
 98  7  2 15 55 30.0070000  0  8G10G 4G 5G 6G 8G 9G30G24
   -582419.68845   -423756.78744  25916291.1904   25916297.3194
       398.7664        310.7264
  16928301.55946  11876425.03946  23837689.3004   23837692.3704
     -5241.3594      -4084.1764
    300861.97647    271731.35147  22735631.8154   22735634.1124
     -1360.9534      -1060.4834
        -0.58452                  26968102.3314
      -362.2504
   4754143.67946   3036243.11946  23566575.5264   23566578.8194
     -3184.1254      -2481.1364
  16796610.11046  13087663.07346  24310273.2534   24310277.0034
     -5181.4694      -4037.5084
  -1992973.67746  -1487281.26445  24800138.3624   24800141.1984
       228.4384        178.0034
   5009137.00147   3903225.67846  22310984.3864   22310987.3864
     -3025.7974      -2357.7644
 98  7  2 15 55 45.0070000  0  8G10G 4G 5G 6G 8G 9G30G24
   -588383.91045   -428404.18744  25915156.3864   25915162.2104
       396.2504        308.7664
  17006973.57546  11937727.88946  23852659.9794   23852662.9444
     -5248.4374      -4089.6924
    321331.66747    287681.75747  22739527.1674   22739529.4764
     -1368.5474      -1066.4004
      5443.05342                  26969139.4334
      -363.7344
   4801992.13046   3073527.60646  23575680.8704   23575684.1634
     -3195.8914      -2490.3044
  16874384.32846  13148266.33346  24325073.0894   24325077.1084
     -5188.6874      -4043.1334
  -1996375.66146  -1489932.16045  24799490.9724   24799493.8664
       224.9064        175.2524
   5054598.52847   3938650.24246  22319635.2764   22319638.4874
     -3035.9534      -2365.6784
 98  7  2 15 56  0.0070000  0  8G10G 4G 5G 6G 8G 9G30G24
   -594310.65745   -433022.37444  25914028.4014   25914035.0344
       394.1254        307.1104
  17085751.68946  11999113.41146  23867650.9254   23867653.7144
     -5255.1874      -4094.9514
    341915.51047    303721.11447  22743444.1754   22743446.7184
     -1375.8754      -1072.1104
     10908.17342                  26970179.8944
      -364.8754
   4850017.64546   3110950.06546  23584819.7614   23584823.1364
     -3207.3754      -2499.2534
  16952267.02846  13208954.11246  24339893.8864   24339897.8114
     -5195.5314      -4048.4664
  -1999722.56246  -1492540.11145  24798854.3314   24798857.4834
       221.4384        172.5494
   5100211.81547   3974193.05946  22328315.3004   22328318.6284
     -3045.7034      -2373.2754
 98  7  2 15 56 15.0070000  0  8G10G 4G 5G 6G 8G 9G30G24
   -600205.24245   -437615.50945  25912906.7294   25912913.3154
       391.7814        305.2844
  17164630.72246  12060577.56746  23882661.0734   23882663.9914
     -5262.0624      -4100.3084
    362609.61947    319846.39247  22747382.0894   22747384.7614
     -1383.3914      -1077.9674
     16392.83643                  26971223.7534
      -366.5004
   4898214.11446   3148505.73846  23593991.3784   23593994.6364
     -3218.8124      -2508.1664
  17030250.68646  13269720.55646  24354733.7844   24354738.0974
     -5202.2974      -4053.7384
  -2003014.73646  -1495105.42245  24798227.9254   24798231.0424
       217.4844        169.4684
   5145974.87547   4009852.58446  22337023.9564   22337027.1444
     -3056.0474      -2381.3354
 98  7  2 15 56 30.0070000  0  8G10G 4G 5G 6G 8G 9G30G24
   -606067.79945   -442183.70244  25911791.1594   25911797.7694
       389.7664        303.7134
  17243609.92246  12122119.78446  23897690.2844   23897693.0854
     -5268.6874      -4105.4714
    383415.30947    336058.61747  22751341.2454   22751343.8234
     -1390.9064      -1083.8234
     21902.22943                  26972272.1834
      -368.2504
   4946577.82846   3186191.72946  23603194.4874   23603197.9564
     -3229.8444      -2516.7614
  17108331.79646  13330562.95446  24369592.1754   24369596.4404
     -5208.7194      -4058.7424
  -2006252.06446  -1497628.01145  24797611.8394   24797614.7224
       214.0164        166.7654
   5191889.17247   4045629.95846  22345760.9564   22345764.2494
     -3065.9844      -2389.0794
 98  7  2 15 56 45.0070000  0  8G10G 4G 5G 6G 8G 9G30G24
   -611900.83045   -446728.85444  25910681.5814   25910687.9094
       388.0944        302.4114
  17322691.38046  12183741.67546  23912739.1754   23912741.9874
     -5275.4064      -4110.7064
    404335.89747    352360.37247  22755322.2844   22755324.8514
     -1398.3594      -1089.6314
     27440.75143                  26973326.2224
      -370.1724
   4995110.03546   3224009.01046  23612430.1754   23612433.4914
     -3241.0164      -2525.4674
  17186512.88946  13391483.24746  24384469.4724   24384473.5504
     -5215.3754      -4063.9294
  -2009435.74846  -1500108.78445  24797005.6754   24797008.6404
       210.5164        164.0384
   5237953.00647   4081523.85346  22354526.5584   22354529.6984
     -3075.7504      -2396.6884
 98  7  2 15 57  0.0070000  0  8G10G 4G 5G 6G 8G 9G30G24
   -617708.78045   -451254.50844  25909575.8944   25909582.2104
       386.3444        301.0474
  17401873.51946  12245442.02346  23927807.1124   23927809.7264
     -5282.1254      -4115.9424
    425368.18347    368749.16747  22759324.5734   22759326.8234
     -1405.9534      -1095.5484
     33009.97243      4050.55752  26974385.4174   26974393.0974
      -372.3594       -290.1504
   5043810.12746   3261957.11846  23621697.1044   23621700.6794
     -3252.2814      -2534.2454
  17264794.83446  13452482.12846  24399366.1044   24399369.7374
     -5222.1564      -4069.2134
  -2012566.52546  -1502548.33845  24796409.9404   24796413.5504
       206.9694        161.2744
   5284160.47647   4117529.67146  22363319.7694   22363322.9444
     -3085.1724      -2404.0304
 98  7  2 15 57 15.0070000  0  8G10G 4G 5G 6G 8G 9G30G24
   -623489.57245   -455758.97144  25908475.8544   25908481.9604
       384.3754        299.5134
  17481154.99146  12307219.77246  23942893.5814   23942896.2534
     -5288.7664      -4121.1164
    446515.07247    385227.26147  22763348.8394   22763351.1124
     -1413.7034      -1101.5874
     38612.06543      8415.82442  26975451.9484   26975458.9954
      -374.6724       -291.9524
   5092679.15146   3300036.85746  23630996.6594   23631000.0224
     -3263.6564      -2543.1094
  17343177.81446  13513559.74346  24414281.8084   24414285.5344
     -5228.9224      -4074.4854
  -2015641.78546  -1504944.63245  24795824.7764   24795827.9174
       202.9534        158.1454
   5330508.84147   4153645.27946  22372139.5264   22372142.8434
     -3094.6874      -2411.4454
 98  7  2 15 57 30.0070000  0  8G10G 4G 5G 6G 8G 9G30G24
   -629242.77845   -460241.92944  25907381.0034   25907386.4874
       382.5944        298.1254
  17560533.38546  12369073.04446  23957999.1124   23958001.7494
     -5295.1094      -4126.0594
    467775.97447    401794.19447  22767394.7454   22767397.0894
     -1421.1724      -1107.4074
     44247.27643     12806.93342  26976523.2534   26976530.2764
      -376.7664       -293.5844
   5141717.96846   3338248.89646  23640328.6044   23640331.6984
     -3275.0004      -2551.9484
  17421659.52146  13574714.28346  24429216.4254   24429220.3154
     -5235.3754      -4079.5134
  -2018656.60646  -1507293.82645  24795250.7614   24795253.5734
       198.8754        154.9684
   5376998.65247   4189871.10346  22380986.2454   22380989.6674
     -3104.0784      -2418.7624
 98  7  2 15 57 45.0070000  0  8G10G 4G 5G 6G 8G 9G30G24
   -634966.19145   -464701.67544  25906291.5264   25906298.7614
       380.5004        296.4944
  17640007.67146  12431001.03446  23973122.4484   23973125.4834
     -5301.5624      -4131.0884
    489149.54347    418448.92047  22771461.8944   22771464.3784
     -1428.6874      -1113.2634
     49915.22343     17223.50143  26977602.0424   26977606.9054
      -379.0004       -295.3254
   5190929.23346   3376595.31946  23649693.1444   23649696.5544
     -3286.4844      -2560.8974
  17500238.71146  13635944.78446  24444169.4254   24444173.5384
     -5241.9694      -4084.6514
  -2021607.98246  -1509593.58046  24794689.4794   24794692.4214
       194.5944        151.6314
   5423630.56847   4226207.65446  22389859.9954   22389863.3114
     -3113.6094      -2426.1894
 98  7  2 15 58  0.0070000  0  8G10G 4G 5G 6G 8G 9G30G24
   -640660.27145   -469138.57645  25905208.3084   25905214.8584
       378.7194        295.1064
  17719581.22646  12493006.37646  23988264.6674   23988267.5974
     -5308.2664      -4136.3114
    510636.02547    435191.63447  22775550.6754   22775553.2064
     -1436.2034      -1119.1194
     55617.57443     21666.92743  26978687.6674   26978692.5894
      -381.2974       -297.1144
   5240313.28646   3415076.37946  23659090.7144   23659094.0774
     -3298.0004      -2569.8704
  17578919.00846  13697254.06946  24459141.8944   24459146.4764
     -5248.8124      -4089.9844
  -2024495.46246  -1511843.55346  24794139.9334   24794143.2964
       190.3754        148.3444
   5470406.31447   4262656.28446  22398761.2614   22398764.2964
     -3123.1254      -2433.6044
 98  7  2 15 58 15.0070000  0  8G10G 4G 5G 6G 8G 9G30G24
   -646329.49645   -473556.10544  25904129.5034   25904135.9954
       376.9844        293.7544
  17799253.67846  12555088.79146  24003425.9644   24003428.7184
     -5314.8594      -4141.4494
    532234.04747    452021.26247  22779660.6364   22779663.1084
     -1443.6874      -1124.9514
     61352.67244     26135.88442  26979779.1904   26979784.3354
      -383.5474       -298.8684
   5289866.92546   3453689.58646  23668520.3234   23668523.6754
     -3309.2814      -2578.6614
  17657701.05846  13758642.64946  24474133.8234   24474138.0774
     -5255.6094      -4095.2804
  -2027321.68646  -1514045.79246  24793602.2454   24793605.5504
       186.3444        145.2034
   5517323.16847   4299214.86846  22407689.1514   22407692.1514
     -3132.6254      -2441.0064
 98  7  2 15 58 30.0070000  0  8G10G 4G 5G 6G 8G 9G30G24
   -651969.20745   -477950.65044  25903056.5584   25903063.0504
       375.0474        292.2444
  17879027.63146  12617250.28846  24018606.5504   24018609.5154
     -5321.5784      -4146.6844
    553948.18047    468941.36347  22783792.6594   22783795.0734
     -1451.4534      -1131.0024
     67125.30244     30634.04143  26980877.4954   26980882.6864
      -386.0474       -300.8164
   5339592.81846   3492437.01446  23677982.9954   23677986.2534
     -3320.7974      -2587.6344
  17736588.05046  13820112.99946  24489145.4094   24489149.6864
     -5262.5944      -4100.7224
  -2030085.65846  -1516199.51146  24793076.2454   24793078.9294
       182.3284        142.0744
   5564385.09147   4335886.49047  22416644.7534   22416647.7184
     -3142.1254      -2448.4094
 98  7  2 15 58 45.0070000  0  8G10G 4G 5G 6G 8G 9G30G24
   -657580.71545   -482323.18244  25901988.3314   25901994.7414
       372.9694        290.6254
  17958901.26246  12679489.46246  24033805.9724   24033809.0074
     -5328.4064      -4152.0054
    575777.81447    485951.46847  22787946.9954   22787949.4794
     -1459.2814      -1137.1024
     72932.29944     35158.99743  26981982.6904   26981987.6014
      -388.2814       -302.5574
   5389492.87546   3531320.15246  23687478.7844   23687482.0194
     -3332.6414      -2596.8634
  17815578.89346  13881664.26346  24504176.8704   24504181.1714
     -5269.5784      -4106.1654
  -2032791.66746  -1518308.07546  24792561.2844   24792564.0154
       178.3284        138.9574
   5611586.57947   4372666.86846  22425626.8154   22425629.7334
     -3151.5944      -2455.7874
 98  7  2 15 59  0.0070000  0  8G10G 4G 5G 6G 8G 9G30G24
   -663158.31245   -486669.29344  25900926.7614   25900933.4174
       370.5314        288.7264
  18038878.42746  12741809.30346  24049025.2534   24049028.3234
     -5335.3284      -4157.3994
    597724.10947    503052.47747  22792122.9094   22792125.3584
     -1467.0474      -1143.1534
     78771.28644     39708.87443  26983093.3394   26983098.6014
      -390.4064       -304.2134
   5439569.63146   3570340.98046  23697008.0034   23697010.9684
     -3344.3594      -2605.9944
  17894672.62646  13943295.70846  24519228.2454   24519232.4294
     -5276.3914      -4111.4734
  -2035435.97046  -1520368.55546  24792057.9404   24792060.6244
       174.1094        135.6704
   5658932.28347   4409559.62046  22434636.3944   22434639.2654
     -3161.3124      -2463.3604
 98  7  2 15 59 15.0070000  0  8G10G 4G 5G 6G 8G 9G30G24
   -668697.55245   -490985.53244  25899872.2374   25899879.8354
       367.9064        286.6804
  18118959.03446  12804209.75446  24064264.0034   24064267.2724
     -5342.2194      -4162.7684
    619788.31347    520245.36347  22796321.4794   22796323.7294
     -1474.9534      -1149.3144
     84639.95644     44281.89743  26984210.9254   26984216.6554
      -392.2194       -305.6254
   5489820.43146   3609497.42446  23706570.2844   23706573.4604
     -3355.8284      -2614.9314
  17973867.27346  14005005.78046  24534298.2534   24534302.7764
     -5283.0164      -4116.6364
  -2038017.32146  -1522379.97646  24791566.3944   24791569.1714
       169.9534        132.4314
   5706423.67847   4446565.89546  22443673.5584   22443676.7224
     -3171.0164      -2470.9214
 98  7  2 15 59 30.0070000  0  8G10G 4G 5G 6G 8G 9G30G24
   -674196.24045   -495270.16844  25898826.2764   25898832.5344
       365.1254        284.5134
  18199143.54146  12866691.16646  24079522.7064   24079525.6594
     -5349.1874      -4168.1984
    641970.53347    537530.20647  22800542.7374   22800545.3044
     -1482.7664      -1155.4024
     90536.65844     48876.72443  26985332.7614   26985338.8314
      -394.0944       -307.0864
   5540242.46246   3648787.30346  23716165.4794   23716168.6084
     -3367.1874      -2623.7824
  18053162.23846  14066794.02146  24549387.8314   24549392.0854
     -5289.7814      -4121.9074
  -2040535.99446  -1524342.56446  24791087.2374   24791090.4484
       165.8284        129.2174
   5754061.43347   4483686.21946  22452738.8784   22452742.1944
     -3180.8594      -2478.5924
 98  7  2 15 59 45.0070000  0  8G10G 4G 5G 6G 8G 9G30G24
   -679651.65445   -499521.07544  25897788.1834   25897794.1834
       362.2194        282.2484
  18279435.08646  12929255.98646  24094801.5034   24094804.3274
     -5356.4374      -4173.8474
    664270.18547    554906.55847  22804786.1284   22804788.4484
     -1490.5784      -1161.4894
     96462.35444     53494.18043  26986460.4014   26986466.7064
      -396.0314       -308.5964
   5590834.49346   3688209.63846  23725792.7924   23725796.1794
     -3378.4534      -2632.5614
  18132560.34946  14128662.64546  24564496.9564   24564500.8004
     -5296.6414      -4127.2524
  -2042994.38946  -1526258.18046  24790619.5654   24790622.2964
       161.8914        126.1494
   5801849.38647   4520923.58246  22461832.8474   22461836.1634
     -3190.9694      -2486.4694
 98  7  2 16  0  0.0070000  0  8G10G 4G 5G 6G 8G 9G30G24
   -685063.92245   -503738.38944  25896758.1444   25896764.4724
       359.5004        280.1304
  18359835.02946  12991905.27046  24110101.0894   24110103.9954
     -5363.5314      -4179.3754
    686686.82147    572374.06647  22809051.7844   22809054.3394
     -1498.2974      -1167.5044
    102417.15943     58134.33043  26987592.9644   26987598.8114
      -397.9374       -310.0814
   5641595.12346   3727763.35946  23735452.1364   23735455.5464
     -3389.6094      -2641.2544
  18212059.78646  14190610.22546  24579624.8944   24579628.9364
     -5303.2194      -4132.3784
  -2045393.70146  -1528127.75046  24790163.2374   24790165.8744
       158.0314        123.1414
   5849788.67647   4558278.86446  22470955.0264   22470958.3664
     -3200.9374      -2494.2374
 98  7  2 16  0 15.0070000  0  8G10G 4G 5G 6G 8G 9G30G24
   -690434.94645   -507923.54245  25895735.8784   25895741.9834
       356.5474        277.8294
  18440341.01346  13054637.18346  24125420.9874   24125424.0464
     -5370.5474      -4184.8424
    709220.09447    589932.46147  22813340.0584   22813342.3434
     -1506.1724      -1173.6404
    108401.77543     62797.67143  26988731.9404   26988736.4174
      -399.9844       -311.6764
   5692523.43346   3767447.73946  23745143.4874   23745146.6044
     -3400.8594      -2650.0204
  18291655.63446  14252632.91746  24594771.5974   24594775.9444
     -5309.5944      -4137.3464
  -2047734.51546  -1529951.74746  24789717.5344   24789720.3704
       154.0164        120.0124
   5897876.22047   4595749.67046  22480105.6284   22480108.9334
     -3210.7034      -2501.8474
 98  7  2 16  0 30.0070000  0  8G10G 4G 5G 6G 8G 9G30G24
   -695761.03845   -512073.69445  25894722.7764   25894728.8354
       353.5784        275.5154
  18520949.43246  13117448.91546  24140760.2534   24140763.0654
     -5377.3284      -4190.1264
    731868.71847    607580.73747  22817649.8154   22817652.1594
     -1513.6724      -1179.4854
    114415.82443     67483.98043  26989876.7144   26989881.1204
      -401.9694       -313.2224
   5743619.40646   3807262.75546  23754866.7374   23754870.4764
     -3412.0474      -2658.7384
  18371345.05646  14314728.53846  24609935.8154   24609940.1754
     -5315.6724      -4142.0824
  -2050015.73346  -1531729.30346  24789283.5034   24789286.1864
       150.0784        116.9444
   5946108.16047   4633332.99446  22489284.0504   22489287.3544
     -3220.2034      -2509.2494
 98  7  2 16  0 45.0070000  0  8G10G 4G 5G 6G 8G 9G30G24
   -701042.98745   -516189.42345  25893717.1834   25893723.6514
       350.8134        273.3604
  18601661.35446  13180341.30046  24156119.1204   24156121.9794
     -5384.1254      -4195.4224
    754629.53247    625316.43747  22821981.1444   22821983.3944
     -1520.9534      -1185.1584
    120459.53643     72193.42843  26991026.2454   26991031.4484
      -403.6724       -314.5504
   5794884.31746   3847209.42546  23764622.0584   23764625.3514
     -3423.1094      -2667.3584
  18451125.47746  14376895.06246  24625117.5424   24625121.6444
     -5321.6094      -4146.7094
  -2052236.04246  -1533459.39646  24788860.9874   24788863.7884
       146.0784        113.8274
   5994480.46847   4671025.70046  22498489.0424   22498492.2064
     -3229.2974      -2516.3354
 98  7  2 16  1  0.0070000  0  8G10G 4G 5G 6G 8G 9G30G24
   -706282.42645   -520272.04444  25892720.1204   25892726.0974
       347.7664        270.9864
  18682476.17346  13243313.86046  24171497.8394   24171500.4994
     -5391.1564      -4200.9014
    777498.99047    643136.79047  22826333.0974   22826335.4404
     -1528.3444      -1190.9174
    126527.97943     76922.06243  26992181.8314   26992189.5694
      -405.4694       -315.9504
   5846313.98646   3887284.46646  23774409.0504   23774412.7064
     -3434.1414      -2675.9544
  18530996.42346  14439132.12746  24640316.3944   24640320.9174
     -5327.8754      -4151.5914
  -2054395.47246  -1535142.04546  24788450.2294   24788452.9724
       141.8134        110.5034
   6042989.73747   4708825.12446  22507720.1594   22507723.0194
     -3238.6564      -2523.6284
 98  7  2 16  1 15.0070000  0  8G10G 4G 5G 6G 8G 9G30G24
   -711478.65745   -524321.00645  25891731.1674   25891737.9764
       344.9384        268.7824
  18763392.44746  13306365.48146  24186896.0734   24186898.8274
     -5397.8284      -4206.1004
    800477.68047    661042.26347  22830705.8474   22830708.0734
     -1535.7034      -1196.6524
    132624.57043     81672.68042  26993341.2614   26993347.6474
      -407.5944       -317.6064
   5897906.17646   3927486.14846  23784226.6284   23784229.8864
     -3445.0474      -2684.4524
  18610961.96146  14501442.90046  24655533.4724   24655537.9014
     -5334.4534      -4156.7174
  -2056492.48246  -1536776.06246  24788051.0034   24788053.6284
       137.6414        107.2524
   6091636.27847   4746731.51546  22516977.2144   22516980.2724
     -3247.7194      -2530.6904
 98  7  2 16  1 30.0070000  0  8G10G 4G 5G 6G 8G 9G30G24
   -716632.99845   -528337.32345  25890750.1124   25890756.9444
       342.2664        266.7004
  18844409.10346  13369495.31646  24202312.8474   24202315.4724
     -5404.5004      -4211.2994
    823567.97847    679034.70147  22835099.5194   22835101.6284
     -1543.0624      -1202.3864
    138754.52544     86449.29043  26994508.0894   26994512.7414
      -409.8444       -319.3594
   5949664.24046   3967817.09046  23794075.8004   23794079.0464
     -3456.1414      -2693.0974
  18691026.63846  14563830.92546  24670769.3004   24670773.7764
     -5340.9374      -4161.7694
  -2058526.48246  -1538360.97246  24787664.0344   24787666.7884
       133.5004        104.0264
   6140419.82247   4784744.66646  22526260.5034   22526263.6794
     -3256.8914      -2537.8374
 98  7  2 16  1 45.0070000  0  8G10G 4G 5G 6G 8G 9G30G24
   -721747.71645   -532322.77845  25889777.5734   25889784.0894
       339.5944        264.6194
  18925525.16646  13432702.61446  24217748.5424   24217751.1554
     -5411.1094      -4216.4494
    846767.89947    697112.55847  22839514.5584   22839516.7374
     -1550.4064      -1208.1094
    144918.83843     91252.66643  26995680.2534   26995686.1834
      -412.1094       -321.1244
   6001589.99546   4008278.70046  23803957.2454   23803960.8544
     -3467.4064      -2701.8754
  18771187.42646  14626293.84446  24686023.5344   24686027.7184
     -5347.2344      -4166.6764
  -2060498.63646  -1539897.69646  24787288.7924   24787291.3704
       129.3594        100.8004
   6189342.28447   4822866.05846  22535570.0504   22535573.1674
     -3266.2664      -2545.1424
 98  7  2 16  2  0.0070000  0  8G10G 4G 5G 6G 8G 9G30G24
   -726823.17945   -536277.59045  25888811.1904   25888817.2724
       337.1884        262.7444
  19006739.78346  13495986.70746  24233203.2924   24233205.9994
     -5417.4224      -4221.3684
    870079.26447    715277.25747  22843950.5584   22843952.7024
     -1557.7814      -1213.8564
    151116.53544     96082.06843  26996860.0424   26996866.4294
      -414.2034       -322.7564
   6053684.96246   4048872.15246  23813870.4874   23813873.7924
     -3478.6414      -2710.6294
  18851441.48046  14688829.42946  24701295.4644   24701299.7414
     -5353.2344      -4171.3514
  -2062407.65746  -1541385.22846  24786925.4404   24786928.1834
       125.1254         97.5004
   6238405.17347   4861096.87246  22544906.5814   22544909.7334
     -3275.3914      -2552.2524
 98  7  2 16  2 15.0070000  0  8G10G 4G 5G 6G 8G 9G30G24
   -731862.96745   -540204.62345  25887852.0424   25887858.9484
       334.6414        260.7594
  19088046.98346  13559342.93846  24248675.6514   24248678.5694
     -5423.6414      -4226.2134
    893502.46647    733529.10047  22848407.5584   22848409.7264
     -1565.4534      -1219.8344
    157344.54443    100935.11843  26998045.2144   26998050.7334
      -416.3124       -324.3994
   6105950.53946   4089598.55646  23823816.2844   23823819.7534
     -3490.1564      -2719.6024
  18931785.24246  14751434.92546  24716584.3704   24716588.3904
     -5359.4064      -4176.1614
  -2064253.29146  -1542823.35546  24786574.0974   24786576.4644
       120.8914         94.2004
   6287603.79347   4899433.45546  22554268.6124   22554271.7534
     -3284.5784      -2559.4124
 98  7  2 16  2 30.0070000  0  8G10G 4G 5G 6G 8G 9G30G24
   -736864.81445   -544102.14345  25886900.7144   25886906.6674
       332.2504        258.8964
  19169446.01346  13622770.73446  24264165.0584   24264167.8114
     -5429.5944      -4230.8524
    917040.49747    751870.42247  22852886.9254   22852889.1864
     -1572.9534      -1225.6784
    163601.75043    105810.86843  26999236.4334   26999240.6754
      -418.0004       -325.7144
   6158386.16946   4130457.46746  23833794.0894   23833797.9444
     -3501.3124      -2728.2954
  19012221.72046  14814112.66246  24731890.9484   24731894.9444
     -5365.5474      -4180.9464
  -2066038.33946  -1544214.28646  24786234.1984   24786236.8704
       117.0944         91.2424
   6336938.98447   4937876.45146  22563656.8394   22563660.3314
     -3293.5164      -2566.3764
 98  7  2 16  2 45.0070000  0  8G10G 4G 5G 6G 8G 9G30G24
   -741828.96445   -547970.23145  25885955.5654   25885961.4254
       329.6884        256.8994
  19250937.44146  13686270.52646  24279672.6904   24279675.5734
     -5435.8594      -4235.7354
    940693.25847    770301.14247  22857387.8474   22857390.0264
     -1580.7814      -1231.7784
    169884.84943    110706.83442  27000431.6754   27000436.9604
      -419.7344       -327.0664
   6210991.20546   4171448.38346  23843804.5584   23843808.1444
     -3512.6724      -2737.1474
  19092752.42146  14876863.82546  24747215.4334   24747219.4404
     -5371.8444      -4185.8524
  -2067763.69846  -1545558.69746  24785906.4174   24785909.2414
       113.0004         88.0524
   6386412.08447   4976426.91246  22573071.3084   22573074.7064
     -3302.9064      -2573.6934
 98  7  2 16  3  0.0070000  0  8G10G 4G 5G 6G 8G 9G30G24
   -746753.42945   -551807.40845  25885018.2614   25885023.8274
       326.8134        254.6594
  19332520.99646  13749842.10046  24295197.3154   24295200.5974
     -5441.9064      -4240.4464
    964467.17147    788826.26447  22861912.0344   22861914.3784
     -1589.1414      -1238.2914
    176194.39243    115623.40242  27001631.7694   27001639.3084
      -421.5624       -328.4904
   6263765.50246   4212571.18646  23853847.4794   23853850.5734
     -3523.9534      -2745.9374
  19173379.04546  14939689.72946  24762558.3474   24762562.4364
     -5378.4064      -4190.9664
  -2069427.00846  -1546854.76446  24785589.5114   24785592.4764
       108.7664         84.7524
   6436027.64947   5015088.38446  22582512.9564   22582516.2264
     -3312.5624      -2581.2184
 98  7  2 16  3 15.0070000  0  8G10G 4G 5G 6G 8G 9G30G24
   -751635.06745   -555611.23444  25884089.6204   25884095.6794
       324.0164        252.4804
  19414191.89846  13813481.73946  24310738.7694   24310742.1204
     -5447.6414      -4244.9154
    988365.09047    807448.02347  22866459.5344   22866461.8434
     -1597.3754      -1244.7084
    182530.98743    120561.01342  27002837.5584   27002844.9794
      -423.4694       -329.9764
   6316709.29346   4253826.06946  23863922.4724   23863925.7294
     -3535.3914      -2754.8504
  19254101.67046  15002590.43546  24777919.4334   24777923.6514
     -5384.6724      -4195.8484
  -2071029.10546  -1548103.12546  24785284.5424   24785287.3904
       104.7664         81.6364
   6485787.93347   5053862.62546  22591981.9014   22591985.0194
     -3322.2814      -2588.7914
 98  7  2 16  3 30.0070000  0  8G10G 4G 5G 6G 8G 9G30G24
   -756475.31745   -559382.76445  25883168.0264   25883174.1324
       321.2814        250.3494
  19495947.73346  13877187.55946  24326296.3544   24326299.8114
     -5453.2344      -4249.2744
   1012386.47947    826165.98447  22871030.8084   22871032.9174
     -1605.5314      -1251.0634
    188896.22243    125521.00242  27004048.7224   27004054.4874
      -425.2034       -331.3274
   6369825.28846   4295215.12746  23874029.5194   23874032.7414
     -3546.7974      -2763.7384
  19334915.43346  15065562.16146  24793297.7454   24793301.9874
     -5390.5004      -4200.3904
  -2072573.20946  -1549306.31446  24784990.7294   24784993.6124
       101.0784         78.7624
   6535693.17347   5092749.82246  22601478.5344   22601481.6864
     -3331.8594      -2596.2544
 98  7  2 16  3 45.0080000  0  8G10G 4G 5G 6G 8G 9G30G24
   -761269.39845   -563118.36845  25882255.6804   25882261.8914
       318.0314        247.8174
  19577797.03946  13940966.21646  24341871.9694   24341875.3204
     -5459.1094      -4253.8514
   1036535.15147    844983.12747  22875626.1954   22875628.3984
     -1613.9064      -1257.5894
    195288.66743    130502.13742  27005266.0704   27005272.9414
      -426.8914       -332.6424
   6423120.13146   4336743.55746  23884171.6414   23884174.8874
     -3558.5474      -2772.8944
  19415822.36846  15128606.48646  24808693.8284   24808698.3754
     -5396.2664      -4204.8824
  -2074058.83546  -1550463.91646  24784707.9454   24784711.1804
        97.1254         75.6824
   6585749.29847   5131754.59146  22611003.6724   22611006.6724
     -3341.6874      -2603.9124
 98  7  2 16  4  0.0080000  0  8G10G 4G 5G 6G 8G 9G30G24
   -766014.28045   -566815.61745  25881353.3284   25881359.7734
       314.7504        245.2604
  19659727.23246  14004807.89846  24357462.7974   24357466.0314
     -5464.7664      -4258.2594
   1060807.38847    863896.56147  22880244.8594   22880247.2624
     -1622.2504      -1264.0914
    201705.37843    135502.20542  27006486.6724   27006490.9264
      -428.5314       -333.9204
   6476585.63346   4378404.96546  23894346.0234   23894349.6914
     -3570.0314      -2781.8434
  19496811.24546  15191714.66246  24824105.8444   24824110.6024
     -5402.1564      -4209.4724
  -2075484.98546  -1551575.19146  24784436.6414   24784439.8284
        93.1414         72.5774
   6635948.56047   5170870.89646  22620556.5084   22620559.8594
     -3351.3594      -2611.4494
 98  7  2 16  4 15.0080000  0  8G10G 4G 5G 6G 8G 9G30G24
   -770708.34145   -570473.25745  25880459.7584   25880465.9104
       311.3284        242.5934
  19741743.69246  14068716.79946  24373069.9374   24373073.1484
     -5470.5784      -4262.7884
   1085206.29947    882908.69747  22884887.8674   22884890.3284
     -1630.6874      -1270.6664
    208149.33843    140523.47842  27007712.6024   27007717.8874
      -430.3914       -335.3694
   6530225.26746   4420202.05846  23904553.1254   23904556.9104
     -3581.7034      -2790.9374
  19577892.02746  15254894.45346  24839535.0164   24839539.3634
     -5408.3754      -4214.3184
  -2076848.11146  -1552637.34546  24784177.0624   24784180.0984
        88.8594         69.2414
   6686293.69947   5210100.86946  22630137.0004   22630140.1054
     -3361.0474      -2618.9984
 98  7  2 16  4 30.0080000  0  8G10G 4G 5G 6G 8G 9G30G24
   -775348.89745   -574089.18745  25879576.9224   25879583.3554
       307.4224        239.5504
  19823849.60446  14132695.41046  24388694.2424   24388697.4534
     -5476.9064      -4267.7194
   1109730.76647    902018.66747  22889554.8444   22889557.4924
     -1639.2034      -1277.3014
    214620.62043    145566.08442  27008944.7504   27008950.2344
      -432.4224       -336.9524
   6584038.83946   4462134.68946  23914793.6724   23914797.0944
     -3593.3914      -2800.0454
  19659066.80146  15318147.48546  24854981.7974   24854986.1804
     -5414.9064      -4219.4074
  -2078147.82846  -1553650.09046  24783929.8754   24783932.4184
        84.3914         65.7594
   6736784.39247   5249444.26246  22639745.1254   22639748.5234
     -3371.0314      -2626.7784
 98  7  2 16  4 45.0080000  0  8G10G 4G 5G 6G 8G 9G30G24
   -779935.51445   -577663.13445  25878703.7734   25878709.8094
       304.2034        237.0414
  19906048.32446  14196746.33446  24404336.0394   24404339.0744
     -5482.8594      -4272.3584
   1134378.61247    921224.78247  22894245.0624   22894247.4534
     -1647.1094      -1283.4624
    221119.12043    150629.89842  27010181.3444   27010188.8244
      -434.0004       -338.1824
   6638023.92946   4504200.96346  23925066.6804   23925070.1374
     -3604.5474      -2808.7384
  19740335.92146  15381474.03146  24870446.8914   24870451.4964
     -5420.8754      -4224.0584
  -2079380.95046  -1554610.94646  24783695.2664   24783698.1024
        80.0634         62.3864
   6787421.15247   5288901.47346  22649380.9374   22649384.1604
     -3380.4694      -2634.1314
 98  7  2 16  5  0.0080000  0  8G10G 4G 5G 6G 8G 9G30G24
   -784472.32645   -581198.21645  25877840.5084   25877846.0864
       300.7504        234.3514
  19988337.25746  14260867.56146  24419995.3444   24419998.3204
     -5488.9064      -4277.0704
   1159146.28147    940524.26247  22898958.1094   22898960.3714
     -1655.1874      -1289.7564
    227644.13143    155714.36242  27011422.2424   27011429.5004
      -436.0474       -339.7774
   6692176.60946   4546397.83446  23935371.7894   23935375.1994
     -3615.7974      -2817.5044
  19821695.12546  15444870.77546  24885929.3124   24885933.9064
     -5427.0004      -4228.8314
  -2080546.61346  -1555519.23346  24783473.2584   24783476.1524
        75.4694         58.8074
   6838200.83847   5328470.05646  22659044.0474   22659047.4574
     -3390.1094      -2641.6444
 98  7  2 16  5 15.0080000  0  8G10G 4G 5G 6G 8G 9G30G24
   -788956.76245   -584692.51445  25876987.0394   25876993.4844
       297.2504        231.6234
  20070716.09146  14325058.83246  24435671.5234   24435674.5594
     -5494.9374      -4281.7694
   1184033.94947    959917.25247  22903693.9924   22903696.5004
     -1663.0624      -1295.8934
    234201.87243    160824.29742  27012670.3204   27012674.5274
      -438.2664       -341.5064
   6746498.64546   4588726.67446  23945708.8054   23945712.5314
     -3627.1094      -2826.3194
  19903148.02746  15508340.53346  24901429.1174   24901433.3944
     -5433.2974      -4233.7384
  -2081644.49146  -1556374.71446  24783264.5004   24783267.3364
        70.9694         55.3004
   6889124.54147   5368150.85846  22668734.3444   22668737.8364
     -3399.7344      -2649.1444
 98  7  2 16  5 30.0080000  0  8G10G 4G 5G 6G 8G 9G30G24
   -793392.48745   -588148.87545  25876142.9614   25876149.1954
       294.1414        229.2004
  20153185.58646  14389320.74646  24451364.9374   24451368.0664
     -5501.1094      -4286.5794
   1209035.11647    979398.67447  22908451.7114   22908454.1724
     -1670.5474      -1301.7254
    240789.99443    165957.93642  27013923.7274   27013930.5234
      -440.2194       -343.0284
   6800988.03846   4631185.90846  23956078.0084   23956081.6994
     -3638.1564      -2834.9274
  19984692.07746  15571881.30446  24916946.3754   24916950.8404
     -5439.3444      -4238.4504
  -2082678.31546  -1557180.27346  24783067.6724   24783070.4374
        66.7814         52.0374
   6940191.55547   5407943.33246  22678452.0624   22678455.5084
     -3409.2814      -2656.5834
